<?xml version="1.0" encoding="UTF-8" standalone="no" ?>
<gpx xmlns="http://www.topografix.com/GPX/1/1" xmlns:xsi="http://www.w3.org/2001/XMLSchema-instance" xsi:schemaLocation="http://www.topografix.com/GPX/1/1 http://www.topografix.com/GPX/1/1/gpx.xsd" version="1.1" creator="VisuGPX - https://www.visugpx.com">
  <metadata>
    <name>Rando des Megalithes</name>
    <desc><![CDATA[Rando autour du fremur entre le golf tde Tremereuc et Pleslin-Trigavou]]></desc>
  </metadata>
  <trk>
    <name><![CDATA[27/07/2010 15:10:41]]></name>
    <trkseg>
      <trkpt lat="48.49568" lon="-2.02955">
        <ele>107.5</ele>
        <time>2010-07-27T15:11:01</time>
      </trkpt>
      <trkpt lat="48.49568" lon="-2.02954">
        <ele>112</ele>
        <time>2010-07-27T15:11:04</time>
      </trkpt>
      <trkpt lat="48.49565" lon="-2.0295">
        <ele>113</ele>
        <time>2010-07-27T15:11:10</time>
      </trkpt>
      <trkpt lat="48.49566" lon="-2.02951">
        <ele>115</ele>
        <time>2010-07-27T15:11:13</time>
      </trkpt>
      <trkpt lat="48.49567" lon="-2.02952">
        <ele>116.5</ele>
        <time>2010-07-27T15:11:16</time>
      </trkpt>
      <trkpt lat="48.49567" lon="-2.02951">
        <ele>116.5</ele>
        <time>2010-07-27T15:11:22</time>
      </trkpt>
      <trkpt lat="48.49566" lon="-2.02951">
        <ele>116</ele>
        <time>2010-07-27T15:11:25</time>
      </trkpt>
      <trkpt lat="48.49567" lon="-2.02952">
        <ele>116</ele>
        <time>2010-07-27T15:11:28</time>
      </trkpt>
      <trkpt lat="48.49567" lon="-2.02952">
        <ele>116</ele>
        <time>2010-07-27T15:11:34</time>
      </trkpt>
      <trkpt lat="48.49567" lon="-2.02952">
        <ele>115.5</ele>
        <time>2010-07-27T15:11:37</time>
      </trkpt>
      <trkpt lat="48.49567" lon="-2.02953">
        <ele>117</ele>
        <time>2010-07-27T15:11:40</time>
      </trkpt>
      <trkpt lat="48.49568" lon="-2.02954">
        <ele>117.5</ele>
        <time>2010-07-27T15:11:46</time>
      </trkpt>
      <trkpt lat="48.49569" lon="-2.02955">
        <ele>116</ele>
        <time>2010-07-27T15:11:49</time>
      </trkpt>
      <trkpt lat="48.49569" lon="-2.02955">
        <ele>117</ele>
        <time>2010-07-27T15:11:52</time>
      </trkpt>
      <trkpt lat="48.4957" lon="-2.02957">
        <ele>118</ele>
        <time>2010-07-27T15:11:55</time>
      </trkpt>
      <trkpt lat="48.4957" lon="-2.02957">
        <ele>118</ele>
        <time>2010-07-27T15:11:58</time>
      </trkpt>
      <trkpt lat="48.4957" lon="-2.0296">
        <ele>121</ele>
        <time>2010-07-27T15:12:01</time>
      </trkpt>
      <trkpt lat="48.4957" lon="-2.02962">
        <ele>125</ele>
        <time>2010-07-27T15:12:04</time>
      </trkpt>
      <trkpt lat="48.49569" lon="-2.02962">
        <ele>126</ele>
        <time>2010-07-27T15:12:07</time>
      </trkpt>
      <trkpt lat="48.49569" lon="-2.02962">
        <ele>125.5</ele>
        <time>2010-07-27T15:12:10</time>
      </trkpt>
      <trkpt lat="48.49568" lon="-2.02962">
        <ele>125</ele>
        <time>2010-07-27T15:12:13</time>
      </trkpt>
      <trkpt lat="48.49569" lon="-2.02962">
        <ele>125.5</ele>
        <time>2010-07-27T15:12:16</time>
      </trkpt>
      <trkpt lat="48.49569" lon="-2.02962">
        <ele>126</ele>
        <time>2010-07-27T15:12:19</time>
      </trkpt>
      <trkpt lat="48.49569" lon="-2.02962">
        <ele>124.5</ele>
        <time>2010-07-27T15:12:22</time>
      </trkpt>
      <trkpt lat="48.49569" lon="-2.02963">
        <ele>123</ele>
        <time>2010-07-27T15:12:25</time>
      </trkpt>
      <trkpt lat="48.49569" lon="-2.02965">
        <ele>125.5</ele>
        <time>2010-07-27T15:12:28</time>
      </trkpt>
      <trkpt lat="48.49569" lon="-2.02965">
        <ele>127.5</ele>
        <time>2010-07-27T15:12:31</time>
      </trkpt>
      <trkpt lat="48.49569" lon="-2.02965">
        <ele>128.5</ele>
        <time>2010-07-27T15:12:34</time>
      </trkpt>
      <trkpt lat="48.49569" lon="-2.02965">
        <ele>127</ele>
        <time>2010-07-27T15:12:37</time>
      </trkpt>
      <trkpt lat="48.49569" lon="-2.02966">
        <ele>127.5</ele>
        <time>2010-07-27T15:12:41</time>
      </trkpt>
      <trkpt lat="48.4957" lon="-2.02961">
        <ele>119.5</ele>
        <time>2010-07-27T15:12:46</time>
      </trkpt>
      <trkpt lat="48.4957" lon="-2.02961">
        <ele>119</ele>
        <time>2010-07-27T15:12:49</time>
      </trkpt>
      <trkpt lat="48.4957" lon="-2.02961">
        <ele>119</ele>
        <time>2010-07-27T15:12:53</time>
      </trkpt>
      <trkpt lat="48.49559" lon="-2.02956">
        <ele>112.5</ele>
        <time>2010-07-27T15:12:58</time>
      </trkpt>
      <trkpt lat="48.49552" lon="-2.02949">
        <ele>112.5</ele>
        <time>2010-07-27T15:13:02</time>
      </trkpt>
      <trkpt lat="48.49544" lon="-2.02943">
        <ele>112.5</ele>
        <time>2010-07-27T15:13:05</time>
      </trkpt>
      <trkpt lat="48.49536" lon="-2.02938">
        <ele>112.5</ele>
        <time>2010-07-27T15:13:08</time>
      </trkpt>
      <trkpt lat="48.49528" lon="-2.02934">
        <ele>111.5</ele>
        <time>2010-07-27T15:13:11</time>
      </trkpt>
      <trkpt lat="48.49507" lon="-2.02939">
        <ele>109.5</ele>
        <time>2010-07-27T15:13:17</time>
      </trkpt>
      <trkpt lat="48.49496" lon="-2.02936">
        <ele>109.5</ele>
        <time>2010-07-27T15:13:20</time>
      </trkpt>
      <trkpt lat="48.49484" lon="-2.02932">
        <ele>110</ele>
        <time>2010-07-27T15:13:23</time>
      </trkpt>
      <trkpt lat="48.49472" lon="-2.02928">
        <ele>109.5</ele>
        <time>2010-07-27T15:13:26</time>
      </trkpt>
      <trkpt lat="48.4946" lon="-2.02923">
        <ele>109.5</ele>
        <time>2010-07-27T15:13:29</time>
      </trkpt>
      <trkpt lat="48.49436" lon="-2.02911">
        <ele>108.5</ele>
        <time>2010-07-27T15:13:35</time>
      </trkpt>
      <trkpt lat="48.49438" lon="-2.02895">
        <ele>109</ele>
        <time>2010-07-27T15:13:38</time>
      </trkpt>
      <trkpt lat="48.49439" lon="-2.02879">
        <ele>109</ele>
        <time>2010-07-27T15:13:41</time>
      </trkpt>
      <trkpt lat="48.49431" lon="-2.0287">
        <ele>109</ele>
        <time>2010-07-27T15:13:44</time>
      </trkpt>
      <trkpt lat="48.49418" lon="-2.02865">
        <ele>109</ele>
        <time>2010-07-27T15:13:47</time>
      </trkpt>
      <trkpt lat="48.49407" lon="-2.02858">
        <ele>109.5</ele>
        <time>2010-07-27T15:13:50</time>
      </trkpt>
      <trkpt lat="48.49395" lon="-2.0285">
        <ele>109</ele>
        <time>2010-07-27T15:13:53</time>
      </trkpt>
      <trkpt lat="48.49384" lon="-2.0284">
        <ele>109</ele>
        <time>2010-07-27T15:13:56</time>
      </trkpt>
      <trkpt lat="48.49374" lon="-2.02841">
        <ele>109.5</ele>
        <time>2010-07-27T15:13:59</time>
      </trkpt>
      <trkpt lat="48.49369" lon="-2.02856">
        <ele>110</ele>
        <time>2010-07-27T15:14:02</time>
      </trkpt>
      <trkpt lat="48.49362" lon="-2.02873">
        <ele>109.5</ele>
        <time>2010-07-27T15:14:05</time>
      </trkpt>
      <trkpt lat="48.49356" lon="-2.02892">
        <ele>109.5</ele>
        <time>2010-07-27T15:14:08</time>
      </trkpt>
      <trkpt lat="48.49349" lon="-2.02913">
        <ele>109</ele>
        <time>2010-07-27T15:14:11</time>
      </trkpt>
      <trkpt lat="48.49342" lon="-2.02933">
        <ele>109</ele>
        <time>2010-07-27T15:14:14</time>
      </trkpt>
      <trkpt lat="48.49334" lon="-2.02949">
        <ele>108</ele>
        <time>2010-07-27T15:14:17</time>
      </trkpt>
      <trkpt lat="48.49323" lon="-2.02948">
        <ele>109.5</ele>
        <time>2010-07-27T15:14:20</time>
      </trkpt>
      <trkpt lat="48.49313" lon="-2.02937">
        <ele>110</ele>
        <time>2010-07-27T15:14:23</time>
      </trkpt>
      <trkpt lat="48.49304" lon="-2.02926">
        <ele>110.5</ele>
        <time>2010-07-27T15:14:26</time>
      </trkpt>
      <trkpt lat="48.49293" lon="-2.02919">
        <ele>110.5</ele>
        <time>2010-07-27T15:14:29</time>
      </trkpt>
      <trkpt lat="48.49283" lon="-2.02922">
        <ele>111</ele>
        <time>2010-07-27T15:14:32</time>
      </trkpt>
      <trkpt lat="48.49273" lon="-2.02929">
        <ele>111.5</ele>
        <time>2010-07-27T15:14:35</time>
      </trkpt>
      <trkpt lat="48.49265" lon="-2.02938">
        <ele>112.5</ele>
        <time>2010-07-27T15:14:38</time>
      </trkpt>
      <trkpt lat="48.4926" lon="-2.02954">
        <ele>111.5</ele>
        <time>2010-07-27T15:14:41</time>
      </trkpt>
      <trkpt lat="48.49254" lon="-2.02972">
        <ele>111.5</ele>
        <time>2010-07-27T15:14:44</time>
      </trkpt>
      <trkpt lat="48.49249" lon="-2.02991">
        <ele>111</ele>
        <time>2010-07-27T15:14:47</time>
      </trkpt>
      <trkpt lat="48.49243" lon="-2.0301">
        <ele>111</ele>
        <time>2010-07-27T15:14:50</time>
      </trkpt>
      <trkpt lat="48.49238" lon="-2.03027">
        <ele>111</ele>
        <time>2010-07-27T15:14:53</time>
      </trkpt>
      <trkpt lat="48.49228" lon="-2.03036">
        <ele>111.5</ele>
        <time>2010-07-27T15:14:56</time>
      </trkpt>
      <trkpt lat="48.49218" lon="-2.03037">
        <ele>111.5</ele>
        <time>2010-07-27T15:14:59</time>
      </trkpt>
      <trkpt lat="48.49209" lon="-2.03037">
        <ele>112</ele>
        <time>2010-07-27T15:15:02</time>
      </trkpt>
      <trkpt lat="48.49195" lon="-2.03039">
        <ele>112.5</ele>
        <time>2010-07-27T15:15:05</time>
      </trkpt>
      <trkpt lat="48.4919" lon="-2.03047">
        <ele>112.5</ele>
        <time>2010-07-27T15:15:08</time>
      </trkpt>
      <trkpt lat="48.49184" lon="-2.03062">
        <ele>113.5</ele>
        <time>2010-07-27T15:15:11</time>
      </trkpt>
      <trkpt lat="48.49175" lon="-2.03075">
        <ele>113.5</ele>
        <time>2010-07-27T15:15:14</time>
      </trkpt>
      <trkpt lat="48.49164" lon="-2.03079">
        <ele>115</ele>
        <time>2010-07-27T15:15:17</time>
      </trkpt>
      <trkpt lat="48.49153" lon="-2.03077">
        <ele>115.5</ele>
        <time>2010-07-27T15:15:20</time>
      </trkpt>
      <trkpt lat="48.49141" lon="-2.03076">
        <ele>115.5</ele>
        <time>2010-07-27T15:15:23</time>
      </trkpt>
      <trkpt lat="48.49131" lon="-2.03087">
        <ele>116</ele>
        <time>2010-07-27T15:15:26</time>
      </trkpt>
      <trkpt lat="48.49122" lon="-2.031">
        <ele>116.5</ele>
        <time>2010-07-27T15:15:29</time>
      </trkpt>
      <trkpt lat="48.49103" lon="-2.03127">
        <ele>116</ele>
        <time>2010-07-27T15:15:35</time>
      </trkpt>
      <trkpt lat="48.49094" lon="-2.03141">
        <ele>116.5</ele>
        <time>2010-07-27T15:15:38</time>
      </trkpt>
      <trkpt lat="48.49082" lon="-2.03158">
        <ele>116.5</ele>
        <time>2010-07-27T15:15:41</time>
      </trkpt>
      <trkpt lat="48.49073" lon="-2.0317">
        <ele>116.5</ele>
        <time>2010-07-27T15:15:44</time>
      </trkpt>
      <trkpt lat="48.49064" lon="-2.03183">
        <ele>116.5</ele>
        <time>2010-07-27T15:15:47</time>
      </trkpt>
      <trkpt lat="48.49047" lon="-2.03208">
        <ele>117.5</ele>
        <time>2010-07-27T15:15:53</time>
      </trkpt>
      <trkpt lat="48.49042" lon="-2.03216">
        <ele>117.5</ele>
        <time>2010-07-27T15:15:56</time>
      </trkpt>
      <trkpt lat="48.4903" lon="-2.03232">
        <ele>118</ele>
        <time>2010-07-27T15:15:59</time>
      </trkpt>
      <trkpt lat="48.49015" lon="-2.03254">
        <ele>120</ele>
        <time>2010-07-27T15:16:05</time>
      </trkpt>
      <trkpt lat="48.49007" lon="-2.03265">
        <ele>120</ele>
        <time>2010-07-27T15:16:08</time>
      </trkpt>
      <trkpt lat="48.49002" lon="-2.03273">
        <ele>120</ele>
        <time>2010-07-27T15:16:11</time>
      </trkpt>
      <trkpt lat="48.4899" lon="-2.03287">
        <ele>120.5</ele>
        <time>2010-07-27T15:16:14</time>
      </trkpt>
      <trkpt lat="48.48979" lon="-2.03291">
        <ele>120.5</ele>
        <time>2010-07-27T15:16:18</time>
      </trkpt>
      <trkpt lat="48.48969" lon="-2.033">
        <ele>121.5</ele>
        <time>2010-07-27T15:16:20</time>
      </trkpt>
      <trkpt lat="48.48961" lon="-2.0331">
        <ele>121.5</ele>
        <time>2010-07-27T15:16:24</time>
      </trkpt>
      <trkpt lat="48.48961" lon="-2.03333">
        <ele>121</ele>
        <time>2010-07-27T15:16:29</time>
      </trkpt>
      <trkpt lat="48.48974" lon="-2.03352">
        <ele>120.5</ele>
        <time>2010-07-27T15:16:32</time>
      </trkpt>
      <trkpt lat="48.48983" lon="-2.03367">
        <ele>121</ele>
        <time>2010-07-27T15:16:35</time>
      </trkpt>
      <trkpt lat="48.48992" lon="-2.0338">
        <ele>122</ele>
        <time>2010-07-27T15:16:38</time>
      </trkpt>
      <trkpt lat="48.49002" lon="-2.03397">
        <ele>122</ele>
        <time>2010-07-27T15:16:41</time>
      </trkpt>
      <trkpt lat="48.49012" lon="-2.03415">
        <ele>121.5</ele>
        <time>2010-07-27T15:16:44</time>
      </trkpt>
      <trkpt lat="48.49021" lon="-2.03433">
        <ele>121.5</ele>
        <time>2010-07-27T15:16:47</time>
      </trkpt>
      <trkpt lat="48.49031" lon="-2.03454">
        <ele>122</ele>
        <time>2010-07-27T15:16:50</time>
      </trkpt>
      <trkpt lat="48.4904" lon="-2.03475">
        <ele>122.5</ele>
        <time>2010-07-27T15:16:53</time>
      </trkpt>
      <trkpt lat="48.49049" lon="-2.03496">
        <ele>123</ele>
        <time>2010-07-27T15:16:56</time>
      </trkpt>
      <trkpt lat="48.4906" lon="-2.03517">
        <ele>124.5</ele>
        <time>2010-07-27T15:16:59</time>
      </trkpt>
      <trkpt lat="48.49069" lon="-2.0354">
        <ele>124</ele>
        <time>2010-07-27T15:17:02</time>
      </trkpt>
      <trkpt lat="48.49075" lon="-2.03555">
        <ele>124.5</ele>
        <time>2010-07-27T15:17:05</time>
      </trkpt>
      <trkpt lat="48.49085" lon="-2.03584">
        <ele>125.5</ele>
        <time>2010-07-27T15:17:08</time>
      </trkpt>
      <trkpt lat="48.49094" lon="-2.03603">
        <ele>128.5</ele>
        <time>2010-07-27T15:17:11</time>
      </trkpt>
      <trkpt lat="48.49103" lon="-2.03625">
        <ele>130</ele>
        <time>2010-07-27T15:17:14</time>
      </trkpt>
      <trkpt lat="48.4911" lon="-2.03646">
        <ele>130.5</ele>
        <time>2010-07-27T15:17:17</time>
      </trkpt>
      <trkpt lat="48.49112" lon="-2.0366">
        <ele>132.5</ele>
        <time>2010-07-27T15:17:20</time>
      </trkpt>
      <trkpt lat="48.49115" lon="-2.03673">
        <ele>134</ele>
        <time>2010-07-27T15:17:23</time>
      </trkpt>
      <trkpt lat="48.49125" lon="-2.03701">
        <ele>136.5</ele>
        <time>2010-07-27T15:17:26</time>
      </trkpt>
      <trkpt lat="48.49128" lon="-2.03712">
        <ele>138.5</ele>
        <time>2010-07-27T15:17:29</time>
      </trkpt>
      <trkpt lat="48.49132" lon="-2.03736">
        <ele>142</ele>
        <time>2010-07-27T15:17:32</time>
      </trkpt>
      <trkpt lat="48.49136" lon="-2.03755">
        <ele>143.5</ele>
        <time>2010-07-27T15:17:35</time>
      </trkpt>
      <trkpt lat="48.49145" lon="-2.0378">
        <ele>145</ele>
        <time>2010-07-27T15:17:38</time>
      </trkpt>
      <trkpt lat="48.49156" lon="-2.03809">
        <ele>145</ele>
        <time>2010-07-27T15:17:41</time>
      </trkpt>
      <trkpt lat="48.49166" lon="-2.03838">
        <ele>143</ele>
        <time>2010-07-27T15:17:44</time>
      </trkpt>
      <trkpt lat="48.49176" lon="-2.03868">
        <ele>140.5</ele>
        <time>2010-07-27T15:17:47</time>
      </trkpt>
      <trkpt lat="48.49186" lon="-2.03901">
        <ele>138.5</ele>
        <time>2010-07-27T15:17:50</time>
      </trkpt>
      <trkpt lat="48.49192" lon="-2.03921">
        <ele>138</ele>
        <time>2010-07-27T15:17:53</time>
      </trkpt>
      <trkpt lat="48.49203" lon="-2.0396">
        <ele>136.5</ele>
        <time>2010-07-27T15:17:56</time>
      </trkpt>
      <trkpt lat="48.49213" lon="-2.0399">
        <ele>136</ele>
        <time>2010-07-27T15:18:00</time>
      </trkpt>
      <trkpt lat="48.49224" lon="-2.04021">
        <ele>135.5</ele>
        <time>2010-07-27T15:18:03</time>
      </trkpt>
      <trkpt lat="48.49233" lon="-2.0405">
        <ele>135.5</ele>
        <time>2010-07-27T15:18:05</time>
      </trkpt>
      <trkpt lat="48.49244" lon="-2.04082">
        <ele>135</ele>
        <time>2010-07-27T15:18:08</time>
      </trkpt>
      <trkpt lat="48.49254" lon="-2.04108">
        <ele>135.5</ele>
        <time>2010-07-27T15:18:11</time>
      </trkpt>
      <trkpt lat="48.49263" lon="-2.04135">
        <ele>133.5</ele>
        <time>2010-07-27T15:18:14</time>
      </trkpt>
      <trkpt lat="48.4927" lon="-2.04153">
        <ele>131.5</ele>
        <time>2010-07-27T15:18:17</time>
      </trkpt>
      <trkpt lat="48.49275" lon="-2.04161">
        <ele>131.5</ele>
        <time>2010-07-27T15:18:20</time>
      </trkpt>
      <trkpt lat="48.49279" lon="-2.04171">
        <ele>131</ele>
        <time>2010-07-27T15:18:23</time>
      </trkpt>
      <trkpt lat="48.49286" lon="-2.04187">
        <ele>130</ele>
        <time>2010-07-27T15:18:26</time>
      </trkpt>
      <trkpt lat="48.49293" lon="-2.04206">
        <ele>128.5</ele>
        <time>2010-07-27T15:18:29</time>
      </trkpt>
      <trkpt lat="48.493" lon="-2.04225">
        <ele>128</ele>
        <time>2010-07-27T15:18:32</time>
      </trkpt>
      <trkpt lat="48.49308" lon="-2.04246">
        <ele>127.5</ele>
        <time>2010-07-27T15:18:35</time>
      </trkpt>
      <trkpt lat="48.49315" lon="-2.04268">
        <ele>127.5</ele>
        <time>2010-07-27T15:18:38</time>
      </trkpt>
      <trkpt lat="48.49323" lon="-2.04291">
        <ele>128</ele>
        <time>2010-07-27T15:18:41</time>
      </trkpt>
      <trkpt lat="48.49332" lon="-2.04313">
        <ele>128.5</ele>
        <time>2010-07-27T15:18:44</time>
      </trkpt>
      <trkpt lat="48.4934" lon="-2.04335">
        <ele>129</ele>
        <time>2010-07-27T15:18:47</time>
      </trkpt>
      <trkpt lat="48.49349" lon="-2.04357">
        <ele>129.5</ele>
        <time>2010-07-27T15:18:50</time>
      </trkpt>
      <trkpt lat="48.49358" lon="-2.0438">
        <ele>130</ele>
        <time>2010-07-27T15:18:53</time>
      </trkpt>
      <trkpt lat="48.49368" lon="-2.04402">
        <ele>130.5</ele>
        <time>2010-07-27T15:18:56</time>
      </trkpt>
      <trkpt lat="48.49377" lon="-2.04424">
        <ele>130</ele>
        <time>2010-07-27T15:18:59</time>
      </trkpt>
      <trkpt lat="48.49388" lon="-2.04446">
        <ele>131</ele>
        <time>2010-07-27T15:19:02</time>
      </trkpt>
      <trkpt lat="48.49398" lon="-2.04467">
        <ele>132.5</ele>
        <time>2010-07-27T15:19:06</time>
      </trkpt>
      <trkpt lat="48.49407" lon="-2.04488">
        <ele>133.5</ele>
        <time>2010-07-27T15:19:09</time>
      </trkpt>
      <trkpt lat="48.4942" lon="-2.04506">
        <ele>136</ele>
        <time>2010-07-27T15:19:12</time>
      </trkpt>
      <trkpt lat="48.49433" lon="-2.04524">
        <ele>137</ele>
        <time>2010-07-27T15:19:14</time>
      </trkpt>
      <trkpt lat="48.49447" lon="-2.04543">
        <ele>138.5</ele>
        <time>2010-07-27T15:19:18</time>
      </trkpt>
      <trkpt lat="48.4946" lon="-2.04561">
        <ele>139</ele>
        <time>2010-07-27T15:19:20</time>
      </trkpt>
      <trkpt lat="48.49474" lon="-2.04579">
        <ele>141.5</ele>
        <time>2010-07-27T15:19:24</time>
      </trkpt>
      <trkpt lat="48.49503" lon="-2.04609">
        <ele>143.5</ele>
        <time>2010-07-27T15:19:30</time>
      </trkpt>
      <trkpt lat="48.49518" lon="-2.04624">
        <ele>144</ele>
        <time>2010-07-27T15:19:33</time>
      </trkpt>
      <trkpt lat="48.49533" lon="-2.04638">
        <ele>144</ele>
        <time>2010-07-27T15:19:36</time>
      </trkpt>
      <trkpt lat="48.49548" lon="-2.04651">
        <ele>143.5</ele>
        <time>2010-07-27T15:19:39</time>
      </trkpt>
      <trkpt lat="48.49563" lon="-2.04663">
        <ele>143.5</ele>
        <time>2010-07-27T15:19:42</time>
      </trkpt>
      <trkpt lat="48.49593" lon="-2.04686">
        <ele>141</ele>
        <time>2010-07-27T15:19:48</time>
      </trkpt>
      <trkpt lat="48.49609" lon="-2.04696">
        <ele>140</ele>
        <time>2010-07-27T15:19:51</time>
      </trkpt>
      <trkpt lat="48.49626" lon="-2.04706">
        <ele>139.5</ele>
        <time>2010-07-27T15:19:54</time>
      </trkpt>
      <trkpt lat="48.49642" lon="-2.04714">
        <ele>139.5</ele>
        <time>2010-07-27T15:19:57</time>
      </trkpt>
      <trkpt lat="48.49658" lon="-2.04721">
        <ele>139</ele>
        <time>2010-07-27T15:20:00</time>
      </trkpt>
      <trkpt lat="48.49673" lon="-2.04728">
        <ele>139.5</ele>
        <time>2010-07-27T15:20:03</time>
      </trkpt>
      <trkpt lat="48.49689" lon="-2.04735">
        <ele>140</ele>
        <time>2010-07-27T15:20:06</time>
      </trkpt>
      <trkpt lat="48.49705" lon="-2.0474">
        <ele>140</ele>
        <time>2010-07-27T15:20:09</time>
      </trkpt>
      <trkpt lat="48.49719" lon="-2.04743">
        <ele>140.5</ele>
        <time>2010-07-27T15:20:12</time>
      </trkpt>
      <trkpt lat="48.49734" lon="-2.04748">
        <ele>142</ele>
        <time>2010-07-27T15:20:15</time>
      </trkpt>
      <trkpt lat="48.49748" lon="-2.04749">
        <ele>141.5</ele>
        <time>2010-07-27T15:20:18</time>
      </trkpt>
      <trkpt lat="48.49761" lon="-2.04751">
        <ele>139.5</ele>
        <time>2010-07-27T15:20:21</time>
      </trkpt>
      <trkpt lat="48.49776" lon="-2.04753">
        <ele>139</ele>
        <time>2010-07-27T15:20:24</time>
      </trkpt>
      <trkpt lat="48.4979" lon="-2.04752">
        <ele>139</ele>
        <time>2010-07-27T15:20:27</time>
      </trkpt>
      <trkpt lat="48.49803" lon="-2.04749">
        <ele>138.5</ele>
        <time>2010-07-27T15:20:30</time>
      </trkpt>
      <trkpt lat="48.49817" lon="-2.04745">
        <ele>135.5</ele>
        <time>2010-07-27T15:20:33</time>
      </trkpt>
      <trkpt lat="48.49829" lon="-2.0474">
        <ele>133.5</ele>
        <time>2010-07-27T15:20:36</time>
      </trkpt>
      <trkpt lat="48.49841" lon="-2.04736">
        <ele>133</ele>
        <time>2010-07-27T15:20:39</time>
      </trkpt>
      <trkpt lat="48.49853" lon="-2.04731">
        <ele>132</ele>
        <time>2010-07-27T15:20:42</time>
      </trkpt>
      <trkpt lat="48.49866" lon="-2.04725">
        <ele>131</ele>
        <time>2010-07-27T15:20:45</time>
      </trkpt>
      <trkpt lat="48.49878" lon="-2.04719">
        <ele>130</ele>
        <time>2010-07-27T15:20:48</time>
      </trkpt>
      <trkpt lat="48.49891" lon="-2.04714">
        <ele>130</ele>
        <time>2010-07-27T15:20:51</time>
      </trkpt>
      <trkpt lat="48.49904" lon="-2.04708">
        <ele>129</ele>
        <time>2010-07-27T15:20:54</time>
      </trkpt>
      <trkpt lat="48.49917" lon="-2.047">
        <ele>129</ele>
        <time>2010-07-27T15:20:57</time>
      </trkpt>
      <trkpt lat="48.49929" lon="-2.04693">
        <ele>129.5</ele>
        <time>2010-07-27T15:21:00</time>
      </trkpt>
      <trkpt lat="48.49941" lon="-2.04684">
        <ele>129</ele>
        <time>2010-07-27T15:21:03</time>
      </trkpt>
      <trkpt lat="48.49954" lon="-2.04676">
        <ele>129</ele>
        <time>2010-07-27T15:21:06</time>
      </trkpt>
      <trkpt lat="48.49966" lon="-2.04667">
        <ele>128</ele>
        <time>2010-07-27T15:21:09</time>
      </trkpt>
      <trkpt lat="48.49978" lon="-2.04657">
        <ele>127.5</ele>
        <time>2010-07-27T15:21:12</time>
      </trkpt>
      <trkpt lat="48.4999" lon="-2.04648">
        <ele>126.5</ele>
        <time>2010-07-27T15:21:15</time>
      </trkpt>
      <trkpt lat="48.50003" lon="-2.04639">
        <ele>126.5</ele>
        <time>2010-07-27T15:21:18</time>
      </trkpt>
      <trkpt lat="48.50016" lon="-2.04631">
        <ele>126</ele>
        <time>2010-07-27T15:21:21</time>
      </trkpt>
      <trkpt lat="48.50029" lon="-2.04623">
        <ele>125.5</ele>
        <time>2010-07-27T15:21:24</time>
      </trkpt>
      <trkpt lat="48.50043" lon="-2.04615">
        <ele>125</ele>
        <time>2010-07-27T15:21:27</time>
      </trkpt>
      <trkpt lat="48.50055" lon="-2.04606">
        <ele>124.5</ele>
        <time>2010-07-27T15:21:30</time>
      </trkpt>
      <trkpt lat="48.50068" lon="-2.04598">
        <ele>124</ele>
        <time>2010-07-27T15:21:33</time>
      </trkpt>
      <trkpt lat="48.5008" lon="-2.0459">
        <ele>123.5</ele>
        <time>2010-07-27T15:21:36</time>
      </trkpt>
      <trkpt lat="48.50093" lon="-2.04581">
        <ele>123</ele>
        <time>2010-07-27T15:21:39</time>
      </trkpt>
      <trkpt lat="48.50105" lon="-2.04573">
        <ele>123</ele>
        <time>2010-07-27T15:21:42</time>
      </trkpt>
      <trkpt lat="48.50118" lon="-2.04565">
        <ele>122.5</ele>
        <time>2010-07-27T15:21:45</time>
      </trkpt>
      <trkpt lat="48.50129" lon="-2.04557">
        <ele>122</ele>
        <time>2010-07-27T15:21:48</time>
      </trkpt>
      <trkpt lat="48.50141" lon="-2.04548">
        <ele>122</ele>
        <time>2010-07-27T15:21:51</time>
      </trkpt>
      <trkpt lat="48.50153" lon="-2.04539">
        <ele>121.5</ele>
        <time>2010-07-27T15:21:54</time>
      </trkpt>
      <trkpt lat="48.50165" lon="-2.04531">
        <ele>121</ele>
        <time>2010-07-27T15:21:57</time>
      </trkpt>
      <trkpt lat="48.50178" lon="-2.04523">
        <ele>121</ele>
        <time>2010-07-27T15:22:00</time>
      </trkpt>
      <trkpt lat="48.50192" lon="-2.04515">
        <ele>121.5</ele>
        <time>2010-07-27T15:22:03</time>
      </trkpt>
      <trkpt lat="48.50204" lon="-2.04508">
        <ele>121</ele>
        <time>2010-07-27T15:22:06</time>
      </trkpt>
      <trkpt lat="48.50217" lon="-2.045">
        <ele>121</ele>
        <time>2010-07-27T15:22:09</time>
      </trkpt>
      <trkpt lat="48.50229" lon="-2.04492">
        <ele>121.5</ele>
        <time>2010-07-27T15:22:12</time>
      </trkpt>
      <trkpt lat="48.50252" lon="-2.04478">
        <ele>123.5</ele>
        <time>2010-07-27T15:22:18</time>
      </trkpt>
      <trkpt lat="48.50263" lon="-2.04471">
        <ele>125</ele>
        <time>2010-07-27T15:22:21</time>
      </trkpt>
      <trkpt lat="48.50271" lon="-2.04463">
        <ele>126.5</ele>
        <time>2010-07-27T15:22:24</time>
      </trkpt>
      <trkpt lat="48.50283" lon="-2.04458">
        <ele>129.5</ele>
        <time>2010-07-27T15:22:27</time>
      </trkpt>
      <trkpt lat="48.50294" lon="-2.0445">
        <ele>131.5</ele>
        <time>2010-07-27T15:22:30</time>
      </trkpt>
      <trkpt lat="48.50304" lon="-2.04445">
        <ele>133.5</ele>
        <time>2010-07-27T15:22:33</time>
      </trkpt>
      <trkpt lat="48.50316" lon="-2.04441">
        <ele>135.5</ele>
        <time>2010-07-27T15:22:36</time>
      </trkpt>
      <trkpt lat="48.50328" lon="-2.04436">
        <ele>137.5</ele>
        <time>2010-07-27T15:22:39</time>
      </trkpt>
      <trkpt lat="48.50341" lon="-2.04433">
        <ele>140.5</ele>
        <time>2010-07-27T15:22:42</time>
      </trkpt>
      <trkpt lat="48.50354" lon="-2.04428">
        <ele>142</ele>
        <time>2010-07-27T15:22:45</time>
      </trkpt>
      <trkpt lat="48.50367" lon="-2.04425">
        <ele>145</ele>
        <time>2010-07-27T15:22:48</time>
      </trkpt>
      <trkpt lat="48.50381" lon="-2.04422">
        <ele>146.5</ele>
        <time>2010-07-27T15:22:51</time>
      </trkpt>
      <trkpt lat="48.50394" lon="-2.04417">
        <ele>148.5</ele>
        <time>2010-07-27T15:22:54</time>
      </trkpt>
      <trkpt lat="48.50409" lon="-2.04411">
        <ele>146.5</ele>
        <time>2010-07-27T15:22:57</time>
      </trkpt>
      <trkpt lat="48.50424" lon="-2.04404">
        <ele>143</ele>
        <time>2010-07-27T15:23:00</time>
      </trkpt>
      <trkpt lat="48.50437" lon="-2.044">
        <ele>141</ele>
        <time>2010-07-27T15:23:03</time>
      </trkpt>
      <trkpt lat="48.50448" lon="-2.04398">
        <ele>140.5</ele>
        <time>2010-07-27T15:23:06</time>
      </trkpt>
      <trkpt lat="48.50462" lon="-2.04393">
        <ele>139</ele>
        <time>2010-07-27T15:23:09</time>
      </trkpt>
      <trkpt lat="48.50476" lon="-2.04389">
        <ele>138</ele>
        <time>2010-07-27T15:23:12</time>
      </trkpt>
      <trkpt lat="48.50492" lon="-2.04385">
        <ele>137</ele>
        <time>2010-07-27T15:23:15</time>
      </trkpt>
      <trkpt lat="48.50507" lon="-2.04382">
        <ele>136.5</ele>
        <time>2010-07-27T15:23:18</time>
      </trkpt>
      <trkpt lat="48.50523" lon="-2.0438">
        <ele>135.5</ele>
        <time>2010-07-27T15:23:21</time>
      </trkpt>
      <trkpt lat="48.50539" lon="-2.04377">
        <ele>134.5</ele>
        <time>2010-07-27T15:23:24</time>
      </trkpt>
      <trkpt lat="48.50555" lon="-2.04376">
        <ele>133.5</ele>
        <time>2010-07-27T15:23:27</time>
      </trkpt>
      <trkpt lat="48.50571" lon="-2.04373">
        <ele>133.5</ele>
        <time>2010-07-27T15:23:30</time>
      </trkpt>
      <trkpt lat="48.50588" lon="-2.04371">
        <ele>133</ele>
        <time>2010-07-27T15:23:33</time>
      </trkpt>
      <trkpt lat="48.50606" lon="-2.04369">
        <ele>132.5</ele>
        <time>2010-07-27T15:23:36</time>
      </trkpt>
      <trkpt lat="48.50624" lon="-2.04368">
        <ele>131.5</ele>
        <time>2010-07-27T15:23:39</time>
      </trkpt>
      <trkpt lat="48.5064" lon="-2.04366">
        <ele>131</ele>
        <time>2010-07-27T15:23:42</time>
      </trkpt>
      <trkpt lat="48.50658" lon="-2.04366">
        <ele>130.5</ele>
        <time>2010-07-27T15:23:45</time>
      </trkpt>
      <trkpt lat="48.50676" lon="-2.04364">
        <ele>130</ele>
        <time>2010-07-27T15:23:48</time>
      </trkpt>
      <trkpt lat="48.50697" lon="-2.04368">
        <ele>130.5</ele>
        <time>2010-07-27T15:23:51</time>
      </trkpt>
      <trkpt lat="48.50718" lon="-2.0437">
        <ele>130</ele>
        <time>2010-07-27T15:23:54</time>
      </trkpt>
      <trkpt lat="48.50741" lon="-2.04375">
        <ele>129.5</ele>
        <time>2010-07-27T15:23:57</time>
      </trkpt>
      <trkpt lat="48.50762" lon="-2.04378">
        <ele>129</ele>
        <time>2010-07-27T15:24:00</time>
      </trkpt>
      <trkpt lat="48.50784" lon="-2.04382">
        <ele>128.5</ele>
        <time>2010-07-27T15:24:03</time>
      </trkpt>
      <trkpt lat="48.50806" lon="-2.04386">
        <ele>128</ele>
        <time>2010-07-27T15:24:06</time>
      </trkpt>
      <trkpt lat="48.50827" lon="-2.04388">
        <ele>128</ele>
        <time>2010-07-27T15:24:09</time>
      </trkpt>
      <trkpt lat="48.50848" lon="-2.04391">
        <ele>127.5</ele>
        <time>2010-07-27T15:24:12</time>
      </trkpt>
      <trkpt lat="48.5087" lon="-2.04395">
        <ele>127.5</ele>
        <time>2010-07-27T15:24:15</time>
      </trkpt>
      <trkpt lat="48.50892" lon="-2.04398">
        <ele>128</ele>
        <time>2010-07-27T15:24:18</time>
      </trkpt>
      <trkpt lat="48.50915" lon="-2.04402">
        <ele>127.5</ele>
        <time>2010-07-27T15:24:21</time>
      </trkpt>
      <trkpt lat="48.50936" lon="-2.04406">
        <ele>127.5</ele>
        <time>2010-07-27T15:24:24</time>
      </trkpt>
      <trkpt lat="48.50957" lon="-2.04409">
        <ele>127.5</ele>
        <time>2010-07-27T15:24:27</time>
      </trkpt>
      <trkpt lat="48.50977" lon="-2.04413">
        <ele>127.5</ele>
        <time>2010-07-27T15:24:30</time>
      </trkpt>
      <trkpt lat="48.50997" lon="-2.04416">
        <ele>127</ele>
        <time>2010-07-27T15:24:33</time>
      </trkpt>
      <trkpt lat="48.51016" lon="-2.04419">
        <ele>126.5</ele>
        <time>2010-07-27T15:24:36</time>
      </trkpt>
      <trkpt lat="48.51035" lon="-2.04422">
        <ele>126.5</ele>
        <time>2010-07-27T15:24:39</time>
      </trkpt>
      <trkpt lat="48.51053" lon="-2.04425">
        <ele>126</ele>
        <time>2010-07-27T15:24:42</time>
      </trkpt>
      <trkpt lat="48.5107" lon="-2.04427">
        <ele>126</ele>
        <time>2010-07-27T15:24:45</time>
      </trkpt>
      <trkpt lat="48.51088" lon="-2.04431">
        <ele>125.5</ele>
        <time>2010-07-27T15:24:48</time>
      </trkpt>
      <trkpt lat="48.51105" lon="-2.04434">
        <ele>126</ele>
        <time>2010-07-27T15:24:51</time>
      </trkpt>
      <trkpt lat="48.51122" lon="-2.04436">
        <ele>126</ele>
        <time>2010-07-27T15:24:54</time>
      </trkpt>
      <trkpt lat="48.5114" lon="-2.04439">
        <ele>126</ele>
        <time>2010-07-27T15:24:57</time>
      </trkpt>
      <trkpt lat="48.51162" lon="-2.04442">
        <ele>125.5</ele>
        <time>2010-07-27T15:25:01</time>
      </trkpt>
      <trkpt lat="48.51188" lon="-2.04446">
        <ele>125</ele>
        <time>2010-07-27T15:25:06</time>
      </trkpt>
      <trkpt lat="48.5121" lon="-2.0445">
        <ele>124.5</ele>
        <time>2010-07-27T15:25:09</time>
      </trkpt>
      <trkpt lat="48.51225" lon="-2.04452">
        <ele>124.5</ele>
        <time>2010-07-27T15:25:13</time>
      </trkpt>
      <trkpt lat="48.51257" lon="-2.04457">
        <ele>125</ele>
        <time>2010-07-27T15:25:18</time>
      </trkpt>
      <trkpt lat="48.51273" lon="-2.0446">
        <ele>125</ele>
        <time>2010-07-27T15:25:22</time>
      </trkpt>
      <trkpt lat="48.51289" lon="-2.04462">
        <ele>125</ele>
        <time>2010-07-27T15:25:25</time>
      </trkpt>
      <trkpt lat="48.5132" lon="-2.04467">
        <ele>125.5</ele>
        <time>2010-07-27T15:25:31</time>
      </trkpt>
      <trkpt lat="48.51335" lon="-2.04469">
        <ele>125.5</ele>
        <time>2010-07-27T15:25:34</time>
      </trkpt>
      <trkpt lat="48.51349" lon="-2.04471">
        <ele>126</ele>
        <time>2010-07-27T15:25:37</time>
      </trkpt>
      <trkpt lat="48.51363" lon="-2.04474">
        <ele>126</ele>
        <time>2010-07-27T15:25:40</time>
      </trkpt>
      <trkpt lat="48.51376" lon="-2.04476">
        <ele>126.5</ele>
        <time>2010-07-27T15:25:43</time>
      </trkpt>
      <trkpt lat="48.51389" lon="-2.04477">
        <ele>126</ele>
        <time>2010-07-27T15:25:46</time>
      </trkpt>
      <trkpt lat="48.51401" lon="-2.04479">
        <ele>126</ele>
        <time>2010-07-27T15:25:49</time>
      </trkpt>
      <trkpt lat="48.51412" lon="-2.0448">
        <ele>126.5</ele>
        <time>2010-07-27T15:25:52</time>
      </trkpt>
      <trkpt lat="48.51423" lon="-2.04482">
        <ele>127</ele>
        <time>2010-07-27T15:25:55</time>
      </trkpt>
      <trkpt lat="48.51435" lon="-2.04484">
        <ele>127</ele>
        <time>2010-07-27T15:25:58</time>
      </trkpt>
      <trkpt lat="48.51447" lon="-2.04487">
        <ele>127</ele>
        <time>2010-07-27T15:26:01</time>
      </trkpt>
      <trkpt lat="48.5146" lon="-2.04488">
        <ele>127</ele>
        <time>2010-07-27T15:26:04</time>
      </trkpt>
      <trkpt lat="48.51473" lon="-2.0449">
        <ele>126.5</ele>
        <time>2010-07-27T15:26:07</time>
      </trkpt>
      <trkpt lat="48.51486" lon="-2.04492">
        <ele>126.5</ele>
        <time>2010-07-27T15:26:10</time>
      </trkpt>
      <trkpt lat="48.51499" lon="-2.04494">
        <ele>126.5</ele>
        <time>2010-07-27T15:26:13</time>
      </trkpt>
      <trkpt lat="48.51512" lon="-2.04496">
        <ele>126.5</ele>
        <time>2010-07-27T15:26:16</time>
      </trkpt>
      <trkpt lat="48.51525" lon="-2.04498">
        <ele>127</ele>
        <time>2010-07-27T15:26:19</time>
      </trkpt>
      <trkpt lat="48.51538" lon="-2.045">
        <ele>127</ele>
        <time>2010-07-27T15:26:22</time>
      </trkpt>
      <trkpt lat="48.51551" lon="-2.04502">
        <ele>127</ele>
        <time>2010-07-27T15:26:25</time>
      </trkpt>
      <trkpt lat="48.51564" lon="-2.04505">
        <ele>127</ele>
        <time>2010-07-27T15:26:28</time>
      </trkpt>
      <trkpt lat="48.51578" lon="-2.04507">
        <ele>128</ele>
        <time>2010-07-27T15:26:31</time>
      </trkpt>
      <trkpt lat="48.51591" lon="-2.0451">
        <ele>129</ele>
        <time>2010-07-27T15:26:34</time>
      </trkpt>
      <trkpt lat="48.51605" lon="-2.04511">
        <ele>129</ele>
        <time>2010-07-27T15:26:37</time>
      </trkpt>
      <trkpt lat="48.51618" lon="-2.04513">
        <ele>129</ele>
        <time>2010-07-27T15:26:40</time>
      </trkpt>
      <trkpt lat="48.51631" lon="-2.04514">
        <ele>129</ele>
        <time>2010-07-27T15:26:43</time>
      </trkpt>
      <trkpt lat="48.51644" lon="-2.04517">
        <ele>129</ele>
        <time>2010-07-27T15:26:46</time>
      </trkpt>
      <trkpt lat="48.51658" lon="-2.04519">
        <ele>129.5</ele>
        <time>2010-07-27T15:26:49</time>
      </trkpt>
      <trkpt lat="48.51672" lon="-2.04521">
        <ele>130</ele>
        <time>2010-07-27T15:26:52</time>
      </trkpt>
      <trkpt lat="48.51685" lon="-2.04523">
        <ele>130</ele>
        <time>2010-07-27T15:26:55</time>
      </trkpt>
      <trkpt lat="48.51699" lon="-2.04527">
        <ele>132.5</ele>
        <time>2010-07-27T15:26:58</time>
      </trkpt>
      <trkpt lat="48.51707" lon="-2.04529">
        <ele>134</ele>
        <time>2010-07-27T15:27:01</time>
      </trkpt>
      <trkpt lat="48.51725" lon="-2.04533">
        <ele>136</ele>
        <time>2010-07-27T15:27:04</time>
      </trkpt>
      <trkpt lat="48.51738" lon="-2.04534">
        <ele>136.5</ele>
        <time>2010-07-27T15:27:07</time>
      </trkpt>
      <trkpt lat="48.51751" lon="-2.04536">
        <ele>137</ele>
        <time>2010-07-27T15:27:10</time>
      </trkpt>
      <trkpt lat="48.51764" lon="-2.04537">
        <ele>137.5</ele>
        <time>2010-07-27T15:27:13</time>
      </trkpt>
      <trkpt lat="48.51777" lon="-2.04539">
        <ele>137.5</ele>
        <time>2010-07-27T15:27:16</time>
      </trkpt>
      <trkpt lat="48.5179" lon="-2.04541">
        <ele>138</ele>
        <time>2010-07-27T15:27:19</time>
      </trkpt>
      <trkpt lat="48.51804" lon="-2.04542">
        <ele>137.5</ele>
        <time>2010-07-27T15:27:22</time>
      </trkpt>
      <trkpt lat="48.51816" lon="-2.04544">
        <ele>137.5</ele>
        <time>2010-07-27T15:27:25</time>
      </trkpt>
      <trkpt lat="48.51829" lon="-2.04545">
        <ele>136.5</ele>
        <time>2010-07-27T15:27:28</time>
      </trkpt>
      <trkpt lat="48.51841" lon="-2.04546">
        <ele>136.5</ele>
        <time>2010-07-27T15:27:31</time>
      </trkpt>
      <trkpt lat="48.51853" lon="-2.04547">
        <ele>136</ele>
        <time>2010-07-27T15:27:34</time>
      </trkpt>
      <trkpt lat="48.51865" lon="-2.04549">
        <ele>136</ele>
        <time>2010-07-27T15:27:37</time>
      </trkpt>
      <trkpt lat="48.51877" lon="-2.0455">
        <ele>136</ele>
        <time>2010-07-27T15:27:40</time>
      </trkpt>
      <trkpt lat="48.51889" lon="-2.04551">
        <ele>135.5</ele>
        <time>2010-07-27T15:27:43</time>
      </trkpt>
      <trkpt lat="48.51902" lon="-2.04553">
        <ele>135.5</ele>
        <time>2010-07-27T15:27:46</time>
      </trkpt>
      <trkpt lat="48.51915" lon="-2.04554">
        <ele>136</ele>
        <time>2010-07-27T15:27:49</time>
      </trkpt>
      <trkpt lat="48.51927" lon="-2.04556">
        <ele>136.5</ele>
        <time>2010-07-27T15:27:52</time>
      </trkpt>
      <trkpt lat="48.5194" lon="-2.04558">
        <ele>137</ele>
        <time>2010-07-27T15:27:55</time>
      </trkpt>
      <trkpt lat="48.51958" lon="-2.04561">
        <ele>136.5</ele>
        <time>2010-07-27T15:27:58</time>
      </trkpt>
      <trkpt lat="48.51972" lon="-2.04563">
        <ele>136.5</ele>
        <time>2010-07-27T15:28:01</time>
      </trkpt>
      <trkpt lat="48.51984" lon="-2.04564">
        <ele>137.5</ele>
        <time>2010-07-27T15:28:04</time>
      </trkpt>
      <trkpt lat="48.51997" lon="-2.04566">
        <ele>137.5</ele>
        <time>2010-07-27T15:28:07</time>
      </trkpt>
      <trkpt lat="48.52022" lon="-2.0457">
        <ele>138</ele>
        <time>2010-07-27T15:28:13</time>
      </trkpt>
      <trkpt lat="48.52034" lon="-2.04571">
        <ele>138</ele>
        <time>2010-07-27T15:28:16</time>
      </trkpt>
      <trkpt lat="48.52043" lon="-2.04571">
        <ele>138</ele>
        <time>2010-07-27T15:28:19</time>
      </trkpt>
      <trkpt lat="48.52056" lon="-2.04573">
        <ele>138.5</ele>
        <time>2010-07-27T15:28:22</time>
      </trkpt>
      <trkpt lat="48.52068" lon="-2.04575">
        <ele>138.5</ele>
        <time>2010-07-27T15:28:25</time>
      </trkpt>
      <trkpt lat="48.52085" lon="-2.04577">
        <ele>138.5</ele>
        <time>2010-07-27T15:28:28</time>
      </trkpt>
      <trkpt lat="48.52094" lon="-2.04578">
        <ele>138.5</ele>
        <time>2010-07-27T15:28:31</time>
      </trkpt>
      <trkpt lat="48.52112" lon="-2.04581">
        <ele>139</ele>
        <time>2010-07-27T15:28:34</time>
      </trkpt>
      <trkpt lat="48.5212" lon="-2.04582">
        <ele>139.5</ele>
        <time>2010-07-27T15:28:37</time>
      </trkpt>
      <trkpt lat="48.52138" lon="-2.04584">
        <ele>140</ele>
        <time>2010-07-27T15:28:40</time>
      </trkpt>
      <trkpt lat="48.52151" lon="-2.04585">
        <ele>140.5</ele>
        <time>2010-07-27T15:28:43</time>
      </trkpt>
      <trkpt lat="48.52164" lon="-2.04587">
        <ele>140.5</ele>
        <time>2010-07-27T15:28:46</time>
      </trkpt>
      <trkpt lat="48.52172" lon="-2.04588">
        <ele>140.5</ele>
        <time>2010-07-27T15:28:49</time>
      </trkpt>
      <trkpt lat="48.5219" lon="-2.04591">
        <ele>140.5</ele>
        <time>2010-07-27T15:28:52</time>
      </trkpt>
      <trkpt lat="48.52199" lon="-2.04592">
        <ele>140.5</ele>
        <time>2010-07-27T15:28:55</time>
      </trkpt>
      <trkpt lat="48.52216" lon="-2.04594">
        <ele>140.5</ele>
        <time>2010-07-27T15:28:58</time>
      </trkpt>
      <trkpt lat="48.52229" lon="-2.04595">
        <ele>140.5</ele>
        <time>2010-07-27T15:29:02</time>
      </trkpt>
      <trkpt lat="48.52243" lon="-2.04597">
        <ele>140.5</ele>
        <time>2010-07-27T15:29:04</time>
      </trkpt>
      <trkpt lat="48.52258" lon="-2.046">
        <ele>140.5</ele>
        <time>2010-07-27T15:29:07</time>
      </trkpt>
      <trkpt lat="48.52271" lon="-2.04602">
        <ele>141</ele>
        <time>2010-07-27T15:29:10</time>
      </trkpt>
      <trkpt lat="48.52282" lon="-2.04605">
        <ele>141</ele>
        <time>2010-07-27T15:29:13</time>
      </trkpt>
      <trkpt lat="48.52292" lon="-2.04609">
        <ele>141</ele>
        <time>2010-07-27T15:29:16</time>
      </trkpt>
      <trkpt lat="48.523" lon="-2.04606">
        <ele>141.5</ele>
        <time>2010-07-27T15:29:20</time>
      </trkpt>
      <trkpt lat="48.52306" lon="-2.04605">
        <ele>140.5</ele>
        <time>2010-07-27T15:29:22</time>
      </trkpt>
      <trkpt lat="48.52309" lon="-2.04605">
        <ele>140</ele>
        <time>2010-07-27T15:29:25</time>
      </trkpt>
      <trkpt lat="48.52315" lon="-2.04603">
        <ele>139.5</ele>
        <time>2010-07-27T15:29:28</time>
      </trkpt>
      <trkpt lat="48.52324" lon="-2.04605">
        <ele>139</ele>
        <time>2010-07-27T15:29:31</time>
      </trkpt>
      <trkpt lat="48.52335" lon="-2.04609">
        <ele>137</ele>
        <time>2010-07-27T15:29:34</time>
      </trkpt>
      <trkpt lat="48.52347" lon="-2.04613">
        <ele>137</ele>
        <time>2010-07-27T15:29:37</time>
      </trkpt>
      <trkpt lat="48.52359" lon="-2.04614">
        <ele>137</ele>
        <time>2010-07-27T15:29:40</time>
      </trkpt>
      <trkpt lat="48.52371" lon="-2.04616">
        <ele>137</ele>
        <time>2010-07-27T15:29:44</time>
      </trkpt>
      <trkpt lat="48.52384" lon="-2.04618">
        <ele>137.5</ele>
        <time>2010-07-27T15:29:47</time>
      </trkpt>
      <trkpt lat="48.52396" lon="-2.04619">
        <ele>137</ele>
        <time>2010-07-27T15:29:50</time>
      </trkpt>
      <trkpt lat="48.5241" lon="-2.04621">
        <ele>136.5</ele>
        <time>2010-07-27T15:29:53</time>
      </trkpt>
      <trkpt lat="48.52423" lon="-2.04623">
        <ele>136.5</ele>
        <time>2010-07-27T15:29:56</time>
      </trkpt>
      <trkpt lat="48.52436" lon="-2.04626">
        <ele>137</ele>
        <time>2010-07-27T15:29:59</time>
      </trkpt>
      <trkpt lat="48.52449" lon="-2.04628">
        <ele>137.5</ele>
        <time>2010-07-27T15:30:02</time>
      </trkpt>
      <trkpt lat="48.52461" lon="-2.04629">
        <ele>137.5</ele>
        <time>2010-07-27T15:30:05</time>
      </trkpt>
      <trkpt lat="48.52472" lon="-2.04631">
        <ele>138</ele>
        <time>2010-07-27T15:30:08</time>
      </trkpt>
      <trkpt lat="48.52482" lon="-2.04633">
        <ele>139</ele>
        <time>2010-07-27T15:30:11</time>
      </trkpt>
      <trkpt lat="48.52491" lon="-2.04633">
        <ele>140</ele>
        <time>2010-07-27T15:30:14</time>
      </trkpt>
      <trkpt lat="48.52493" lon="-2.04624">
        <ele>140</ele>
        <time>2010-07-27T15:30:17</time>
      </trkpt>
      <trkpt lat="48.52501" lon="-2.04622">
        <ele>140.5</ele>
        <time>2010-07-27T15:30:20</time>
      </trkpt>
      <trkpt lat="48.52512" lon="-2.04617">
        <ele>142</ele>
        <time>2010-07-27T15:30:23</time>
      </trkpt>
      <trkpt lat="48.52523" lon="-2.04608">
        <ele>142</ele>
        <time>2010-07-27T15:30:26</time>
      </trkpt>
      <trkpt lat="48.52532" lon="-2.046">
        <ele>142.5</ele>
        <time>2010-07-27T15:30:29</time>
      </trkpt>
      <trkpt lat="48.52534" lon="-2.04587">
        <ele>142</ele>
        <time>2010-07-27T15:30:32</time>
      </trkpt>
      <trkpt lat="48.52533" lon="-2.04572">
        <ele>141.5</ele>
        <time>2010-07-27T15:30:35</time>
      </trkpt>
      <trkpt lat="48.52531" lon="-2.04555">
        <ele>140.5</ele>
        <time>2010-07-27T15:30:38</time>
      </trkpt>
      <trkpt lat="48.52528" lon="-2.04537">
        <ele>140</ele>
        <time>2010-07-27T15:30:41</time>
      </trkpt>
      <trkpt lat="48.52525" lon="-2.04521">
        <ele>140</ele>
        <time>2010-07-27T15:30:44</time>
      </trkpt>
      <trkpt lat="48.52522" lon="-2.04505">
        <ele>139.5</ele>
        <time>2010-07-27T15:30:47</time>
      </trkpt>
      <trkpt lat="48.5252" lon="-2.04489">
        <ele>139</ele>
        <time>2010-07-27T15:30:49</time>
      </trkpt>
      <trkpt lat="48.52518" lon="-2.04475">
        <ele>138.5</ele>
        <time>2010-07-27T15:30:52</time>
      </trkpt>
      <trkpt lat="48.52517" lon="-2.04461">
        <ele>138.5</ele>
        <time>2010-07-27T15:30:56</time>
      </trkpt>
      <trkpt lat="48.52515" lon="-2.04445">
        <ele>138.5</ele>
        <time>2010-07-27T15:30:59</time>
      </trkpt>
      <trkpt lat="48.52514" lon="-2.0443">
        <ele>138.5</ele>
        <time>2010-07-27T15:31:02</time>
      </trkpt>
      <trkpt lat="48.52513" lon="-2.04416">
        <ele>138</ele>
        <time>2010-07-27T15:31:05</time>
      </trkpt>
      <trkpt lat="48.52511" lon="-2.04402">
        <ele>137.5</ele>
        <time>2010-07-27T15:31:08</time>
      </trkpt>
      <trkpt lat="48.52509" lon="-2.04387">
        <ele>137</ele>
        <time>2010-07-27T15:31:11</time>
      </trkpt>
      <trkpt lat="48.52507" lon="-2.04373">
        <ele>137</ele>
        <time>2010-07-27T15:31:14</time>
      </trkpt>
      <trkpt lat="48.52504" lon="-2.04359">
        <ele>136.5</ele>
        <time>2010-07-27T15:31:17</time>
      </trkpt>
      <trkpt lat="48.52502" lon="-2.04346">
        <ele>137</ele>
        <time>2010-07-27T15:31:20</time>
      </trkpt>
      <trkpt lat="48.52499" lon="-2.04331">
        <ele>137</ele>
        <time>2010-07-27T15:31:23</time>
      </trkpt>
      <trkpt lat="48.52497" lon="-2.04318">
        <ele>137</ele>
        <time>2010-07-27T15:31:26</time>
      </trkpt>
      <trkpt lat="48.52495" lon="-2.04306">
        <ele>137</ele>
        <time>2010-07-27T15:31:29</time>
      </trkpt>
      <trkpt lat="48.52493" lon="-2.04296">
        <ele>137.5</ele>
        <time>2010-07-27T15:31:32</time>
      </trkpt>
      <trkpt lat="48.52491" lon="-2.0429">
        <ele>138.5</ele>
        <time>2010-07-27T15:31:35</time>
      </trkpt>
      <trkpt lat="48.52491" lon="-2.0429">
        <ele>138.5</ele>
        <time>2010-07-27T15:31:38</time>
      </trkpt>
      <trkpt lat="48.5249" lon="-2.04289">
        <ele>139.5</ele>
        <time>2010-07-27T15:31:41</time>
      </trkpt>
      <trkpt lat="48.5249" lon="-2.04285">
        <ele>140.5</ele>
        <time>2010-07-27T15:31:44</time>
      </trkpt>
      <trkpt lat="48.52488" lon="-2.04283">
        <ele>141</ele>
        <time>2010-07-27T15:31:47</time>
      </trkpt>
      <trkpt lat="48.52488" lon="-2.04282">
        <ele>141</ele>
        <time>2010-07-27T15:31:50</time>
      </trkpt>
      <trkpt lat="48.52489" lon="-2.0428">
        <ele>141</ele>
        <time>2010-07-27T15:31:53</time>
      </trkpt>
      <trkpt lat="48.52488" lon="-2.0428">
        <ele>140.5</ele>
        <time>2010-07-27T15:31:56</time>
      </trkpt>
      <trkpt lat="48.52488" lon="-2.04279">
        <ele>140</ele>
        <time>2010-07-27T15:31:59</time>
      </trkpt>
      <trkpt lat="48.52488" lon="-2.04279">
        <ele>139.5</ele>
        <time>2010-07-27T15:32:02</time>
      </trkpt>
      <trkpt lat="48.52489" lon="-2.04279">
        <ele>138.5</ele>
        <time>2010-07-27T15:32:08</time>
      </trkpt>
      <trkpt lat="48.52489" lon="-2.04279">
        <ele>138.5</ele>
        <time>2010-07-27T15:32:11</time>
      </trkpt>
      <trkpt lat="48.52489" lon="-2.04279">
        <ele>138.5</ele>
        <time>2010-07-27T15:32:14</time>
      </trkpt>
      <trkpt lat="48.52489" lon="-2.04279">
        <ele>138.5</ele>
        <time>2010-07-27T15:32:17</time>
      </trkpt>
      <trkpt lat="48.52489" lon="-2.04279">
        <ele>138</ele>
        <time>2010-07-27T15:32:20</time>
      </trkpt>
      <trkpt lat="48.52489" lon="-2.04279">
        <ele>138</ele>
        <time>2010-07-27T15:32:23</time>
      </trkpt>
      <trkpt lat="48.52489" lon="-2.04279">
        <ele>138</ele>
        <time>2010-07-27T15:32:26</time>
      </trkpt>
      <trkpt lat="48.52489" lon="-2.04278">
        <ele>138</ele>
        <time>2010-07-27T15:32:29</time>
      </trkpt>
      <trkpt lat="48.52489" lon="-2.04278">
        <ele>138</ele>
        <time>2010-07-27T15:32:32</time>
      </trkpt>
      <trkpt lat="48.5249" lon="-2.04278">
        <ele>137.5</ele>
        <time>2010-07-27T15:32:35</time>
      </trkpt>
      <trkpt lat="48.5249" lon="-2.04278">
        <ele>137.5</ele>
        <time>2010-07-27T15:32:38</time>
      </trkpt>
      <trkpt lat="48.5249" lon="-2.04278">
        <ele>137.5</ele>
        <time>2010-07-27T15:32:41</time>
      </trkpt>
      <trkpt lat="48.5249" lon="-2.04278">
        <ele>137</ele>
        <time>2010-07-27T15:32:44</time>
      </trkpt>
      <trkpt lat="48.5249" lon="-2.04277">
        <ele>137</ele>
        <time>2010-07-27T15:32:47</time>
      </trkpt>
      <trkpt lat="48.5249" lon="-2.04277">
        <ele>137</ele>
        <time>2010-07-27T15:32:50</time>
      </trkpt>
      <trkpt lat="48.5249" lon="-2.04278">
        <ele>137</ele>
        <time>2010-07-27T15:32:53</time>
      </trkpt>
      <trkpt lat="48.52491" lon="-2.04278">
        <ele>137.5</ele>
        <time>2010-07-27T15:32:56</time>
      </trkpt>
      <trkpt lat="48.52491" lon="-2.04278">
        <ele>138</ele>
        <time>2010-07-27T15:32:59</time>
      </trkpt>
      <trkpt lat="48.52491" lon="-2.04278">
        <ele>138</ele>
        <time>2010-07-27T15:33:02</time>
      </trkpt>
      <trkpt lat="48.52491" lon="-2.04278">
        <ele>138.5</ele>
        <time>2010-07-27T15:33:05</time>
      </trkpt>
      <trkpt lat="48.52491" lon="-2.04277">
        <ele>139</ele>
        <time>2010-07-27T15:33:08</time>
      </trkpt>
      <trkpt lat="48.52491" lon="-2.04275">
        <ele>141.5</ele>
        <time>2010-07-27T15:33:11</time>
      </trkpt>
      <trkpt lat="48.52481" lon="-2.04242">
        <ele>146.5</ele>
        <time>2010-07-27T15:33:14</time>
      </trkpt>
      <trkpt lat="48.52477" lon="-2.04231">
        <ele>147</ele>
        <time>2010-07-27T15:33:17</time>
      </trkpt>
      <trkpt lat="48.52475" lon="-2.04218">
        <ele>148</ele>
        <time>2010-07-27T15:33:20</time>
      </trkpt>
      <trkpt lat="48.52475" lon="-2.04207">
        <ele>150</ele>
        <time>2010-07-27T15:33:23</time>
      </trkpt>
      <trkpt lat="48.52475" lon="-2.04197">
        <ele>151.5</ele>
        <time>2010-07-27T15:33:26</time>
      </trkpt>
      <trkpt lat="48.52476" lon="-2.04188">
        <ele>154.5</ele>
        <time>2010-07-27T15:33:29</time>
      </trkpt>
      <trkpt lat="48.52478" lon="-2.04177">
        <ele>155</ele>
        <time>2010-07-27T15:33:32</time>
      </trkpt>
      <trkpt lat="48.52482" lon="-2.04163">
        <ele>155.5</ele>
        <time>2010-07-27T15:33:35</time>
      </trkpt>
      <trkpt lat="48.52488" lon="-2.04152">
        <ele>156</ele>
        <time>2010-07-27T15:33:38</time>
      </trkpt>
      <trkpt lat="48.52509" lon="-2.04139">
        <ele>151.5</ele>
        <time>2010-07-27T15:33:44</time>
      </trkpt>
      <trkpt lat="48.52521" lon="-2.04132">
        <ele>149.5</ele>
        <time>2010-07-27T15:33:47</time>
      </trkpt>
      <trkpt lat="48.52534" lon="-2.04124">
        <ele>149.5</ele>
        <time>2010-07-27T15:33:50</time>
      </trkpt>
      <trkpt lat="48.52561" lon="-2.0411">
        <ele>148.5</ele>
        <time>2010-07-27T15:33:56</time>
      </trkpt>
      <trkpt lat="48.52575" lon="-2.04101">
        <ele>148.5</ele>
        <time>2010-07-27T15:33:59</time>
      </trkpt>
      <trkpt lat="48.52596" lon="-2.0409">
        <ele>149</ele>
        <time>2010-07-27T15:34:02</time>
      </trkpt>
      <trkpt lat="48.52624" lon="-2.04076">
        <ele>148.5</ele>
        <time>2010-07-27T15:34:07</time>
      </trkpt>
      <trkpt lat="48.5264" lon="-2.04067">
        <ele>148</ele>
        <time>2010-07-27T15:34:10</time>
      </trkpt>
      <trkpt lat="48.52656" lon="-2.04058">
        <ele>148</ele>
        <time>2010-07-27T15:34:14</time>
      </trkpt>
      <trkpt lat="48.52688" lon="-2.04042">
        <ele>146.5</ele>
        <time>2010-07-27T15:34:20</time>
      </trkpt>
      <trkpt lat="48.52704" lon="-2.04034">
        <ele>146.5</ele>
        <time>2010-07-27T15:34:23</time>
      </trkpt>
      <trkpt lat="48.52719" lon="-2.04026">
        <ele>146.5</ele>
        <time>2010-07-27T15:34:26</time>
      </trkpt>
      <trkpt lat="48.5275" lon="-2.04009">
        <ele>145.5</ele>
        <time>2010-07-27T15:34:32</time>
      </trkpt>
      <trkpt lat="48.52765" lon="-2.04002">
        <ele>146</ele>
        <time>2010-07-27T15:34:35</time>
      </trkpt>
      <trkpt lat="48.52779" lon="-2.03993">
        <ele>146</ele>
        <time>2010-07-27T15:34:38</time>
      </trkpt>
      <trkpt lat="48.52969" lon="-2.03897">
        <ele>146.5</ele>
        <time>2010-07-27T15:35:20</time>
      </trkpt>
      <trkpt lat="48.52981" lon="-2.03892">
        <ele>146.5</ele>
        <time>2010-07-27T15:35:23</time>
      </trkpt>
      <trkpt lat="48.52989" lon="-2.03888">
        <ele>146.5</ele>
        <time>2010-07-27T15:35:26</time>
      </trkpt>
      <trkpt lat="48.5302" lon="-2.03874">
        <ele>147.5</ele>
        <time>2010-07-27T15:35:32</time>
      </trkpt>
      <trkpt lat="48.53037" lon="-2.03868">
        <ele>147.5</ele>
        <time>2010-07-27T15:35:35</time>
      </trkpt>
      <trkpt lat="48.53053" lon="-2.03861">
        <ele>146.5</ele>
        <time>2010-07-27T15:35:38</time>
      </trkpt>
      <trkpt lat="48.53069" lon="-2.03854">
        <ele>145.5</ele>
        <time>2010-07-27T15:35:41</time>
      </trkpt>
      <trkpt lat="48.53086" lon="-2.03849">
        <ele>144.5</ele>
        <time>2010-07-27T15:35:44</time>
      </trkpt>
      <trkpt lat="48.53102" lon="-2.03841">
        <ele>145</ele>
        <time>2010-07-27T15:35:47</time>
      </trkpt>
      <trkpt lat="48.53118" lon="-2.03832">
        <ele>144</ele>
        <time>2010-07-27T15:35:50</time>
      </trkpt>
      <trkpt lat="48.53137" lon="-2.03825">
        <ele>144.5</ele>
        <time>2010-07-27T15:35:53</time>
      </trkpt>
      <trkpt lat="48.53154" lon="-2.03815">
        <ele>145</ele>
        <time>2010-07-27T15:35:56</time>
      </trkpt>
      <trkpt lat="48.53168" lon="-2.03805">
        <ele>144.5</ele>
        <time>2010-07-27T15:35:59</time>
      </trkpt>
      <trkpt lat="48.53181" lon="-2.03798">
        <ele>145</ele>
        <time>2010-07-27T15:36:02</time>
      </trkpt>
      <trkpt lat="48.53205" lon="-2.03811">
        <ele>145</ele>
        <time>2010-07-27T15:36:08</time>
      </trkpt>
      <trkpt lat="48.53217" lon="-2.03818">
        <ele>143.5</ele>
        <time>2010-07-27T15:36:11</time>
      </trkpt>
      <trkpt lat="48.5323" lon="-2.03825">
        <ele>142.5</ele>
        <time>2010-07-27T15:36:14</time>
      </trkpt>
      <trkpt lat="48.53241" lon="-2.0383">
        <ele>142.5</ele>
        <time>2010-07-27T15:36:17</time>
      </trkpt>
      <trkpt lat="48.53254" lon="-2.03833">
        <ele>141.5</ele>
        <time>2010-07-27T15:36:20</time>
      </trkpt>
      <trkpt lat="48.53267" lon="-2.03832">
        <ele>141.5</ele>
        <time>2010-07-27T15:36:23</time>
      </trkpt>
      <trkpt lat="48.5328" lon="-2.03831">
        <ele>141</ele>
        <time>2010-07-27T15:36:26</time>
      </trkpt>
      <trkpt lat="48.53294" lon="-2.03828">
        <ele>140</ele>
        <time>2010-07-27T15:36:29</time>
      </trkpt>
      <trkpt lat="48.53308" lon="-2.03828">
        <ele>140</ele>
        <time>2010-07-27T15:36:32</time>
      </trkpt>
      <trkpt lat="48.53321" lon="-2.03827">
        <ele>139.5</ele>
        <time>2010-07-27T15:36:35</time>
      </trkpt>
      <trkpt lat="48.53334" lon="-2.03826">
        <ele>139</ele>
        <time>2010-07-27T15:36:38</time>
      </trkpt>
      <trkpt lat="48.53347" lon="-2.03823">
        <ele>138.5</ele>
        <time>2010-07-27T15:36:41</time>
      </trkpt>
      <trkpt lat="48.53359" lon="-2.03819">
        <ele>140</ele>
        <time>2010-07-27T15:36:44</time>
      </trkpt>
      <trkpt lat="48.53371" lon="-2.03816">
        <ele>141</ele>
        <time>2010-07-27T15:36:47</time>
      </trkpt>
      <trkpt lat="48.53381" lon="-2.03813">
        <ele>141.5</ele>
        <time>2010-07-27T15:36:50</time>
      </trkpt>
      <trkpt lat="48.53389" lon="-2.03814">
        <ele>140.5</ele>
        <time>2010-07-27T15:36:53</time>
      </trkpt>
      <trkpt lat="48.53396" lon="-2.03825">
        <ele>140</ele>
        <time>2010-07-27T15:36:56</time>
      </trkpt>
      <trkpt lat="48.534" lon="-2.03841">
        <ele>139</ele>
        <time>2010-07-27T15:36:59</time>
      </trkpt>
      <trkpt lat="48.53404" lon="-2.03858">
        <ele>139.5</ele>
        <time>2010-07-27T15:37:02</time>
      </trkpt>
      <trkpt lat="48.53408" lon="-2.03877">
        <ele>139.5</ele>
        <time>2010-07-27T15:37:05</time>
      </trkpt>
      <trkpt lat="48.5341" lon="-2.03897">
        <ele>139.5</ele>
        <time>2010-07-27T15:37:08</time>
      </trkpt>
      <trkpt lat="48.53413" lon="-2.03918">
        <ele>139.5</ele>
        <time>2010-07-27T15:37:11</time>
      </trkpt>
      <trkpt lat="48.53415" lon="-2.03947">
        <ele>139</ele>
        <time>2010-07-27T15:37:15</time>
      </trkpt>
      <trkpt lat="48.53417" lon="-2.03982">
        <ele>138.5</ele>
        <time>2010-07-27T15:37:20</time>
      </trkpt>
      <trkpt lat="48.53417" lon="-2.0401">
        <ele>138</ele>
        <time>2010-07-27T15:37:23</time>
      </trkpt>
      <trkpt lat="48.53417" lon="-2.04031">
        <ele>137.5</ele>
        <time>2010-07-27T15:37:27</time>
      </trkpt>
      <trkpt lat="48.53415" lon="-2.04071">
        <ele>136</ele>
        <time>2010-07-27T15:37:32</time>
      </trkpt>
      <trkpt lat="48.53413" lon="-2.04083">
        <ele>135</ele>
        <time>2010-07-27T15:37:36</time>
      </trkpt>
      <trkpt lat="48.53415" lon="-2.04087">
        <ele>134.5</ele>
        <time>2010-07-27T15:37:39</time>
      </trkpt>
      <trkpt lat="48.53421" lon="-2.04089">
        <ele>135</ele>
        <time>2010-07-27T15:37:42</time>
      </trkpt>
      <trkpt lat="48.53429" lon="-2.04088">
        <ele>135</ele>
        <time>2010-07-27T15:37:45</time>
      </trkpt>
      <trkpt lat="48.53441" lon="-2.04085">
        <ele>135</ele>
        <time>2010-07-27T15:37:48</time>
      </trkpt>
      <trkpt lat="48.53453" lon="-2.04081">
        <ele>135.5</ele>
        <time>2010-07-27T15:37:51</time>
      </trkpt>
      <trkpt lat="48.53465" lon="-2.04078">
        <ele>135.5</ele>
        <time>2010-07-27T15:37:54</time>
      </trkpt>
      <trkpt lat="48.53476" lon="-2.04074">
        <ele>135</ele>
        <time>2010-07-27T15:37:57</time>
      </trkpt>
      <trkpt lat="48.53486" lon="-2.04072">
        <ele>135</ele>
        <time>2010-07-27T15:38:00</time>
      </trkpt>
      <trkpt lat="48.53497" lon="-2.04072">
        <ele>135.5</ele>
        <time>2010-07-27T15:38:03</time>
      </trkpt>
      <trkpt lat="48.53508" lon="-2.04072">
        <ele>137.5</ele>
        <time>2010-07-27T15:38:06</time>
      </trkpt>
      <trkpt lat="48.5352" lon="-2.04072">
        <ele>138.5</ele>
        <time>2010-07-27T15:38:09</time>
      </trkpt>
      <trkpt lat="48.53533" lon="-2.04072">
        <ele>139</ele>
        <time>2010-07-27T15:38:12</time>
      </trkpt>
      <trkpt lat="48.53546" lon="-2.04073">
        <ele>140</ele>
        <time>2010-07-27T15:38:15</time>
      </trkpt>
      <trkpt lat="48.53556" lon="-2.04072">
        <ele>141.5</ele>
        <time>2010-07-27T15:38:18</time>
      </trkpt>
      <trkpt lat="48.53568" lon="-2.04072">
        <ele>142.5</ele>
        <time>2010-07-27T15:38:21</time>
      </trkpt>
      <trkpt lat="48.5358" lon="-2.0407">
        <ele>143</ele>
        <time>2010-07-27T15:38:24</time>
      </trkpt>
      <trkpt lat="48.53591" lon="-2.0407">
        <ele>143.5</ele>
        <time>2010-07-27T15:38:27</time>
      </trkpt>
      <trkpt lat="48.53614" lon="-2.04067">
        <ele>146</ele>
        <time>2010-07-27T15:38:33</time>
      </trkpt>
      <trkpt lat="48.53634" lon="-2.04065">
        <ele>147</ele>
        <time>2010-07-27T15:38:38</time>
      </trkpt>
      <trkpt lat="48.53645" lon="-2.04066">
        <ele>149</ele>
        <time>2010-07-27T15:38:41</time>
      </trkpt>
      <trkpt lat="48.53659" lon="-2.04066">
        <ele>151</ele>
        <time>2010-07-27T15:38:45</time>
      </trkpt>
      <trkpt lat="48.53674" lon="-2.04058">
        <ele>155</ele>
        <time>2010-07-27T15:38:50</time>
      </trkpt>
      <trkpt lat="48.53684" lon="-2.04054">
        <ele>155.5</ele>
        <time>2010-07-27T15:38:53</time>
      </trkpt>
      <trkpt lat="48.53698" lon="-2.04051">
        <ele>155</ele>
        <time>2010-07-27T15:38:57</time>
      </trkpt>
      <trkpt lat="48.5371" lon="-2.04046">
        <ele>157</ele>
        <time>2010-07-27T15:39:02</time>
      </trkpt>
      <trkpt lat="48.53715" lon="-2.04045">
        <ele>157.5</ele>
        <time>2010-07-27T15:39:05</time>
      </trkpt>
      <trkpt lat="48.53721" lon="-2.04043">
        <ele>157.5</ele>
        <time>2010-07-27T15:39:09</time>
      </trkpt>
      <trkpt lat="48.53729" lon="-2.04042">
        <ele>157.5</ele>
        <time>2010-07-27T15:39:14</time>
      </trkpt>
      <trkpt lat="48.53731" lon="-2.04043">
        <ele>157.5</ele>
        <time>2010-07-27T15:39:17</time>
      </trkpt>
      <trkpt lat="48.53732" lon="-2.04042">
        <ele>157</ele>
        <time>2010-07-27T15:39:21</time>
      </trkpt>
      <trkpt lat="48.53735" lon="-2.04041">
        <ele>156.5</ele>
        <time>2010-07-27T15:39:26</time>
      </trkpt>
      <trkpt lat="48.53738" lon="-2.04041">
        <ele>156</ele>
        <time>2010-07-27T15:39:29</time>
      </trkpt>
      <trkpt lat="48.53741" lon="-2.04041">
        <ele>155.5</ele>
        <time>2010-07-27T15:39:33</time>
      </trkpt>
      <trkpt lat="48.53744" lon="-2.04041">
        <ele>155</ele>
        <time>2010-07-27T15:39:35</time>
      </trkpt>
      <trkpt lat="48.53747" lon="-2.04042">
        <ele>154.5</ele>
        <time>2010-07-27T15:39:39</time>
      </trkpt>
      <trkpt lat="48.5375" lon="-2.04042">
        <ele>154.5</ele>
        <time>2010-07-27T15:39:41</time>
      </trkpt>
      <trkpt lat="48.53753" lon="-2.04041">
        <ele>154.5</ele>
        <time>2010-07-27T15:39:44</time>
      </trkpt>
      <trkpt lat="48.53754" lon="-2.04041">
        <ele>154</ele>
        <time>2010-07-27T15:39:47</time>
      </trkpt>
      <trkpt lat="48.53756" lon="-2.04041">
        <ele>154</ele>
        <time>2010-07-27T15:39:50</time>
      </trkpt>
      <trkpt lat="48.53761" lon="-2.0404">
        <ele>153.5</ele>
        <time>2010-07-27T15:39:54</time>
      </trkpt>
      <trkpt lat="48.53766" lon="-2.04039">
        <ele>153.5</ele>
        <time>2010-07-27T15:39:57</time>
      </trkpt>
      <trkpt lat="48.53771" lon="-2.04038">
        <ele>153.5</ele>
        <time>2010-07-27T15:40:00</time>
      </trkpt>
      <trkpt lat="48.53776" lon="-2.04037">
        <ele>154.5</ele>
        <time>2010-07-27T15:40:03</time>
      </trkpt>
      <trkpt lat="48.5378" lon="-2.04036">
        <ele>155</ele>
        <time>2010-07-27T15:40:05</time>
      </trkpt>
      <trkpt lat="48.53785" lon="-2.04032">
        <ele>155.5</ele>
        <time>2010-07-27T15:40:09</time>
      </trkpt>
      <trkpt lat="48.53792" lon="-2.04029">
        <ele>157.5</ele>
        <time>2010-07-27T15:40:12</time>
      </trkpt>
      <trkpt lat="48.53796" lon="-2.04027">
        <ele>158</ele>
        <time>2010-07-27T15:40:15</time>
      </trkpt>
      <trkpt lat="48.53802" lon="-2.04026">
        <ele>160</ele>
        <time>2010-07-27T15:40:18</time>
      </trkpt>
      <trkpt lat="48.53807" lon="-2.04023">
        <ele>161</ele>
        <time>2010-07-27T15:40:21</time>
      </trkpt>
      <trkpt lat="48.53821" lon="-2.04022">
        <ele>163</ele>
        <time>2010-07-27T15:40:27</time>
      </trkpt>
      <trkpt lat="48.5383" lon="-2.04022">
        <ele>164</ele>
        <time>2010-07-27T15:40:30</time>
      </trkpt>
      <trkpt lat="48.53837" lon="-2.04022">
        <ele>165.5</ele>
        <time>2010-07-27T15:40:33</time>
      </trkpt>
      <trkpt lat="48.53855" lon="-2.04018">
        <ele>167.5</ele>
        <time>2010-07-27T15:40:39</time>
      </trkpt>
      <trkpt lat="48.53864" lon="-2.04016">
        <ele>169.5</ele>
        <time>2010-07-27T15:40:42</time>
      </trkpt>
      <trkpt lat="48.53871" lon="-2.04015">
        <ele>169.5</ele>
        <time>2010-07-27T15:40:45</time>
      </trkpt>
      <trkpt lat="48.53881" lon="-2.04011">
        <ele>169.5</ele>
        <time>2010-07-27T15:40:48</time>
      </trkpt>
      <trkpt lat="48.5389" lon="-2.04008">
        <ele>170.5</ele>
        <time>2010-07-27T15:40:51</time>
      </trkpt>
      <trkpt lat="48.53896" lon="-2.04005">
        <ele>170.5</ele>
        <time>2010-07-27T15:40:54</time>
      </trkpt>
      <trkpt lat="48.53901" lon="-2.04002">
        <ele>171</ele>
        <time>2010-07-27T15:40:57</time>
      </trkpt>
      <trkpt lat="48.53908" lon="-2.03998">
        <ele>172.5</ele>
        <time>2010-07-27T15:41:00</time>
      </trkpt>
      <trkpt lat="48.53916" lon="-2.03993">
        <ele>174.5</ele>
        <time>2010-07-27T15:41:03</time>
      </trkpt>
      <trkpt lat="48.53936" lon="-2.03986">
        <ele>178</ele>
        <time>2010-07-27T15:41:09</time>
      </trkpt>
      <trkpt lat="48.53947" lon="-2.03982">
        <ele>178.5</ele>
        <time>2010-07-27T15:41:12</time>
      </trkpt>
      <trkpt lat="48.53954" lon="-2.03977">
        <ele>179.5</ele>
        <time>2010-07-27T15:41:15</time>
      </trkpt>
      <trkpt lat="48.53972" lon="-2.0397">
        <ele>178.5</ele>
        <time>2010-07-27T15:41:21</time>
      </trkpt>
      <trkpt lat="48.53984" lon="-2.03969">
        <ele>177</ele>
        <time>2010-07-27T15:41:24</time>
      </trkpt>
      <trkpt lat="48.53993" lon="-2.03965">
        <ele>176</ele>
        <time>2010-07-27T15:41:27</time>
      </trkpt>
      <trkpt lat="48.54002" lon="-2.03958">
        <ele>175.5</ele>
        <time>2010-07-27T15:41:30</time>
      </trkpt>
      <trkpt lat="48.54016" lon="-2.03956">
        <ele>169.5</ele>
        <time>2010-07-27T15:41:33</time>
      </trkpt>
      <trkpt lat="48.54046" lon="-2.03966">
        <ele>149</ele>
        <time>2010-07-27T15:41:39</time>
      </trkpt>
      <trkpt lat="48.54048" lon="-2.0398">
        <ele>145</ele>
        <time>2010-07-27T15:41:42</time>
      </trkpt>
      <trkpt lat="48.54052" lon="-2.03999">
        <ele>142.5</ele>
        <time>2010-07-27T15:41:45</time>
      </trkpt>
      <trkpt lat="48.54056" lon="-2.04023">
        <ele>140.5</ele>
        <time>2010-07-27T15:41:51</time>
      </trkpt>
      <trkpt lat="48.5406" lon="-2.04043">
        <ele>139.5</ele>
        <time>2010-07-27T15:41:54</time>
      </trkpt>
      <trkpt lat="48.54063" lon="-2.04054">
        <ele>140</ele>
        <time>2010-07-27T15:41:57</time>
      </trkpt>
      <trkpt lat="48.54067" lon="-2.04076">
        <ele>140</ele>
        <time>2010-07-27T15:42:00</time>
      </trkpt>
      <trkpt lat="48.54068" lon="-2.04092">
        <ele>140</ele>
        <time>2010-07-27T15:42:03</time>
      </trkpt>
      <trkpt lat="48.54071" lon="-2.04108">
        <ele>140</ele>
        <time>2010-07-27T15:42:06</time>
      </trkpt>
      <trkpt lat="48.54073" lon="-2.04125">
        <ele>139.5</ele>
        <time>2010-07-27T15:42:09</time>
      </trkpt>
      <trkpt lat="48.54074" lon="-2.04142">
        <ele>138.5</ele>
        <time>2010-07-27T15:42:12</time>
      </trkpt>
      <trkpt lat="48.54075" lon="-2.04158">
        <ele>138</ele>
        <time>2010-07-27T15:42:15</time>
      </trkpt>
      <trkpt lat="48.54077" lon="-2.04175">
        <ele>137.5</ele>
        <time>2010-07-27T15:42:18</time>
      </trkpt>
      <trkpt lat="48.54079" lon="-2.04193">
        <ele>138.5</ele>
        <time>2010-07-27T15:42:21</time>
      </trkpt>
      <trkpt lat="48.54081" lon="-2.04211">
        <ele>139</ele>
        <time>2010-07-27T15:42:24</time>
      </trkpt>
      <trkpt lat="48.54083" lon="-2.04229">
        <ele>139.5</ele>
        <time>2010-07-27T15:42:28</time>
      </trkpt>
      <trkpt lat="48.54086" lon="-2.04249">
        <ele>140.5</ele>
        <time>2010-07-27T15:42:30</time>
      </trkpt>
      <trkpt lat="48.54087" lon="-2.04269">
        <ele>140</ele>
        <time>2010-07-27T15:42:33</time>
      </trkpt>
      <trkpt lat="48.54088" lon="-2.04289">
        <ele>140</ele>
        <time>2010-07-27T15:42:36</time>
      </trkpt>
      <trkpt lat="48.5409" lon="-2.0431">
        <ele>140.5</ele>
        <time>2010-07-27T15:42:39</time>
      </trkpt>
      <trkpt lat="48.54091" lon="-2.04332">
        <ele>140</ele>
        <time>2010-07-27T15:42:42</time>
      </trkpt>
      <trkpt lat="48.54093" lon="-2.04353">
        <ele>140.5</ele>
        <time>2010-07-27T15:42:45</time>
      </trkpt>
      <trkpt lat="48.54094" lon="-2.04375">
        <ele>140</ele>
        <time>2010-07-27T15:42:48</time>
      </trkpt>
      <trkpt lat="48.54099" lon="-2.04395">
        <ele>140.5</ele>
        <time>2010-07-27T15:42:51</time>
      </trkpt>
      <trkpt lat="48.5411" lon="-2.04408">
        <ele>140.5</ele>
        <time>2010-07-27T15:42:54</time>
      </trkpt>
      <trkpt lat="48.54122" lon="-2.04414">
        <ele>141</ele>
        <time>2010-07-27T15:42:58</time>
      </trkpt>
      <trkpt lat="48.54132" lon="-2.04417">
        <ele>141.5</ele>
        <time>2010-07-27T15:43:00</time>
      </trkpt>
      <trkpt lat="48.54136" lon="-2.04419">
        <ele>141.5</ele>
        <time>2010-07-27T15:43:04</time>
      </trkpt>
      <trkpt lat="48.54139" lon="-2.04436">
        <ele>141.5</ele>
        <time>2010-07-27T15:43:09</time>
      </trkpt>
      <trkpt lat="48.54146" lon="-2.04442">
        <ele>142</ele>
        <time>2010-07-27T15:43:12</time>
      </trkpt>
      <trkpt lat="48.54155" lon="-2.04447">
        <ele>142</ele>
        <time>2010-07-27T15:43:16</time>
      </trkpt>
      <trkpt lat="48.54166" lon="-2.04452">
        <ele>142</ele>
        <time>2010-07-27T15:43:19</time>
      </trkpt>
      <trkpt lat="48.54177" lon="-2.04458">
        <ele>141.5</ele>
        <time>2010-07-27T15:43:22</time>
      </trkpt>
      <trkpt lat="48.5419" lon="-2.04465">
        <ele>141.5</ele>
        <time>2010-07-27T15:43:25</time>
      </trkpt>
      <trkpt lat="48.54203" lon="-2.04472">
        <ele>141.5</ele>
        <time>2010-07-27T15:43:28</time>
      </trkpt>
      <trkpt lat="48.54217" lon="-2.0448">
        <ele>141</ele>
        <time>2010-07-27T15:43:31</time>
      </trkpt>
      <trkpt lat="48.54231" lon="-2.04488">
        <ele>141</ele>
        <time>2010-07-27T15:43:34</time>
      </trkpt>
      <trkpt lat="48.54246" lon="-2.04497">
        <ele>141</ele>
        <time>2010-07-27T15:43:37</time>
      </trkpt>
      <trkpt lat="48.5426" lon="-2.04506">
        <ele>140.5</ele>
        <time>2010-07-27T15:43:40</time>
      </trkpt>
      <trkpt lat="48.54275" lon="-2.04515">
        <ele>140.5</ele>
        <time>2010-07-27T15:43:43</time>
      </trkpt>
      <trkpt lat="48.5429" lon="-2.04526">
        <ele>140</ele>
        <time>2010-07-27T15:43:46</time>
      </trkpt>
      <trkpt lat="48.54305" lon="-2.04539">
        <ele>139.5</ele>
        <time>2010-07-27T15:43:49</time>
      </trkpt>
      <trkpt lat="48.5432" lon="-2.04551">
        <ele>139</ele>
        <time>2010-07-27T15:43:52</time>
      </trkpt>
      <trkpt lat="48.54337" lon="-2.04564">
        <ele>139</ele>
        <time>2010-07-27T15:43:55</time>
      </trkpt>
      <trkpt lat="48.54354" lon="-2.04578">
        <ele>139</ele>
        <time>2010-07-27T15:43:58</time>
      </trkpt>
      <trkpt lat="48.54371" lon="-2.04592">
        <ele>138.5</ele>
        <time>2010-07-27T15:44:01</time>
      </trkpt>
      <trkpt lat="48.54388" lon="-2.04605">
        <ele>139</ele>
        <time>2010-07-27T15:44:04</time>
      </trkpt>
      <trkpt lat="48.54403" lon="-2.04618">
        <ele>139</ele>
        <time>2010-07-27T15:44:07</time>
      </trkpt>
      <trkpt lat="48.54417" lon="-2.04631">
        <ele>138.5</ele>
        <time>2010-07-27T15:44:10</time>
      </trkpt>
      <trkpt lat="48.54429" lon="-2.04641">
        <ele>139.5</ele>
        <time>2010-07-27T15:44:13</time>
      </trkpt>
      <trkpt lat="48.54439" lon="-2.0465">
        <ele>139.5</ele>
        <time>2010-07-27T15:44:16</time>
      </trkpt>
      <trkpt lat="48.54442" lon="-2.04659">
        <ele>138</ele>
        <time>2010-07-27T15:44:19</time>
      </trkpt>
      <trkpt lat="48.5444" lon="-2.04671">
        <ele>137.5</ele>
        <time>2010-07-27T15:44:22</time>
      </trkpt>
      <trkpt lat="48.54437" lon="-2.04682">
        <ele>138</ele>
        <time>2010-07-27T15:44:25</time>
      </trkpt>
      <trkpt lat="48.54436" lon="-2.04696">
        <ele>137.5</ele>
        <time>2010-07-27T15:44:28</time>
      </trkpt>
      <trkpt lat="48.54435" lon="-2.04713">
        <ele>136.5</ele>
        <time>2010-07-27T15:44:31</time>
      </trkpt>
      <trkpt lat="48.54432" lon="-2.04729">
        <ele>137</ele>
        <time>2010-07-27T15:44:34</time>
      </trkpt>
      <trkpt lat="48.54429" lon="-2.04746">
        <ele>137</ele>
        <time>2010-07-27T15:44:37</time>
      </trkpt>
      <trkpt lat="48.54427" lon="-2.04761">
        <ele>137</ele>
        <time>2010-07-27T15:44:40</time>
      </trkpt>
      <trkpt lat="48.54426" lon="-2.04772">
        <ele>137.5</ele>
        <time>2010-07-27T15:44:43</time>
      </trkpt>
      <trkpt lat="48.54425" lon="-2.04785">
        <ele>139</ele>
        <time>2010-07-27T15:44:46</time>
      </trkpt>
      <trkpt lat="48.54423" lon="-2.04801">
        <ele>138.5</ele>
        <time>2010-07-27T15:44:49</time>
      </trkpt>
      <trkpt lat="48.54419" lon="-2.04817">
        <ele>138</ele>
        <time>2010-07-27T15:44:52</time>
      </trkpt>
      <trkpt lat="48.54414" lon="-2.04834">
        <ele>138</ele>
        <time>2010-07-27T15:44:55</time>
      </trkpt>
      <trkpt lat="48.54409" lon="-2.0485">
        <ele>138.5</ele>
        <time>2010-07-27T15:44:58</time>
      </trkpt>
      <trkpt lat="48.54404" lon="-2.04869">
        <ele>138.5</ele>
        <time>2010-07-27T15:45:01</time>
      </trkpt>
      <trkpt lat="48.544" lon="-2.04887">
        <ele>137.5</ele>
        <time>2010-07-27T15:45:04</time>
      </trkpt>
      <trkpt lat="48.54395" lon="-2.0492">
        <ele>136</ele>
        <time>2010-07-27T15:45:10</time>
      </trkpt>
      <trkpt lat="48.54393" lon="-2.04935">
        <ele>135</ele>
        <time>2010-07-27T15:45:13</time>
      </trkpt>
      <trkpt lat="48.54392" lon="-2.04949">
        <ele>135</ele>
        <time>2010-07-27T15:45:16</time>
      </trkpt>
      <trkpt lat="48.54389" lon="-2.04964">
        <ele>134.5</ele>
        <time>2010-07-27T15:45:19</time>
      </trkpt>
      <trkpt lat="48.54386" lon="-2.04979">
        <ele>134</ele>
        <time>2010-07-27T15:45:22</time>
      </trkpt>
      <trkpt lat="48.54383" lon="-2.04994">
        <ele>134.5</ele>
        <time>2010-07-27T15:45:25</time>
      </trkpt>
      <trkpt lat="48.5438" lon="-2.0501">
        <ele>134</ele>
        <time>2010-07-27T15:45:28</time>
      </trkpt>
      <trkpt lat="48.54379" lon="-2.05022">
        <ele>133</ele>
        <time>2010-07-27T15:45:31</time>
      </trkpt>
      <trkpt lat="48.54377" lon="-2.05032">
        <ele>131.5</ele>
        <time>2010-07-27T15:45:34</time>
      </trkpt>
      <trkpt lat="48.54377" lon="-2.0504">
        <ele>131.5</ele>
        <time>2010-07-27T15:45:37</time>
      </trkpt>
      <trkpt lat="48.54379" lon="-2.05044">
        <ele>132</ele>
        <time>2010-07-27T15:45:40</time>
      </trkpt>
      <trkpt lat="48.54383" lon="-2.05049">
        <ele>132</ele>
        <time>2010-07-27T15:45:43</time>
      </trkpt>
      <trkpt lat="48.54386" lon="-2.05056">
        <ele>132.5</ele>
        <time>2010-07-27T15:45:46</time>
      </trkpt>
      <trkpt lat="48.54387" lon="-2.05067">
        <ele>124.5</ele>
        <time>2010-07-27T15:45:49</time>
      </trkpt>
      <trkpt lat="48.54395" lon="-2.05073">
        <ele>124</ele>
        <time>2010-07-27T15:45:52</time>
      </trkpt>
      <trkpt lat="48.54403" lon="-2.05081">
        <ele>125</ele>
        <time>2010-07-27T15:45:55</time>
      </trkpt>
      <trkpt lat="48.54412" lon="-2.05086">
        <ele>125.5</ele>
        <time>2010-07-27T15:45:58</time>
      </trkpt>
      <trkpt lat="48.5442" lon="-2.05093">
        <ele>126.5</ele>
        <time>2010-07-27T15:46:01</time>
      </trkpt>
      <trkpt lat="48.54426" lon="-2.051">
        <ele>126</ele>
        <time>2010-07-27T15:46:04</time>
      </trkpt>
      <trkpt lat="48.54437" lon="-2.05121">
        <ele>127.5</ele>
        <time>2010-07-27T15:46:10</time>
      </trkpt>
      <trkpt lat="48.5444" lon="-2.05134">
        <ele>129</ele>
        <time>2010-07-27T15:46:13</time>
      </trkpt>
      <trkpt lat="48.54444" lon="-2.05151">
        <ele>129.5</ele>
        <time>2010-07-27T15:46:16</time>
      </trkpt>
      <trkpt lat="48.5445" lon="-2.05168">
        <ele>130.5</ele>
        <time>2010-07-27T15:46:22</time>
      </trkpt>
      <trkpt lat="48.54459" lon="-2.05186">
        <ele>132</ele>
        <time>2010-07-27T15:46:27</time>
      </trkpt>
      <trkpt lat="48.54467" lon="-2.05193">
        <ele>131.5</ele>
        <time>2010-07-27T15:46:30</time>
      </trkpt>
      <trkpt lat="48.54474" lon="-2.05198">
        <ele>131</ele>
        <time>2010-07-27T15:46:34</time>
      </trkpt>
      <trkpt lat="48.54491" lon="-2.05209">
        <ele>132</ele>
        <time>2010-07-27T15:46:40</time>
      </trkpt>
      <trkpt lat="48.545" lon="-2.05216">
        <ele>132</ele>
        <time>2010-07-27T15:46:43</time>
      </trkpt>
      <trkpt lat="48.5451" lon="-2.05221">
        <ele>133</ele>
        <time>2010-07-27T15:46:46</time>
      </trkpt>
      <trkpt lat="48.54529" lon="-2.05231">
        <ele>134</ele>
        <time>2010-07-27T15:46:52</time>
      </trkpt>
      <trkpt lat="48.54538" lon="-2.05236">
        <ele>134</ele>
        <time>2010-07-27T15:46:55</time>
      </trkpt>
      <trkpt lat="48.54547" lon="-2.05242">
        <ele>133.5</ele>
        <time>2010-07-27T15:46:58</time>
      </trkpt>
      <trkpt lat="48.5456" lon="-2.05255">
        <ele>135</ele>
        <time>2010-07-27T15:47:04</time>
      </trkpt>
      <trkpt lat="48.54561" lon="-2.05267">
        <ele>134.5</ele>
        <time>2010-07-27T15:47:07</time>
      </trkpt>
      <trkpt lat="48.54559" lon="-2.0528">
        <ele>135</ele>
        <time>2010-07-27T15:47:10</time>
      </trkpt>
      <trkpt lat="48.5456" lon="-2.0529">
        <ele>134</ele>
        <time>2010-07-27T15:47:13</time>
      </trkpt>
      <trkpt lat="48.54562" lon="-2.05305">
        <ele>133</ele>
        <time>2010-07-27T15:47:16</time>
      </trkpt>
      <trkpt lat="48.54564" lon="-2.05319">
        <ele>134</ele>
        <time>2010-07-27T15:47:19</time>
      </trkpt>
      <trkpt lat="48.5457" lon="-2.05332">
        <ele>134</ele>
        <time>2010-07-27T15:47:22</time>
      </trkpt>
      <trkpt lat="48.54579" lon="-2.05345">
        <ele>133.5</ele>
        <time>2010-07-27T15:47:25</time>
      </trkpt>
      <trkpt lat="48.54588" lon="-2.05357">
        <ele>133.5</ele>
        <time>2010-07-27T15:47:28</time>
      </trkpt>
      <trkpt lat="48.54597" lon="-2.05367">
        <ele>133.5</ele>
        <time>2010-07-27T15:47:31</time>
      </trkpt>
      <trkpt lat="48.54605" lon="-2.05379">
        <ele>134</ele>
        <time>2010-07-27T15:47:34</time>
      </trkpt>
      <trkpt lat="48.54613" lon="-2.05389">
        <ele>134</ele>
        <time>2010-07-27T15:47:37</time>
      </trkpt>
      <trkpt lat="48.54621" lon="-2.05403">
        <ele>134.5</ele>
        <time>2010-07-27T15:47:41</time>
      </trkpt>
      <trkpt lat="48.54628" lon="-2.0542">
        <ele>136</ele>
        <time>2010-07-27T15:47:46</time>
      </trkpt>
      <trkpt lat="48.54636" lon="-2.05427">
        <ele>136</ele>
        <time>2010-07-27T15:47:49</time>
      </trkpt>
      <trkpt lat="48.5465" lon="-2.05435">
        <ele>135.5</ele>
        <time>2010-07-27T15:47:52</time>
      </trkpt>
      <trkpt lat="48.54671" lon="-2.05447">
        <ele>135.5</ele>
        <time>2010-07-27T15:47:58</time>
      </trkpt>
      <trkpt lat="48.547" lon="-2.05462">
        <ele>135</ele>
        <time>2010-07-27T15:48:04</time>
      </trkpt>
      <trkpt lat="48.54718" lon="-2.0547">
        <ele>134.5</ele>
        <time>2010-07-27T15:48:10</time>
      </trkpt>
      <trkpt lat="48.5473" lon="-2.05478">
        <ele>135</ele>
        <time>2010-07-27T15:48:13</time>
      </trkpt>
      <trkpt lat="48.54736" lon="-2.05491">
        <ele>134.5</ele>
        <time>2010-07-27T15:48:17</time>
      </trkpt>
      <trkpt lat="48.54749" lon="-2.05525">
        <ele>133.5</ele>
        <time>2010-07-27T15:48:22</time>
      </trkpt>
      <trkpt lat="48.54756" lon="-2.05546">
        <ele>133</ele>
        <time>2010-07-27T15:48:25</time>
      </trkpt>
      <trkpt lat="48.54764" lon="-2.05569">
        <ele>132.5</ele>
        <time>2010-07-27T15:48:28</time>
      </trkpt>
      <trkpt lat="48.54777" lon="-2.05608">
        <ele>131</ele>
        <time>2010-07-27T15:48:33</time>
      </trkpt>
      <trkpt lat="48.54783" lon="-2.05633">
        <ele>130.5</ele>
        <time>2010-07-27T15:48:37</time>
      </trkpt>
      <trkpt lat="48.54787" lon="-2.05657">
        <ele>130.5</ele>
        <time>2010-07-27T15:48:40</time>
      </trkpt>
      <trkpt lat="48.54797" lon="-2.05706">
        <ele>129.5</ele>
        <time>2010-07-27T15:48:46</time>
      </trkpt>
      <trkpt lat="48.54803" lon="-2.0573">
        <ele>129</ele>
        <time>2010-07-27T15:48:49</time>
      </trkpt>
      <trkpt lat="48.54807" lon="-2.05753">
        <ele>128.5</ele>
        <time>2010-07-27T15:48:52</time>
      </trkpt>
      <trkpt lat="48.54802" lon="-2.0579">
        <ele>127</ele>
        <time>2010-07-27T15:48:58</time>
      </trkpt>
      <trkpt lat="48.54792" lon="-2.05797">
        <ele>127</ele>
        <time>2010-07-27T15:49:01</time>
      </trkpt>
      <trkpt lat="48.54779" lon="-2.05798">
        <ele>127</ele>
        <time>2010-07-27T15:49:04</time>
      </trkpt>
      <trkpt lat="48.54755" lon="-2.05795">
        <ele>128</ele>
        <time>2010-07-27T15:49:10</time>
      </trkpt>
      <trkpt lat="48.54743" lon="-2.05797">
        <ele>129.5</ele>
        <time>2010-07-27T15:49:13</time>
      </trkpt>
      <trkpt lat="48.54738" lon="-2.05807">
        <ele>129</ele>
        <time>2010-07-27T15:49:16</time>
      </trkpt>
      <trkpt lat="48.54742" lon="-2.05842">
        <ele>128.5</ele>
        <time>2010-07-27T15:49:22</time>
      </trkpt>
      <trkpt lat="48.54744" lon="-2.05864">
        <ele>128</ele>
        <time>2010-07-27T15:49:25</time>
      </trkpt>
      <trkpt lat="48.54746" lon="-2.05885">
        <ele>127</ele>
        <time>2010-07-27T15:49:28</time>
      </trkpt>
      <trkpt lat="48.54747" lon="-2.05909">
        <ele>125.5</ele>
        <time>2010-07-27T15:49:31</time>
      </trkpt>
      <trkpt lat="48.54748" lon="-2.05933">
        <ele>125.5</ele>
        <time>2010-07-27T15:49:34</time>
      </trkpt>
      <trkpt lat="48.54749" lon="-2.05956">
        <ele>124.5</ele>
        <time>2010-07-27T15:49:37</time>
      </trkpt>
      <trkpt lat="48.54751" lon="-2.05979">
        <ele>124</ele>
        <time>2010-07-27T15:49:40</time>
      </trkpt>
      <trkpt lat="48.54753" lon="-2.05999">
        <ele>123.5</ele>
        <time>2010-07-27T15:49:43</time>
      </trkpt>
      <trkpt lat="48.54754" lon="-2.06013">
        <ele>122.5</ele>
        <time>2010-07-27T15:49:46</time>
      </trkpt>
      <trkpt lat="48.54755" lon="-2.06019">
        <ele>121.5</ele>
        <time>2010-07-27T15:49:49</time>
      </trkpt>
      <trkpt lat="48.54757" lon="-2.06024">
        <ele>121</ele>
        <time>2010-07-27T15:49:52</time>
      </trkpt>
      <trkpt lat="48.54762" lon="-2.06034">
        <ele>120</ele>
        <time>2010-07-27T15:49:55</time>
      </trkpt>
      <trkpt lat="48.54768" lon="-2.06048">
        <ele>120</ele>
        <time>2010-07-27T15:49:58</time>
      </trkpt>
      <trkpt lat="48.54772" lon="-2.06064">
        <ele>119</ele>
        <time>2010-07-27T15:50:01</time>
      </trkpt>
      <trkpt lat="48.54775" lon="-2.06082">
        <ele>118.5</ele>
        <time>2010-07-27T15:50:04</time>
      </trkpt>
      <trkpt lat="48.54777" lon="-2.06101">
        <ele>118</ele>
        <time>2010-07-27T15:50:07</time>
      </trkpt>
      <trkpt lat="48.5478" lon="-2.06121">
        <ele>117.5</ele>
        <time>2010-07-27T15:50:10</time>
      </trkpt>
      <trkpt lat="48.54781" lon="-2.06141">
        <ele>117</ele>
        <time>2010-07-27T15:50:13</time>
      </trkpt>
      <trkpt lat="48.54782" lon="-2.0616">
        <ele>116.5</ele>
        <time>2010-07-27T15:50:16</time>
      </trkpt>
      <trkpt lat="48.54786" lon="-2.06191">
        <ele>116</ele>
        <time>2010-07-27T15:50:22</time>
      </trkpt>
      <trkpt lat="48.54788" lon="-2.06204">
        <ele>116.5</ele>
        <time>2010-07-27T15:50:25</time>
      </trkpt>
      <trkpt lat="48.54792" lon="-2.06216">
        <ele>116.5</ele>
        <time>2010-07-27T15:50:28</time>
      </trkpt>
      <trkpt lat="48.54798" lon="-2.06225">
        <ele>117</ele>
        <time>2010-07-27T15:50:31</time>
      </trkpt>
      <trkpt lat="48.54803" lon="-2.06237">
        <ele>117</ele>
        <time>2010-07-27T15:50:34</time>
      </trkpt>
      <trkpt lat="48.54809" lon="-2.0625">
        <ele>117</ele>
        <time>2010-07-27T15:50:37</time>
      </trkpt>
      <trkpt lat="48.54815" lon="-2.06263">
        <ele>117.5</ele>
        <time>2010-07-27T15:50:40</time>
      </trkpt>
      <trkpt lat="48.5482" lon="-2.06274">
        <ele>117</ele>
        <time>2010-07-27T15:50:43</time>
      </trkpt>
      <trkpt lat="48.54824" lon="-2.06279">
        <ele>117</ele>
        <time>2010-07-27T15:50:46</time>
      </trkpt>
      <trkpt lat="48.54861" lon="-2.06319">
        <ele>113.5</ele>
        <time>2010-07-27T15:50:58</time>
      </trkpt>
      <trkpt lat="48.54862" lon="-2.06332">
        <ele>118</ele>
        <time>2010-07-27T15:51:01</time>
      </trkpt>
      <trkpt lat="48.54869" lon="-2.06346">
        <ele>117.5</ele>
        <time>2010-07-27T15:51:04</time>
      </trkpt>
      <trkpt lat="48.54875" lon="-2.06354">
        <ele>116.5</ele>
        <time>2010-07-27T15:51:07</time>
      </trkpt>
      <trkpt lat="48.54882" lon="-2.06362">
        <ele>116</ele>
        <time>2010-07-27T15:51:10</time>
      </trkpt>
      <trkpt lat="48.5489" lon="-2.06364">
        <ele>116</ele>
        <time>2010-07-27T15:51:13</time>
      </trkpt>
      <trkpt lat="48.54899" lon="-2.06362">
        <ele>116</ele>
        <time>2010-07-27T15:51:16</time>
      </trkpt>
      <trkpt lat="48.54908" lon="-2.06361">
        <ele>115</ele>
        <time>2010-07-27T15:51:19</time>
      </trkpt>
      <trkpt lat="48.54917" lon="-2.06359">
        <ele>115</ele>
        <time>2010-07-27T15:51:22</time>
      </trkpt>
      <trkpt lat="48.54926" lon="-2.06356">
        <ele>115.5</ele>
        <time>2010-07-27T15:51:25</time>
      </trkpt>
      <trkpt lat="48.54934" lon="-2.06352">
        <ele>115.5</ele>
        <time>2010-07-27T15:51:28</time>
      </trkpt>
      <trkpt lat="48.5494" lon="-2.06348">
        <ele>115.5</ele>
        <time>2010-07-27T15:51:31</time>
      </trkpt>
      <trkpt lat="48.54948" lon="-2.06348">
        <ele>115.5</ele>
        <time>2010-07-27T15:51:34</time>
      </trkpt>
      <trkpt lat="48.54955" lon="-2.06348">
        <ele>116</ele>
        <time>2010-07-27T15:51:37</time>
      </trkpt>
      <trkpt lat="48.54961" lon="-2.06355">
        <ele>114.5</ele>
        <time>2010-07-27T15:51:40</time>
      </trkpt>
      <trkpt lat="48.54961" lon="-2.06389">
        <ele>114.5</ele>
        <time>2010-07-27T15:51:46</time>
      </trkpt>
      <trkpt lat="48.54961" lon="-2.06408">
        <ele>115</ele>
        <time>2010-07-27T15:51:49</time>
      </trkpt>
      <trkpt lat="48.54963" lon="-2.06428">
        <ele>114.5</ele>
        <time>2010-07-27T15:51:52</time>
      </trkpt>
      <trkpt lat="48.54967" lon="-2.06448">
        <ele>114.5</ele>
        <time>2010-07-27T15:51:55</time>
      </trkpt>
      <trkpt lat="48.5497" lon="-2.06468">
        <ele>114</ele>
        <time>2010-07-27T15:51:58</time>
      </trkpt>
      <trkpt lat="48.54975" lon="-2.0649">
        <ele>113</ele>
        <time>2010-07-27T15:52:01</time>
      </trkpt>
      <trkpt lat="48.5498" lon="-2.06511">
        <ele>113.5</ele>
        <time>2010-07-27T15:52:04</time>
      </trkpt>
      <trkpt lat="48.54998" lon="-2.06548">
        <ele>112</ele>
        <time>2010-07-27T15:52:10</time>
      </trkpt>
      <trkpt lat="48.55012" lon="-2.06562">
        <ele>112</ele>
        <time>2010-07-27T15:52:13</time>
      </trkpt>
      <trkpt lat="48.55022" lon="-2.06579">
        <ele>111.5</ele>
        <time>2010-07-27T15:52:16</time>
      </trkpt>
      <trkpt lat="48.55026" lon="-2.06601">
        <ele>111</ele>
        <time>2010-07-27T15:52:19</time>
      </trkpt>
      <trkpt lat="48.55027" lon="-2.06633">
        <ele>111</ele>
        <time>2010-07-27T15:52:22</time>
      </trkpt>
      <trkpt lat="48.55027" lon="-2.06672">
        <ele>112.5</ele>
        <time>2010-07-27T15:52:28</time>
      </trkpt>
      <trkpt lat="48.55026" lon="-2.06694">
        <ele>113</ele>
        <time>2010-07-27T15:52:31</time>
      </trkpt>
      <trkpt lat="48.5503" lon="-2.06722">
        <ele>113.5</ele>
        <time>2010-07-27T15:52:34</time>
      </trkpt>
      <trkpt lat="48.55034" lon="-2.06734">
        <ele>113.5</ele>
        <time>2010-07-27T15:52:37</time>
      </trkpt>
      <trkpt lat="48.55038" lon="-2.06753">
        <ele>113.5</ele>
        <time>2010-07-27T15:52:40</time>
      </trkpt>
      <trkpt lat="48.5504" lon="-2.06772">
        <ele>113</ele>
        <time>2010-07-27T15:52:43</time>
      </trkpt>
      <trkpt lat="48.55041" lon="-2.06795">
        <ele>113</ele>
        <time>2010-07-27T15:52:46</time>
      </trkpt>
      <trkpt lat="48.55043" lon="-2.06811">
        <ele>113</ele>
        <time>2010-07-27T15:52:49</time>
      </trkpt>
      <trkpt lat="48.55043" lon="-2.06821">
        <ele>113</ele>
        <time>2010-07-27T15:52:52</time>
      </trkpt>
      <trkpt lat="48.55044" lon="-2.06833">
        <ele>112.5</ele>
        <time>2010-07-27T15:52:55</time>
      </trkpt>
      <trkpt lat="48.55047" lon="-2.06845">
        <ele>112</ele>
        <time>2010-07-27T15:52:58</time>
      </trkpt>
      <trkpt lat="48.55048" lon="-2.06857">
        <ele>113</ele>
        <time>2010-07-27T15:53:01</time>
      </trkpt>
      <trkpt lat="48.5505" lon="-2.06878">
        <ele>112.5</ele>
        <time>2010-07-27T15:53:04</time>
      </trkpt>
      <trkpt lat="48.55051" lon="-2.0689">
        <ele>112</ele>
        <time>2010-07-27T15:53:07</time>
      </trkpt>
      <trkpt lat="48.55053" lon="-2.06915">
        <ele>112.5</ele>
        <time>2010-07-27T15:53:10</time>
      </trkpt>
      <trkpt lat="48.55054" lon="-2.06931">
        <ele>113</ele>
        <time>2010-07-27T15:53:13</time>
      </trkpt>
      <trkpt lat="48.55054" lon="-2.06946">
        <ele>113.5</ele>
        <time>2010-07-27T15:53:16</time>
      </trkpt>
      <trkpt lat="48.55055" lon="-2.0696">
        <ele>113.5</ele>
        <time>2010-07-27T15:53:19</time>
      </trkpt>
      <trkpt lat="48.55056" lon="-2.06977">
        <ele>113.5</ele>
        <time>2010-07-27T15:53:22</time>
      </trkpt>
      <trkpt lat="48.55057" lon="-2.06994">
        <ele>112.5</ele>
        <time>2010-07-27T15:53:25</time>
      </trkpt>
      <trkpt lat="48.55059" lon="-2.07011">
        <ele>112.5</ele>
        <time>2010-07-27T15:53:28</time>
      </trkpt>
      <trkpt lat="48.55059" lon="-2.0703">
        <ele>112.5</ele>
        <time>2010-07-27T15:53:31</time>
      </trkpt>
      <trkpt lat="48.55061" lon="-2.07046">
        <ele>111.5</ele>
        <time>2010-07-27T15:53:34</time>
      </trkpt>
      <trkpt lat="48.55061" lon="-2.07062">
        <ele>111</ele>
        <time>2010-07-27T15:53:37</time>
      </trkpt>
      <trkpt lat="48.55062" lon="-2.07072">
        <ele>110.5</ele>
        <time>2010-07-27T15:53:40</time>
      </trkpt>
      <trkpt lat="48.55063" lon="-2.07087">
        <ele>109</ele>
        <time>2010-07-27T15:53:43</time>
      </trkpt>
      <trkpt lat="48.55064" lon="-2.07095">
        <ele>109</ele>
        <time>2010-07-27T15:53:46</time>
      </trkpt>
      <trkpt lat="48.55065" lon="-2.0711">
        <ele>108.5</ele>
        <time>2010-07-27T15:53:49</time>
      </trkpt>
      <trkpt lat="48.55067" lon="-2.07126">
        <ele>108</ele>
        <time>2010-07-27T15:53:52</time>
      </trkpt>
      <trkpt lat="48.5507" lon="-2.07145">
        <ele>106.5</ele>
        <time>2010-07-27T15:53:55</time>
      </trkpt>
      <trkpt lat="48.55073" lon="-2.07157">
        <ele>105.5</ele>
        <time>2010-07-27T15:53:58</time>
      </trkpt>
      <trkpt lat="48.55075" lon="-2.07165">
        <ele>104.5</ele>
        <time>2010-07-27T15:54:01</time>
      </trkpt>
      <trkpt lat="48.55078" lon="-2.07173">
        <ele>105</ele>
        <time>2010-07-27T15:54:04</time>
      </trkpt>
      <trkpt lat="48.5508" lon="-2.0718">
        <ele>106</ele>
        <time>2010-07-27T15:54:07</time>
      </trkpt>
      <trkpt lat="48.55082" lon="-2.0719">
        <ele>107</ele>
        <time>2010-07-27T15:54:10</time>
      </trkpt>
      <trkpt lat="48.55085" lon="-2.07201">
        <ele>108</ele>
        <time>2010-07-27T15:54:13</time>
      </trkpt>
      <trkpt lat="48.55089" lon="-2.07213">
        <ele>108</ele>
        <time>2010-07-27T15:54:16</time>
      </trkpt>
      <trkpt lat="48.55092" lon="-2.07226">
        <ele>107.5</ele>
        <time>2010-07-27T15:54:19</time>
      </trkpt>
      <trkpt lat="48.55099" lon="-2.07241">
        <ele>107.5</ele>
        <time>2010-07-27T15:54:22</time>
      </trkpt>
      <trkpt lat="48.55104" lon="-2.07255">
        <ele>107</ele>
        <time>2010-07-27T15:54:25</time>
      </trkpt>
      <trkpt lat="48.55108" lon="-2.07266">
        <ele>105.5</ele>
        <time>2010-07-27T15:54:28</time>
      </trkpt>
      <trkpt lat="48.55112" lon="-2.07276">
        <ele>104</ele>
        <time>2010-07-27T15:54:31</time>
      </trkpt>
      <trkpt lat="48.55115" lon="-2.07288">
        <ele>104</ele>
        <time>2010-07-27T15:54:34</time>
      </trkpt>
      <trkpt lat="48.55116" lon="-2.07299">
        <ele>103</ele>
        <time>2010-07-27T15:54:37</time>
      </trkpt>
      <trkpt lat="48.55118" lon="-2.07312">
        <ele>103</ele>
        <time>2010-07-27T15:54:40</time>
      </trkpt>
      <trkpt lat="48.55121" lon="-2.07326">
        <ele>102</ele>
        <time>2010-07-27T15:54:43</time>
      </trkpt>
      <trkpt lat="48.55124" lon="-2.07338">
        <ele>102.5</ele>
        <time>2010-07-27T15:54:46</time>
      </trkpt>
      <trkpt lat="48.55127" lon="-2.07351">
        <ele>103</ele>
        <time>2010-07-27T15:54:49</time>
      </trkpt>
      <trkpt lat="48.5513" lon="-2.07362">
        <ele>103</ele>
        <time>2010-07-27T15:54:53</time>
      </trkpt>
      <trkpt lat="48.55129" lon="-2.07388">
        <ele>100.5</ele>
        <time>2010-07-27T15:54:58</time>
      </trkpt>
      <trkpt lat="48.55116" lon="-2.07406">
        <ele>100</ele>
        <time>2010-07-27T15:55:04</time>
      </trkpt>
      <trkpt lat="48.55109" lon="-2.07418">
        <ele>102</ele>
        <time>2010-07-27T15:55:07</time>
      </trkpt>
      <trkpt lat="48.551" lon="-2.07426">
        <ele>103</ele>
        <time>2010-07-27T15:55:10</time>
      </trkpt>
      <trkpt lat="48.55088" lon="-2.07442">
        <ele>103.5</ele>
        <time>2010-07-27T15:55:15</time>
      </trkpt>
      <trkpt lat="48.55077" lon="-2.07446">
        <ele>101</ele>
        <time>2010-07-27T15:55:19</time>
      </trkpt>
      <trkpt lat="48.55063" lon="-2.07445">
        <ele>99</ele>
        <time>2010-07-27T15:55:22</time>
      </trkpt>
      <trkpt lat="48.55044" lon="-2.07455">
        <ele>97.5</ele>
        <time>2010-07-27T15:55:28</time>
      </trkpt>
      <trkpt lat="48.55036" lon="-2.07454">
        <ele>96.5</ele>
        <time>2010-07-27T15:55:31</time>
      </trkpt>
      <trkpt lat="48.55029" lon="-2.07452">
        <ele>96</ele>
        <time>2010-07-27T15:55:34</time>
      </trkpt>
      <trkpt lat="48.55013" lon="-2.0745">
        <ele>95</ele>
        <time>2010-07-27T15:55:40</time>
      </trkpt>
      <trkpt lat="48.55005" lon="-2.07448">
        <ele>95</ele>
        <time>2010-07-27T15:55:43</time>
      </trkpt>
      <trkpt lat="48.54997" lon="-2.07448">
        <ele>95</ele>
        <time>2010-07-27T15:55:46</time>
      </trkpt>
      <trkpt lat="48.54984" lon="-2.07445">
        <ele>96</ele>
        <time>2010-07-27T15:55:52</time>
      </trkpt>
      <trkpt lat="48.54978" lon="-2.07442">
        <ele>98</ele>
        <time>2010-07-27T15:55:55</time>
      </trkpt>
      <trkpt lat="48.54972" lon="-2.07439">
        <ele>100</ele>
        <time>2010-07-27T15:55:58</time>
      </trkpt>
      <trkpt lat="48.54967" lon="-2.07439">
        <ele>101</ele>
        <time>2010-07-27T15:56:01</time>
      </trkpt>
      <trkpt lat="48.54962" lon="-2.07442">
        <ele>102</ele>
        <time>2010-07-27T15:56:04</time>
      </trkpt>
      <trkpt lat="48.54962" lon="-2.07448">
        <ele>104.5</ele>
        <time>2010-07-27T15:56:10</time>
      </trkpt>
      <trkpt lat="48.54961" lon="-2.07448">
        <ele>105</ele>
        <time>2010-07-27T15:56:16</time>
      </trkpt>
      <trkpt lat="48.5496" lon="-2.07449">
        <ele>104.5</ele>
        <time>2010-07-27T15:56:19</time>
      </trkpt>
      <trkpt lat="48.54959" lon="-2.0745">
        <ele>104.5</ele>
        <time>2010-07-27T15:56:22</time>
      </trkpt>
      <trkpt lat="48.54958" lon="-2.07452">
        <ele>103.5</ele>
        <time>2010-07-27T15:56:25</time>
      </trkpt>
      <trkpt lat="48.54957" lon="-2.07453">
        <ele>104</ele>
        <time>2010-07-27T15:56:28</time>
      </trkpt>
      <trkpt lat="48.54956" lon="-2.07456">
        <ele>104</ele>
        <time>2010-07-27T15:56:31</time>
      </trkpt>
      <trkpt lat="48.54956" lon="-2.07457">
        <ele>104.5</ele>
        <time>2010-07-27T15:56:34</time>
      </trkpt>
      <trkpt lat="48.54954" lon="-2.0746">
        <ele>104.5</ele>
        <time>2010-07-27T15:56:37</time>
      </trkpt>
      <trkpt lat="48.54953" lon="-2.07465">
        <ele>105.5</ele>
        <time>2010-07-27T15:56:40</time>
      </trkpt>
      <trkpt lat="48.54945" lon="-2.07468">
        <ele>107</ele>
        <time>2010-07-27T15:56:43</time>
      </trkpt>
      <trkpt lat="48.54941" lon="-2.07471">
        <ele>108</ele>
        <time>2010-07-27T15:56:46</time>
      </trkpt>
      <trkpt lat="48.54939" lon="-2.07478">
        <ele>108.5</ele>
        <time>2010-07-27T15:56:49</time>
      </trkpt>
      <trkpt lat="48.54939" lon="-2.07487">
        <ele>108.5</ele>
        <time>2010-07-27T15:56:52</time>
      </trkpt>
      <trkpt lat="48.54939" lon="-2.07498">
        <ele>108</ele>
        <time>2010-07-27T15:56:55</time>
      </trkpt>
      <trkpt lat="48.54938" lon="-2.07509">
        <ele>108.5</ele>
        <time>2010-07-27T15:56:58</time>
      </trkpt>
      <trkpt lat="48.54936" lon="-2.07515">
        <ele>108.5</ele>
        <time>2010-07-27T15:57:01</time>
      </trkpt>
      <trkpt lat="48.54934" lon="-2.07525">
        <ele>109</ele>
        <time>2010-07-27T15:57:04</time>
      </trkpt>
      <trkpt lat="48.54931" lon="-2.07531">
        <ele>108</ele>
        <time>2010-07-27T15:57:07</time>
      </trkpt>
      <trkpt lat="48.54927" lon="-2.07532">
        <ele>108.5</ele>
        <time>2010-07-27T15:57:10</time>
      </trkpt>
      <trkpt lat="48.54918" lon="-2.07541">
        <ele>109</ele>
        <time>2010-07-27T15:57:16</time>
      </trkpt>
      <trkpt lat="48.54918" lon="-2.07551">
        <ele>108</ele>
        <time>2010-07-27T15:57:19</time>
      </trkpt>
      <trkpt lat="48.54917" lon="-2.07561">
        <ele>107</ele>
        <time>2010-07-27T15:57:22</time>
      </trkpt>
      <trkpt lat="48.54916" lon="-2.07571">
        <ele>106</ele>
        <time>2010-07-27T15:57:25</time>
      </trkpt>
      <trkpt lat="48.54915" lon="-2.07579">
        <ele>106</ele>
        <time>2010-07-27T15:57:28</time>
      </trkpt>
      <trkpt lat="48.54914" lon="-2.07587">
        <ele>107</ele>
        <time>2010-07-27T15:57:31</time>
      </trkpt>
      <trkpt lat="48.54911" lon="-2.07592">
        <ele>108</ele>
        <time>2010-07-27T15:57:34</time>
      </trkpt>
      <trkpt lat="48.54908" lon="-2.07597">
        <ele>110</ele>
        <time>2010-07-27T15:57:37</time>
      </trkpt>
      <trkpt lat="48.54903" lon="-2.07602">
        <ele>110.5</ele>
        <time>2010-07-27T15:57:41</time>
      </trkpt>
      <trkpt lat="48.54899" lon="-2.07608">
        <ele>111.5</ele>
        <time>2010-07-27T15:57:44</time>
      </trkpt>
      <trkpt lat="48.54898" lon="-2.07613">
        <ele>112.5</ele>
        <time>2010-07-27T15:57:47</time>
      </trkpt>
      <trkpt lat="48.54894" lon="-2.07619">
        <ele>111.5</ele>
        <time>2010-07-27T15:57:50</time>
      </trkpt>
      <trkpt lat="48.54888" lon="-2.07626">
        <ele>111.5</ele>
        <time>2010-07-27T15:57:53</time>
      </trkpt>
      <trkpt lat="48.54881" lon="-2.07633">
        <ele>112</ele>
        <time>2010-07-27T15:57:56</time>
      </trkpt>
      <trkpt lat="48.54871" lon="-2.07638">
        <ele>111.5</ele>
        <time>2010-07-27T15:57:59</time>
      </trkpt>
      <trkpt lat="48.54864" lon="-2.07642">
        <ele>109.5</ele>
        <time>2010-07-27T15:58:02</time>
      </trkpt>
      <trkpt lat="48.54853" lon="-2.07645">
        <ele>109.5</ele>
        <time>2010-07-27T15:58:05</time>
      </trkpt>
      <trkpt lat="48.54846" lon="-2.07647">
        <ele>109.5</ele>
        <time>2010-07-27T15:58:08</time>
      </trkpt>
      <trkpt lat="48.54839" lon="-2.07649">
        <ele>109.5</ele>
        <time>2010-07-27T15:58:11</time>
      </trkpt>
      <trkpt lat="48.54831" lon="-2.0765">
        <ele>111.5</ele>
        <time>2010-07-27T15:58:14</time>
      </trkpt>
      <trkpt lat="48.54814" lon="-2.07654">
        <ele>117.5</ele>
        <time>2010-07-27T15:58:22</time>
      </trkpt>
      <trkpt lat="48.54809" lon="-2.07656">
        <ele>118.5</ele>
        <time>2010-07-27T15:58:25</time>
      </trkpt>
      <trkpt lat="48.54805" lon="-2.07659">
        <ele>119.5</ele>
        <time>2010-07-27T15:58:28</time>
      </trkpt>
      <trkpt lat="48.54802" lon="-2.0766">
        <ele>120</ele>
        <time>2010-07-27T15:58:31</time>
      </trkpt>
      <trkpt lat="48.54797" lon="-2.07661">
        <ele>121</ele>
        <time>2010-07-27T15:58:34</time>
      </trkpt>
      <trkpt lat="48.54793" lon="-2.07661">
        <ele>122.5</ele>
        <time>2010-07-27T15:58:37</time>
      </trkpt>
      <trkpt lat="48.54789" lon="-2.07661">
        <ele>123</ele>
        <time>2010-07-27T15:58:40</time>
      </trkpt>
      <trkpt lat="48.54786" lon="-2.0766">
        <ele>124</ele>
        <time>2010-07-27T15:58:43</time>
      </trkpt>
      <trkpt lat="48.54782" lon="-2.07661">
        <ele>124.5</ele>
        <time>2010-07-27T15:58:46</time>
      </trkpt>
      <trkpt lat="48.54777" lon="-2.07662">
        <ele>125</ele>
        <time>2010-07-27T15:58:49</time>
      </trkpt>
      <trkpt lat="48.54771" lon="-2.07662">
        <ele>125.5</ele>
        <time>2010-07-27T15:58:52</time>
      </trkpt>
      <trkpt lat="48.54768" lon="-2.0766">
        <ele>127</ele>
        <time>2010-07-27T15:58:55</time>
      </trkpt>
      <trkpt lat="48.54764" lon="-2.07659">
        <ele>127.5</ele>
        <time>2010-07-27T15:58:59</time>
      </trkpt>
      <trkpt lat="48.54759" lon="-2.07659">
        <ele>127.5</ele>
        <time>2010-07-27T15:59:02</time>
      </trkpt>
      <trkpt lat="48.54755" lon="-2.07658">
        <ele>128</ele>
        <time>2010-07-27T15:59:05</time>
      </trkpt>
      <trkpt lat="48.54753" lon="-2.07652">
        <ele>128</ele>
        <time>2010-07-27T15:59:08</time>
      </trkpt>
      <trkpt lat="48.54752" lon="-2.07646">
        <ele>128.5</ele>
        <time>2010-07-27T15:59:11</time>
      </trkpt>
      <trkpt lat="48.54751" lon="-2.07644">
        <ele>128</ele>
        <time>2010-07-27T15:59:13</time>
      </trkpt>
      <trkpt lat="48.5475" lon="-2.07643">
        <ele>128.5</ele>
        <time>2010-07-27T15:59:17</time>
      </trkpt>
      <trkpt lat="48.54748" lon="-2.07642">
        <ele>129</ele>
        <time>2010-07-27T15:59:19</time>
      </trkpt>
      <trkpt lat="48.54746" lon="-2.07641">
        <ele>129</ele>
        <time>2010-07-27T15:59:23</time>
      </trkpt>
      <trkpt lat="48.54744" lon="-2.07639">
        <ele>129.5</ele>
        <time>2010-07-27T15:59:26</time>
      </trkpt>
      <trkpt lat="48.5474" lon="-2.07639">
        <ele>129.5</ele>
        <time>2010-07-27T15:59:29</time>
      </trkpt>
      <trkpt lat="48.54738" lon="-2.07638">
        <ele>130</ele>
        <time>2010-07-27T15:59:32</time>
      </trkpt>
      <trkpt lat="48.54736" lon="-2.07636">
        <ele>130.5</ele>
        <time>2010-07-27T15:59:35</time>
      </trkpt>
      <trkpt lat="48.54734" lon="-2.07635">
        <ele>131</ele>
        <time>2010-07-27T15:59:38</time>
      </trkpt>
      <trkpt lat="48.54734" lon="-2.07634">
        <ele>132</ele>
        <time>2010-07-27T15:59:41</time>
      </trkpt>
      <trkpt lat="48.54732" lon="-2.07633">
        <ele>133.5</ele>
        <time>2010-07-27T15:59:44</time>
      </trkpt>
      <trkpt lat="48.5473" lon="-2.07631">
        <ele>134</ele>
        <time>2010-07-27T15:59:47</time>
      </trkpt>
      <trkpt lat="48.54728" lon="-2.0763">
        <ele>133.5</ele>
        <time>2010-07-27T15:59:50</time>
      </trkpt>
      <trkpt lat="48.54727" lon="-2.07628">
        <ele>134</ele>
        <time>2010-07-27T15:59:53</time>
      </trkpt>
      <trkpt lat="48.54723" lon="-2.07629">
        <ele>133</ele>
        <time>2010-07-27T15:59:56</time>
      </trkpt>
      <trkpt lat="48.5472" lon="-2.07628">
        <ele>132.5</ele>
        <time>2010-07-27T15:59:59</time>
      </trkpt>
      <trkpt lat="48.54719" lon="-2.07627">
        <ele>131.5</ele>
        <time>2010-07-27T16:00:02</time>
      </trkpt>
      <trkpt lat="48.54716" lon="-2.07628">
        <ele>131.5</ele>
        <time>2010-07-27T16:00:05</time>
      </trkpt>
      <trkpt lat="48.54714" lon="-2.07627">
        <ele>131.5</ele>
        <time>2010-07-27T16:00:08</time>
      </trkpt>
      <trkpt lat="48.54712" lon="-2.07627">
        <ele>129</ele>
        <time>2010-07-27T16:00:11</time>
      </trkpt>
      <trkpt lat="48.54708" lon="-2.07626">
        <ele>127</ele>
        <time>2010-07-27T16:00:14</time>
      </trkpt>
      <trkpt lat="48.54703" lon="-2.07626">
        <ele>128</ele>
        <time>2010-07-27T16:00:17</time>
      </trkpt>
      <trkpt lat="48.54694" lon="-2.07626">
        <ele>125.5</ele>
        <time>2010-07-27T16:00:20</time>
      </trkpt>
      <trkpt lat="48.54687" lon="-2.07626">
        <ele>124</ele>
        <time>2010-07-27T16:00:23</time>
      </trkpt>
      <trkpt lat="48.54679" lon="-2.07624">
        <ele>122.5</ele>
        <time>2010-07-27T16:00:26</time>
      </trkpt>
      <trkpt lat="48.54671" lon="-2.07623">
        <ele>120.5</ele>
        <time>2010-07-27T16:00:29</time>
      </trkpt>
      <trkpt lat="48.54664" lon="-2.07623">
        <ele>120</ele>
        <time>2010-07-27T16:00:32</time>
      </trkpt>
      <trkpt lat="48.54657" lon="-2.07624">
        <ele>116.5</ele>
        <time>2010-07-27T16:00:35</time>
      </trkpt>
      <trkpt lat="48.54651" lon="-2.07626">
        <ele>116.5</ele>
        <time>2010-07-27T16:00:38</time>
      </trkpt>
      <trkpt lat="48.54646" lon="-2.07623">
        <ele>118</ele>
        <time>2010-07-27T16:00:41</time>
      </trkpt>
      <trkpt lat="48.54644" lon="-2.07621">
        <ele>120</ele>
        <time>2010-07-27T16:00:44</time>
      </trkpt>
      <trkpt lat="48.54638" lon="-2.07622">
        <ele>121</ele>
        <time>2010-07-27T16:00:47</time>
      </trkpt>
      <trkpt lat="48.54634" lon="-2.07622">
        <ele>123.5</ele>
        <time>2010-07-27T16:00:50</time>
      </trkpt>
      <trkpt lat="48.54631" lon="-2.07623">
        <ele>124.5</ele>
        <time>2010-07-27T16:00:53</time>
      </trkpt>
      <trkpt lat="48.5463" lon="-2.07623">
        <ele>124.5</ele>
        <time>2010-07-27T16:00:56</time>
      </trkpt>
      <trkpt lat="48.54628" lon="-2.07622">
        <ele>126</ele>
        <time>2010-07-27T16:00:59</time>
      </trkpt>
      <trkpt lat="48.54627" lon="-2.07621">
        <ele>126.5</ele>
        <time>2010-07-27T16:01:02</time>
      </trkpt>
      <trkpt lat="48.54625" lon="-2.0762">
        <ele>126.5</ele>
        <time>2010-07-27T16:01:05</time>
      </trkpt>
      <trkpt lat="48.5462" lon="-2.07618">
        <ele>125</ele>
        <time>2010-07-27T16:01:08</time>
      </trkpt>
      <trkpt lat="48.54617" lon="-2.07617">
        <ele>126.5</ele>
        <time>2010-07-27T16:01:11</time>
      </trkpt>
      <trkpt lat="48.54614" lon="-2.07616">
        <ele>125</ele>
        <time>2010-07-27T16:01:14</time>
      </trkpt>
      <trkpt lat="48.54607" lon="-2.07614">
        <ele>121</ele>
        <time>2010-07-27T16:01:17</time>
      </trkpt>
      <trkpt lat="48.54601" lon="-2.07614">
        <ele>119.5</ele>
        <time>2010-07-27T16:01:20</time>
      </trkpt>
      <trkpt lat="48.54596" lon="-2.07616">
        <ele>119</ele>
        <time>2010-07-27T16:01:23</time>
      </trkpt>
      <trkpt lat="48.54594" lon="-2.07612">
        <ele>122</ele>
        <time>2010-07-27T16:01:29</time>
      </trkpt>
      <trkpt lat="48.54592" lon="-2.07611">
        <ele>122.5</ele>
        <time>2010-07-27T16:01:32</time>
      </trkpt>
      <trkpt lat="48.54591" lon="-2.0761">
        <ele>122.5</ele>
        <time>2010-07-27T16:01:35</time>
      </trkpt>
      <trkpt lat="48.54584" lon="-2.07609">
        <ele>118</ele>
        <time>2010-07-27T16:01:38</time>
      </trkpt>
      <trkpt lat="48.54579" lon="-2.07608">
        <ele>117.5</ele>
        <time>2010-07-27T16:01:41</time>
      </trkpt>
      <trkpt lat="48.54576" lon="-2.07607">
        <ele>116</ele>
        <time>2010-07-27T16:01:44</time>
      </trkpt>
      <trkpt lat="48.54574" lon="-2.07607">
        <ele>113.5</ele>
        <time>2010-07-27T16:01:47</time>
      </trkpt>
      <trkpt lat="48.54572" lon="-2.07604">
        <ele>114.5</ele>
        <time>2010-07-27T16:01:50</time>
      </trkpt>
      <trkpt lat="48.54565" lon="-2.07602">
        <ele>113</ele>
        <time>2010-07-27T16:01:53</time>
      </trkpt>
      <trkpt lat="48.54559" lon="-2.07601">
        <ele>112</ele>
        <time>2010-07-27T16:01:56</time>
      </trkpt>
      <trkpt lat="48.54554" lon="-2.07602">
        <ele>111.5</ele>
        <time>2010-07-27T16:01:59</time>
      </trkpt>
      <trkpt lat="48.5455" lon="-2.07604">
        <ele>109.5</ele>
        <time>2010-07-27T16:02:02</time>
      </trkpt>
      <trkpt lat="48.54545" lon="-2.07606">
        <ele>109</ele>
        <time>2010-07-27T16:02:05</time>
      </trkpt>
      <trkpt lat="48.5454" lon="-2.07606">
        <ele>110</ele>
        <time>2010-07-27T16:02:08</time>
      </trkpt>
      <trkpt lat="48.54538" lon="-2.07606">
        <ele>112</ele>
        <time>2010-07-27T16:02:11</time>
      </trkpt>
      <trkpt lat="48.54535" lon="-2.07608">
        <ele>112.5</ele>
        <time>2010-07-27T16:02:14</time>
      </trkpt>
      <trkpt lat="48.54531" lon="-2.07609">
        <ele>112.5</ele>
        <time>2010-07-27T16:02:17</time>
      </trkpt>
      <trkpt lat="48.5453" lon="-2.07607">
        <ele>113</ele>
        <time>2010-07-27T16:02:20</time>
      </trkpt>
      <trkpt lat="48.54529" lon="-2.07606">
        <ele>113</ele>
        <time>2010-07-27T16:02:23</time>
      </trkpt>
      <trkpt lat="48.54529" lon="-2.07606">
        <ele>113.5</ele>
        <time>2010-07-27T16:02:26</time>
      </trkpt>
      <trkpt lat="48.54529" lon="-2.07604">
        <ele>114</ele>
        <time>2010-07-27T16:02:29</time>
      </trkpt>
      <trkpt lat="48.54529" lon="-2.07604">
        <ele>115.5</ele>
        <time>2010-07-27T16:02:32</time>
      </trkpt>
      <trkpt lat="48.54528" lon="-2.07602">
        <ele>117.5</ele>
        <time>2010-07-27T16:02:35</time>
      </trkpt>
      <trkpt lat="48.54527" lon="-2.076">
        <ele>118</ele>
        <time>2010-07-27T16:02:38</time>
      </trkpt>
      <trkpt lat="48.54526" lon="-2.07598">
        <ele>119</ele>
        <time>2010-07-27T16:02:41</time>
      </trkpt>
      <trkpt lat="48.54524" lon="-2.07597">
        <ele>119</ele>
        <time>2010-07-27T16:02:44</time>
      </trkpt>
      <trkpt lat="48.5452" lon="-2.07596">
        <ele>116.5</ele>
        <time>2010-07-27T16:02:47</time>
      </trkpt>
      <trkpt lat="48.54518" lon="-2.07594">
        <ele>115</ele>
        <time>2010-07-27T16:02:50</time>
      </trkpt>
      <trkpt lat="48.54517" lon="-2.07591">
        <ele>114.5</ele>
        <time>2010-07-27T16:02:53</time>
      </trkpt>
      <trkpt lat="48.54516" lon="-2.07588">
        <ele>116</ele>
        <time>2010-07-27T16:02:56</time>
      </trkpt>
      <trkpt lat="48.54516" lon="-2.07585">
        <ele>117.5</ele>
        <time>2010-07-27T16:02:59</time>
      </trkpt>
      <trkpt lat="48.54515" lon="-2.07578">
        <ele>119</ele>
        <time>2010-07-27T16:03:05</time>
      </trkpt>
      <trkpt lat="48.54516" lon="-2.07575">
        <ele>119.5</ele>
        <time>2010-07-27T16:03:08</time>
      </trkpt>
      <trkpt lat="48.54516" lon="-2.0757">
        <ele>121</ele>
        <time>2010-07-27T16:03:11</time>
      </trkpt>
      <trkpt lat="48.54517" lon="-2.07566">
        <ele>122</ele>
        <time>2010-07-27T16:03:14</time>
      </trkpt>
      <trkpt lat="48.54516" lon="-2.07564">
        <ele>122.5</ele>
        <time>2010-07-27T16:03:17</time>
      </trkpt>
      <trkpt lat="48.54517" lon="-2.07562">
        <ele>122</ele>
        <time>2010-07-27T16:03:20</time>
      </trkpt>
      <trkpt lat="48.54518" lon="-2.0756">
        <ele>121</ele>
        <time>2010-07-27T16:03:23</time>
      </trkpt>
      <trkpt lat="48.54519" lon="-2.07557">
        <ele>120.5</ele>
        <time>2010-07-27T16:03:26</time>
      </trkpt>
      <trkpt lat="48.5452" lon="-2.07556">
        <ele>119</ele>
        <time>2010-07-27T16:03:29</time>
      </trkpt>
      <trkpt lat="48.5452" lon="-2.07555">
        <ele>119</ele>
        <time>2010-07-27T16:03:32</time>
      </trkpt>
      <trkpt lat="48.5452" lon="-2.07554">
        <ele>119.5</ele>
        <time>2010-07-27T16:03:35</time>
      </trkpt>
      <trkpt lat="48.54521" lon="-2.07549">
        <ele>121</ele>
        <time>2010-07-27T16:03:38</time>
      </trkpt>
      <trkpt lat="48.54522" lon="-2.07543">
        <ele>123</ele>
        <time>2010-07-27T16:03:41</time>
      </trkpt>
      <trkpt lat="48.54523" lon="-2.07536">
        <ele>126</ele>
        <time>2010-07-27T16:03:44</time>
      </trkpt>
      <trkpt lat="48.54523" lon="-2.07528">
        <ele>129</ele>
        <time>2010-07-27T16:03:47</time>
      </trkpt>
      <trkpt lat="48.54525" lon="-2.0752">
        <ele>131.5</ele>
        <time>2010-07-27T16:03:50</time>
      </trkpt>
      <trkpt lat="48.54525" lon="-2.07513">
        <ele>136</ele>
        <time>2010-07-27T16:03:53</time>
      </trkpt>
      <trkpt lat="48.54526" lon="-2.07506">
        <ele>138.5</ele>
        <time>2010-07-27T16:03:56</time>
      </trkpt>
      <trkpt lat="48.54529" lon="-2.07499">
        <ele>140.5</ele>
        <time>2010-07-27T16:03:59</time>
      </trkpt>
      <trkpt lat="48.5453" lon="-2.07492">
        <ele>143</ele>
        <time>2010-07-27T16:04:02</time>
      </trkpt>
      <trkpt lat="48.54531" lon="-2.07484">
        <ele>145</ele>
        <time>2010-07-27T16:04:05</time>
      </trkpt>
      <trkpt lat="48.5453" lon="-2.07477">
        <ele>149.5</ele>
        <time>2010-07-27T16:04:08</time>
      </trkpt>
      <trkpt lat="48.5453" lon="-2.07471">
        <ele>152.5</ele>
        <time>2010-07-27T16:04:11</time>
      </trkpt>
      <trkpt lat="48.54533" lon="-2.07464">
        <ele>152</ele>
        <time>2010-07-27T16:04:14</time>
      </trkpt>
      <trkpt lat="48.54537" lon="-2.07459">
        <ele>152.5</ele>
        <time>2010-07-27T16:04:17</time>
      </trkpt>
      <trkpt lat="48.54542" lon="-2.07455">
        <ele>153</ele>
        <time>2010-07-27T16:04:20</time>
      </trkpt>
      <trkpt lat="48.54549" lon="-2.07452">
        <ele>151</ele>
        <time>2010-07-27T16:04:23</time>
      </trkpt>
      <trkpt lat="48.54556" lon="-2.07448">
        <ele>151</ele>
        <time>2010-07-27T16:04:26</time>
      </trkpt>
      <trkpt lat="48.54563" lon="-2.07444">
        <ele>152</ele>
        <time>2010-07-27T16:04:29</time>
      </trkpt>
      <trkpt lat="48.54571" lon="-2.0744">
        <ele>152.5</ele>
        <time>2010-07-27T16:04:32</time>
      </trkpt>
      <trkpt lat="48.54579" lon="-2.07435">
        <ele>153</ele>
        <time>2010-07-27T16:04:35</time>
      </trkpt>
      <trkpt lat="48.54587" lon="-2.0743">
        <ele>152.5</ele>
        <time>2010-07-27T16:04:38</time>
      </trkpt>
      <trkpt lat="48.54597" lon="-2.07424">
        <ele>152</ele>
        <time>2010-07-27T16:04:41</time>
      </trkpt>
      <trkpt lat="48.54606" lon="-2.0742">
        <ele>152</ele>
        <time>2010-07-27T16:04:44</time>
      </trkpt>
      <trkpt lat="48.54619" lon="-2.07419">
        <ele>147.5</ele>
        <time>2010-07-27T16:04:47</time>
      </trkpt>
      <trkpt lat="48.54635" lon="-2.0742">
        <ele>137.5</ele>
        <time>2010-07-27T16:04:50</time>
      </trkpt>
      <trkpt lat="48.54644" lon="-2.07418">
        <ele>134</ele>
        <time>2010-07-27T16:04:53</time>
      </trkpt>
      <trkpt lat="48.54651" lon="-2.07412">
        <ele>131</ele>
        <time>2010-07-27T16:04:56</time>
      </trkpt>
      <trkpt lat="48.54653" lon="-2.07401">
        <ele>128.5</ele>
        <time>2010-07-27T16:04:59</time>
      </trkpt>
      <trkpt lat="48.54655" lon="-2.07389">
        <ele>126.5</ele>
        <time>2010-07-27T16:05:02</time>
      </trkpt>
      <trkpt lat="48.54656" lon="-2.07377">
        <ele>125.5</ele>
        <time>2010-07-27T16:05:05</time>
      </trkpt>
      <trkpt lat="48.54657" lon="-2.07365">
        <ele>125</ele>
        <time>2010-07-27T16:05:08</time>
      </trkpt>
      <trkpt lat="48.54658" lon="-2.07353">
        <ele>124.5</ele>
        <time>2010-07-27T16:05:11</time>
      </trkpt>
      <trkpt lat="48.5466" lon="-2.07342">
        <ele>124.5</ele>
        <time>2010-07-27T16:05:14</time>
      </trkpt>
      <trkpt lat="48.54661" lon="-2.07325">
        <ele>124</ele>
        <time>2010-07-27T16:05:17</time>
      </trkpt>
      <trkpt lat="48.54661" lon="-2.07318">
        <ele>124</ele>
        <time>2010-07-27T16:05:20</time>
      </trkpt>
      <trkpt lat="48.54661" lon="-2.07306">
        <ele>124</ele>
        <time>2010-07-27T16:05:23</time>
      </trkpt>
      <trkpt lat="48.54659" lon="-2.07296">
        <ele>124.5</ele>
        <time>2010-07-27T16:05:26</time>
      </trkpt>
      <trkpt lat="48.54657" lon="-2.07286">
        <ele>124</ele>
        <time>2010-07-27T16:05:29</time>
      </trkpt>
      <trkpt lat="48.54653" lon="-2.07278">
        <ele>123.5</ele>
        <time>2010-07-27T16:05:32</time>
      </trkpt>
      <trkpt lat="48.54649" lon="-2.0727">
        <ele>123</ele>
        <time>2010-07-27T16:05:35</time>
      </trkpt>
      <trkpt lat="48.54644" lon="-2.07263">
        <ele>123</ele>
        <time>2010-07-27T16:05:38</time>
      </trkpt>
      <trkpt lat="48.54639" lon="-2.07256">
        <ele>123.5</ele>
        <time>2010-07-27T16:05:41</time>
      </trkpt>
      <trkpt lat="48.54635" lon="-2.07249">
        <ele>124</ele>
        <time>2010-07-27T16:05:44</time>
      </trkpt>
      <trkpt lat="48.54629" lon="-2.0724">
        <ele>125</ele>
        <time>2010-07-27T16:05:47</time>
      </trkpt>
      <trkpt lat="48.54626" lon="-2.07236">
        <ele>125.5</ele>
        <time>2010-07-27T16:05:50</time>
      </trkpt>
      <trkpt lat="48.54621" lon="-2.07229">
        <ele>126</ele>
        <time>2010-07-27T16:05:53</time>
      </trkpt>
      <trkpt lat="48.54616" lon="-2.07222">
        <ele>126</ele>
        <time>2010-07-27T16:05:56</time>
      </trkpt>
      <trkpt lat="48.54612" lon="-2.07214">
        <ele>126</ele>
        <time>2010-07-27T16:05:59</time>
      </trkpt>
      <trkpt lat="48.546" lon="-2.07197">
        <ele>126.5</ele>
        <time>2010-07-27T16:06:05</time>
      </trkpt>
      <trkpt lat="48.54591" lon="-2.07186">
        <ele>127</ele>
        <time>2010-07-27T16:06:11</time>
      </trkpt>
      <trkpt lat="48.54586" lon="-2.07179">
        <ele>127</ele>
        <time>2010-07-27T16:06:14</time>
      </trkpt>
      <trkpt lat="48.54579" lon="-2.0717">
        <ele>127.5</ele>
        <time>2010-07-27T16:06:17</time>
      </trkpt>
      <trkpt lat="48.54569" lon="-2.0716">
        <ele>128</ele>
        <time>2010-07-27T16:06:23</time>
      </trkpt>
      <trkpt lat="48.54564" lon="-2.07154">
        <ele>128</ele>
        <time>2010-07-27T16:06:26</time>
      </trkpt>
      <trkpt lat="48.54559" lon="-2.07147">
        <ele>127.5</ele>
        <time>2010-07-27T16:06:29</time>
      </trkpt>
      <trkpt lat="48.54551" lon="-2.07138">
        <ele>127</ele>
        <time>2010-07-27T16:06:32</time>
      </trkpt>
      <trkpt lat="48.54539" lon="-2.07124">
        <ele>126</ele>
        <time>2010-07-27T16:06:35</time>
      </trkpt>
      <trkpt lat="48.54529" lon="-2.07112">
        <ele>125.5</ele>
        <time>2010-07-27T16:06:38</time>
      </trkpt>
      <trkpt lat="48.54519" lon="-2.07098">
        <ele>125</ele>
        <time>2010-07-27T16:06:41</time>
      </trkpt>
      <trkpt lat="48.54508" lon="-2.07085">
        <ele>125</ele>
        <time>2010-07-27T16:06:44</time>
      </trkpt>
      <trkpt lat="48.54501" lon="-2.07076">
        <ele>124.5</ele>
        <time>2010-07-27T16:06:47</time>
      </trkpt>
      <trkpt lat="48.54487" lon="-2.07059">
        <ele>124</ele>
        <time>2010-07-27T16:06:50</time>
      </trkpt>
      <trkpt lat="48.5448" lon="-2.07051">
        <ele>124</ele>
        <time>2010-07-27T16:06:53</time>
      </trkpt>
      <trkpt lat="48.54471" lon="-2.07038">
        <ele>125.5</ele>
        <time>2010-07-27T16:06:56</time>
      </trkpt>
      <trkpt lat="48.5447" lon="-2.07038">
        <ele>125.5</ele>
        <time>2010-07-27T16:06:59</time>
      </trkpt>
      <trkpt lat="48.5447" lon="-2.07037">
        <ele>126</ele>
        <time>2010-07-27T16:07:02</time>
      </trkpt>
      <trkpt lat="48.5447" lon="-2.07036">
        <ele>126</ele>
        <time>2010-07-27T16:07:06</time>
      </trkpt>
      <trkpt lat="48.54469" lon="-2.07036">
        <ele>125</ele>
        <time>2010-07-27T16:07:11</time>
      </trkpt>
      <trkpt lat="48.54468" lon="-2.07036">
        <ele>124.5</ele>
        <time>2010-07-27T16:07:14</time>
      </trkpt>
      <trkpt lat="48.54468" lon="-2.07035">
        <ele>124.5</ele>
        <time>2010-07-27T16:07:17</time>
      </trkpt>
      <trkpt lat="48.54468" lon="-2.07035">
        <ele>124</ele>
        <time>2010-07-27T16:07:20</time>
      </trkpt>
      <trkpt lat="48.54468" lon="-2.07034">
        <ele>124</ele>
        <time>2010-07-27T16:07:23</time>
      </trkpt>
      <trkpt lat="48.54467" lon="-2.07033">
        <ele>122.5</ele>
        <time>2010-07-27T16:07:26</time>
      </trkpt>
      <trkpt lat="48.54466" lon="-2.07033">
        <ele>121</ele>
        <time>2010-07-27T16:07:29</time>
      </trkpt>
      <trkpt lat="48.54466" lon="-2.07033">
        <ele>120.5</ele>
        <time>2010-07-27T16:07:32</time>
      </trkpt>
      <trkpt lat="48.54466" lon="-2.07033">
        <ele>120.5</ele>
        <time>2010-07-27T16:07:35</time>
      </trkpt>
      <trkpt lat="48.54465" lon="-2.07033">
        <ele>119.5</ele>
        <time>2010-07-27T16:07:38</time>
      </trkpt>
      <trkpt lat="48.54465" lon="-2.07034">
        <ele>118.5</ele>
        <time>2010-07-27T16:07:41</time>
      </trkpt>
      <trkpt lat="48.54464" lon="-2.07034">
        <ele>118.5</ele>
        <time>2010-07-27T16:07:44</time>
      </trkpt>
      <trkpt lat="48.54464" lon="-2.07034">
        <ele>118</ele>
        <time>2010-07-27T16:07:47</time>
      </trkpt>
      <trkpt lat="48.54464" lon="-2.07035">
        <ele>117.5</ele>
        <time>2010-07-27T16:07:50</time>
      </trkpt>
      <trkpt lat="48.54464" lon="-2.07035">
        <ele>117.5</ele>
        <time>2010-07-27T16:07:53</time>
      </trkpt>
      <trkpt lat="48.54464" lon="-2.07035">
        <ele>117</ele>
        <time>2010-07-27T16:07:56</time>
      </trkpt>
      <trkpt lat="48.54464" lon="-2.07035">
        <ele>117.5</ele>
        <time>2010-07-27T16:07:59</time>
      </trkpt>
      <trkpt lat="48.54464" lon="-2.07035">
        <ele>117</ele>
        <time>2010-07-27T16:08:02</time>
      </trkpt>
      <trkpt lat="48.54464" lon="-2.07035">
        <ele>117</ele>
        <time>2010-07-27T16:08:06</time>
      </trkpt>
      <trkpt lat="48.54464" lon="-2.07035">
        <ele>117.5</ele>
        <time>2010-07-27T16:08:09</time>
      </trkpt>
      <trkpt lat="48.54464" lon="-2.07035">
        <ele>117</ele>
        <time>2010-07-27T16:08:12</time>
      </trkpt>
      <trkpt lat="48.54464" lon="-2.07035">
        <ele>117.5</ele>
        <time>2010-07-27T16:08:15</time>
      </trkpt>
      <trkpt lat="48.54464" lon="-2.07034">
        <ele>117.5</ele>
        <time>2010-07-27T16:08:18</time>
      </trkpt>
      <trkpt lat="48.54463" lon="-2.07034">
        <ele>117.5</ele>
        <time>2010-07-27T16:08:21</time>
      </trkpt>
      <trkpt lat="48.54464" lon="-2.07034">
        <ele>117.5</ele>
        <time>2010-07-27T16:08:23</time>
      </trkpt>
      <trkpt lat="48.54464" lon="-2.07034">
        <ele>117.5</ele>
        <time>2010-07-27T16:08:26</time>
      </trkpt>
      <trkpt lat="48.54464" lon="-2.07034">
        <ele>117.5</ele>
        <time>2010-07-27T16:08:29</time>
      </trkpt>
      <trkpt lat="48.54464" lon="-2.07034">
        <ele>117</ele>
        <time>2010-07-27T16:08:32</time>
      </trkpt>
      <trkpt lat="48.54464" lon="-2.07034">
        <ele>117.5</ele>
        <time>2010-07-27T16:08:35</time>
      </trkpt>
      <trkpt lat="48.54464" lon="-2.07033">
        <ele>117.5</ele>
        <time>2010-07-27T16:08:38</time>
      </trkpt>
      <trkpt lat="48.54464" lon="-2.07033">
        <ele>117.5</ele>
        <time>2010-07-27T16:08:41</time>
      </trkpt>
      <trkpt lat="48.54464" lon="-2.07034">
        <ele>117.5</ele>
        <time>2010-07-27T16:08:44</time>
      </trkpt>
      <trkpt lat="48.54464" lon="-2.07034">
        <ele>117.5</ele>
        <time>2010-07-27T16:08:47</time>
      </trkpt>
      <trkpt lat="48.54464" lon="-2.07034">
        <ele>117.5</ele>
        <time>2010-07-27T16:08:50</time>
      </trkpt>
      <trkpt lat="48.54464" lon="-2.07034">
        <ele>117.5</ele>
        <time>2010-07-27T16:08:53</time>
      </trkpt>
      <trkpt lat="48.54464" lon="-2.07034">
        <ele>118</ele>
        <time>2010-07-27T16:08:56</time>
      </trkpt>
      <trkpt lat="48.5445" lon="-2.07014">
        <ele>120.5</ele>
        <time>2010-07-27T16:09:00</time>
      </trkpt>
      <trkpt lat="48.54441" lon="-2.07002">
        <ele>120</ele>
        <time>2010-07-27T16:09:03</time>
      </trkpt>
      <trkpt lat="48.54431" lon="-2.06989">
        <ele>120.5</ele>
        <time>2010-07-27T16:09:05</time>
      </trkpt>
      <trkpt lat="48.54422" lon="-2.06977">
        <ele>120</ele>
        <time>2010-07-27T16:09:08</time>
      </trkpt>
      <trkpt lat="48.54414" lon="-2.0697">
        <ele>120.5</ele>
        <time>2010-07-27T16:09:11</time>
      </trkpt>
      <trkpt lat="48.54407" lon="-2.06965">
        <ele>119.5</ele>
        <time>2010-07-27T16:09:15</time>
      </trkpt>
      <trkpt lat="48.54399" lon="-2.06949">
        <ele>119</ele>
        <time>2010-07-27T16:09:17</time>
      </trkpt>
      <trkpt lat="48.54388" lon="-2.06926">
        <ele>119</ele>
        <time>2010-07-27T16:09:21</time>
      </trkpt>
      <trkpt lat="48.54378" lon="-2.069">
        <ele>119</ele>
        <time>2010-07-27T16:09:23</time>
      </trkpt>
      <trkpt lat="48.54357" lon="-2.06871">
        <ele>119</ele>
        <time>2010-07-27T16:09:27</time>
      </trkpt>
      <trkpt lat="48.54346" lon="-2.06858">
        <ele>119.5</ele>
        <time>2010-07-27T16:09:30</time>
      </trkpt>
      <trkpt lat="48.54349" lon="-2.06858">
        <ele>119.5</ele>
        <time>2010-07-27T16:09:33</time>
      </trkpt>
      <trkpt lat="48.54346" lon="-2.0686">
        <ele>118.5</ele>
        <time>2010-07-27T16:09:36</time>
      </trkpt>
      <trkpt lat="48.54345" lon="-2.06869">
        <ele>118</ele>
        <time>2010-07-27T16:09:39</time>
      </trkpt>
      <trkpt lat="48.54347" lon="-2.06882">
        <ele>117</ele>
        <time>2010-07-27T16:09:42</time>
      </trkpt>
      <trkpt lat="48.54344" lon="-2.06898">
        <ele>117</ele>
        <time>2010-07-27T16:09:45</time>
      </trkpt>
      <trkpt lat="48.54338" lon="-2.06912">
        <ele>117</ele>
        <time>2010-07-27T16:09:48</time>
      </trkpt>
      <trkpt lat="48.5432" lon="-2.06926">
        <ele>117.5</ele>
        <time>2010-07-27T16:09:51</time>
      </trkpt>
      <trkpt lat="48.54308" lon="-2.06942">
        <ele>117.5</ele>
        <time>2010-07-27T16:09:54</time>
      </trkpt>
      <trkpt lat="48.54303" lon="-2.06954">
        <ele>118</ele>
        <time>2010-07-27T16:09:57</time>
      </trkpt>
      <trkpt lat="48.54302" lon="-2.06962">
        <ele>118</ele>
        <time>2010-07-27T16:10:00</time>
      </trkpt>
      <trkpt lat="48.54302" lon="-2.06968">
        <ele>117.5</ele>
        <time>2010-07-27T16:10:03</time>
      </trkpt>
      <trkpt lat="48.54301" lon="-2.06981">
        <ele>116.5</ele>
        <time>2010-07-27T16:10:06</time>
      </trkpt>
      <trkpt lat="48.54299" lon="-2.07003">
        <ele>115</ele>
        <time>2010-07-27T16:10:11</time>
      </trkpt>
      <trkpt lat="48.54294" lon="-2.07016">
        <ele>115</ele>
        <time>2010-07-27T16:10:14</time>
      </trkpt>
      <trkpt lat="48.54294" lon="-2.07027">
        <ele>114.5</ele>
        <time>2010-07-27T16:10:17</time>
      </trkpt>
      <trkpt lat="48.54293" lon="-2.07036">
        <ele>114</ele>
        <time>2010-07-27T16:10:20</time>
      </trkpt>
      <trkpt lat="48.54291" lon="-2.07045">
        <ele>113.5</ele>
        <time>2010-07-27T16:10:23</time>
      </trkpt>
      <trkpt lat="48.5428" lon="-2.07053">
        <ele>114</ele>
        <time>2010-07-27T16:10:26</time>
      </trkpt>
      <trkpt lat="48.54276" lon="-2.07061">
        <ele>114</ele>
        <time>2010-07-27T16:10:29</time>
      </trkpt>
      <trkpt lat="48.54267" lon="-2.0707">
        <ele>114.5</ele>
        <time>2010-07-27T16:10:32</time>
      </trkpt>
      <trkpt lat="48.54262" lon="-2.07079">
        <ele>114.5</ele>
        <time>2010-07-27T16:10:35</time>
      </trkpt>
      <trkpt lat="48.54258" lon="-2.07092">
        <ele>114.5</ele>
        <time>2010-07-27T16:10:38</time>
      </trkpt>
      <trkpt lat="48.54254" lon="-2.07105">
        <ele>114</ele>
        <time>2010-07-27T16:10:41</time>
      </trkpt>
      <trkpt lat="48.54248" lon="-2.07122">
        <ele>113</ele>
        <time>2010-07-27T16:10:44</time>
      </trkpt>
      <trkpt lat="48.54236" lon="-2.07139">
        <ele>112.5</ele>
        <time>2010-07-27T16:10:48</time>
      </trkpt>
      <trkpt lat="48.54229" lon="-2.07158">
        <ele>113</ele>
        <time>2010-07-27T16:10:51</time>
      </trkpt>
      <trkpt lat="48.54226" lon="-2.07174">
        <ele>111.5</ele>
        <time>2010-07-27T16:10:53</time>
      </trkpt>
      <trkpt lat="48.54224" lon="-2.07187">
        <ele>110</ele>
        <time>2010-07-27T16:10:56</time>
      </trkpt>
      <trkpt lat="48.54219" lon="-2.07197">
        <ele>108.5</ele>
        <time>2010-07-27T16:10:59</time>
      </trkpt>
      <trkpt lat="48.54192" lon="-2.07208">
        <ele>106.5</ele>
        <time>2010-07-27T16:11:03</time>
      </trkpt>
      <trkpt lat="48.54185" lon="-2.07215">
        <ele>105.5</ele>
        <time>2010-07-27T16:11:06</time>
      </trkpt>
      <trkpt lat="48.54177" lon="-2.07221">
        <ele>106</ele>
        <time>2010-07-27T16:11:09</time>
      </trkpt>
      <trkpt lat="48.5416" lon="-2.07227">
        <ele>109</ele>
        <time>2010-07-27T16:11:12</time>
      </trkpt>
      <trkpt lat="48.54153" lon="-2.07232">
        <ele>110</ele>
        <time>2010-07-27T16:11:15</time>
      </trkpt>
      <trkpt lat="48.5415" lon="-2.07235">
        <ele>110.5</ele>
        <time>2010-07-27T16:11:18</time>
      </trkpt>
      <trkpt lat="48.54143" lon="-2.07237">
        <ele>110</ele>
        <time>2010-07-27T16:11:21</time>
      </trkpt>
      <trkpt lat="48.5414" lon="-2.07238">
        <ele>111</ele>
        <time>2010-07-27T16:11:24</time>
      </trkpt>
      <trkpt lat="48.54139" lon="-2.07238">
        <ele>112</ele>
        <time>2010-07-27T16:11:27</time>
      </trkpt>
      <trkpt lat="48.5414" lon="-2.07238">
        <ele>112</ele>
        <time>2010-07-27T16:11:30</time>
      </trkpt>
      <trkpt lat="48.54137" lon="-2.07238">
        <ele>111</ele>
        <time>2010-07-27T16:11:33</time>
      </trkpt>
      <trkpt lat="48.54135" lon="-2.07238">
        <ele>111.5</ele>
        <time>2010-07-27T16:11:36</time>
      </trkpt>
      <trkpt lat="48.54133" lon="-2.07238">
        <ele>112</ele>
        <time>2010-07-27T16:11:39</time>
      </trkpt>
      <trkpt lat="48.54131" lon="-2.07238">
        <ele>112</ele>
        <time>2010-07-27T16:11:42</time>
      </trkpt>
      <trkpt lat="48.54127" lon="-2.07239">
        <ele>110.5</ele>
        <time>2010-07-27T16:11:45</time>
      </trkpt>
      <trkpt lat="48.54127" lon="-2.07239">
        <ele>111.5</ele>
        <time>2010-07-27T16:11:48</time>
      </trkpt>
      <trkpt lat="48.54125" lon="-2.07239">
        <ele>111.5</ele>
        <time>2010-07-27T16:11:51</time>
      </trkpt>
      <trkpt lat="48.54124" lon="-2.07239">
        <ele>112</ele>
        <time>2010-07-27T16:11:54</time>
      </trkpt>
      <trkpt lat="48.5412" lon="-2.07239">
        <ele>112</ele>
        <time>2010-07-27T16:11:57</time>
      </trkpt>
      <trkpt lat="48.54118" lon="-2.0724">
        <ele>112</ele>
        <time>2010-07-27T16:12:00</time>
      </trkpt>
      <trkpt lat="48.54115" lon="-2.0724">
        <ele>111.5</ele>
        <time>2010-07-27T16:12:03</time>
      </trkpt>
      <trkpt lat="48.54114" lon="-2.0724">
        <ele>111</ele>
        <time>2010-07-27T16:12:06</time>
      </trkpt>
      <trkpt lat="48.54111" lon="-2.0724">
        <ele>111</ele>
        <time>2010-07-27T16:12:09</time>
      </trkpt>
      <trkpt lat="48.54106" lon="-2.07241">
        <ele>111</ele>
        <time>2010-07-27T16:12:12</time>
      </trkpt>
      <trkpt lat="48.54096" lon="-2.07241">
        <ele>114.5</ele>
        <time>2010-07-27T16:12:15</time>
      </trkpt>
      <trkpt lat="48.54094" lon="-2.07241">
        <ele>114.5</ele>
        <time>2010-07-27T16:12:18</time>
      </trkpt>
      <trkpt lat="48.5409" lon="-2.07241">
        <ele>114.5</ele>
        <time>2010-07-27T16:12:21</time>
      </trkpt>
      <trkpt lat="48.54085" lon="-2.07242">
        <ele>116</ele>
        <time>2010-07-27T16:12:24</time>
      </trkpt>
      <trkpt lat="48.5408" lon="-2.07243">
        <ele>117</ele>
        <time>2010-07-27T16:12:27</time>
      </trkpt>
      <trkpt lat="48.54077" lon="-2.07243">
        <ele>118.5</ele>
        <time>2010-07-27T16:12:30</time>
      </trkpt>
      <trkpt lat="48.54076" lon="-2.07244">
        <ele>118.5</ele>
        <time>2010-07-27T16:12:33</time>
      </trkpt>
      <trkpt lat="48.54044" lon="-2.07258">
        <ele>116.5</ele>
        <time>2010-07-27T16:12:36</time>
      </trkpt>
      <trkpt lat="48.54031" lon="-2.0726">
        <ele>115.5</ele>
        <time>2010-07-27T16:12:39</time>
      </trkpt>
      <trkpt lat="48.54022" lon="-2.07263">
        <ele>115.5</ele>
        <time>2010-07-27T16:12:42</time>
      </trkpt>
      <trkpt lat="48.54013" lon="-2.07265">
        <ele>114.5</ele>
        <time>2010-07-27T16:12:45</time>
      </trkpt>
      <trkpt lat="48.54004" lon="-2.07268">
        <ele>114.5</ele>
        <time>2010-07-27T16:12:48</time>
      </trkpt>
      <trkpt lat="48.54005" lon="-2.07274">
        <ele>113.5</ele>
        <time>2010-07-27T16:12:51</time>
      </trkpt>
      <trkpt lat="48.54005" lon="-2.07284">
        <ele>113</ele>
        <time>2010-07-27T16:12:54</time>
      </trkpt>
      <trkpt lat="48.54005" lon="-2.0729">
        <ele>112</ele>
        <time>2010-07-27T16:12:57</time>
      </trkpt>
      <trkpt lat="48.54002" lon="-2.07292">
        <ele>111.5</ele>
        <time>2010-07-27T16:13:00</time>
      </trkpt>
      <trkpt lat="48.54" lon="-2.0729">
        <ele>111.5</ele>
        <time>2010-07-27T16:13:03</time>
      </trkpt>
      <trkpt lat="48.53998" lon="-2.07289">
        <ele>111.5</ele>
        <time>2010-07-27T16:13:06</time>
      </trkpt>
      <trkpt lat="48.53996" lon="-2.07287">
        <ele>111.5</ele>
        <time>2010-07-27T16:13:09</time>
      </trkpt>
      <trkpt lat="48.53992" lon="-2.07285">
        <ele>111.5</ele>
        <time>2010-07-27T16:13:12</time>
      </trkpt>
      <trkpt lat="48.5399" lon="-2.07286">
        <ele>112</ele>
        <time>2010-07-27T16:13:15</time>
      </trkpt>
      <trkpt lat="48.53987" lon="-2.07291">
        <ele>111.5</ele>
        <time>2010-07-27T16:13:18</time>
      </trkpt>
      <trkpt lat="48.53987" lon="-2.07297">
        <ele>111</ele>
        <time>2010-07-27T16:13:21</time>
      </trkpt>
      <trkpt lat="48.53986" lon="-2.07303">
        <ele>110.5</ele>
        <time>2010-07-27T16:13:24</time>
      </trkpt>
      <trkpt lat="48.53985" lon="-2.07309">
        <ele>110.5</ele>
        <time>2010-07-27T16:13:27</time>
      </trkpt>
      <trkpt lat="48.53979" lon="-2.07311">
        <ele>110.5</ele>
        <time>2010-07-27T16:13:30</time>
      </trkpt>
      <trkpt lat="48.53975" lon="-2.07309">
        <ele>110.5</ele>
        <time>2010-07-27T16:13:33</time>
      </trkpt>
      <trkpt lat="48.53969" lon="-2.07306">
        <ele>110.5</ele>
        <time>2010-07-27T16:13:36</time>
      </trkpt>
      <trkpt lat="48.53958" lon="-2.073">
        <ele>111</ele>
        <time>2010-07-27T16:13:39</time>
      </trkpt>
      <trkpt lat="48.53953" lon="-2.07296">
        <ele>111</ele>
        <time>2010-07-27T16:13:42</time>
      </trkpt>
      <trkpt lat="48.5395" lon="-2.07294">
        <ele>111</ele>
        <time>2010-07-27T16:13:45</time>
      </trkpt>
      <trkpt lat="48.53948" lon="-2.07291">
        <ele>111.5</ele>
        <time>2010-07-27T16:13:48</time>
      </trkpt>
      <trkpt lat="48.53946" lon="-2.0729">
        <ele>112</ele>
        <time>2010-07-27T16:13:51</time>
      </trkpt>
      <trkpt lat="48.53942" lon="-2.0729">
        <ele>112.5</ele>
        <time>2010-07-27T16:13:54</time>
      </trkpt>
      <trkpt lat="48.53939" lon="-2.07289">
        <ele>113.5</ele>
        <time>2010-07-27T16:13:57</time>
      </trkpt>
      <trkpt lat="48.53933" lon="-2.07289">
        <ele>113.5</ele>
        <time>2010-07-27T16:14:00</time>
      </trkpt>
      <trkpt lat="48.53931" lon="-2.07288">
        <ele>114</ele>
        <time>2010-07-27T16:14:03</time>
      </trkpt>
      <trkpt lat="48.53926" lon="-2.07287">
        <ele>113.5</ele>
        <time>2010-07-27T16:14:06</time>
      </trkpt>
      <trkpt lat="48.53923" lon="-2.07286">
        <ele>113.5</ele>
        <time>2010-07-27T16:14:09</time>
      </trkpt>
      <trkpt lat="48.53924" lon="-2.07285">
        <ele>113</ele>
        <time>2010-07-27T16:14:12</time>
      </trkpt>
      <trkpt lat="48.5392" lon="-2.07283">
        <ele>114</ele>
        <time>2010-07-27T16:14:15</time>
      </trkpt>
      <trkpt lat="48.53918" lon="-2.07281">
        <ele>113.5</ele>
        <time>2010-07-27T16:14:18</time>
      </trkpt>
      <trkpt lat="48.53913" lon="-2.07279">
        <ele>113.5</ele>
        <time>2010-07-27T16:14:21</time>
      </trkpt>
      <trkpt lat="48.53906" lon="-2.07277">
        <ele>114</ele>
        <time>2010-07-27T16:14:24</time>
      </trkpt>
      <trkpt lat="48.53902" lon="-2.07274">
        <ele>113.5</ele>
        <time>2010-07-27T16:14:27</time>
      </trkpt>
      <trkpt lat="48.53898" lon="-2.07273">
        <ele>113.5</ele>
        <time>2010-07-27T16:14:30</time>
      </trkpt>
      <trkpt lat="48.53889" lon="-2.07272">
        <ele>114.5</ele>
        <time>2010-07-27T16:14:33</time>
      </trkpt>
      <trkpt lat="48.53886" lon="-2.07273">
        <ele>114</ele>
        <time>2010-07-27T16:14:36</time>
      </trkpt>
      <trkpt lat="48.53887" lon="-2.07272">
        <ele>113</ele>
        <time>2010-07-27T16:14:39</time>
      </trkpt>
      <trkpt lat="48.53885" lon="-2.07272">
        <ele>112.5</ele>
        <time>2010-07-27T16:14:42</time>
      </trkpt>
      <trkpt lat="48.53879" lon="-2.07274">
        <ele>111.5</ele>
        <time>2010-07-27T16:14:45</time>
      </trkpt>
      <trkpt lat="48.53875" lon="-2.07276">
        <ele>111</ele>
        <time>2010-07-27T16:14:48</time>
      </trkpt>
      <trkpt lat="48.5387" lon="-2.07277">
        <ele>110.5</ele>
        <time>2010-07-27T16:14:51</time>
      </trkpt>
      <trkpt lat="48.53872" lon="-2.07278">
        <ele>111</ele>
        <time>2010-07-27T16:14:54</time>
      </trkpt>
      <trkpt lat="48.53864" lon="-2.07281">
        <ele>112</ele>
        <time>2010-07-27T16:14:57</time>
      </trkpt>
      <trkpt lat="48.53861" lon="-2.07283">
        <ele>111</ele>
        <time>2010-07-27T16:15:00</time>
      </trkpt>
      <trkpt lat="48.53859" lon="-2.07284">
        <ele>110.5</ele>
        <time>2010-07-27T16:15:03</time>
      </trkpt>
      <trkpt lat="48.53848" lon="-2.07286">
        <ele>111</ele>
        <time>2010-07-27T16:15:06</time>
      </trkpt>
      <trkpt lat="48.53843" lon="-2.07287">
        <ele>111.5</ele>
        <time>2010-07-27T16:15:09</time>
      </trkpt>
      <trkpt lat="48.53832" lon="-2.07289">
        <ele>113</ele>
        <time>2010-07-27T16:15:12</time>
      </trkpt>
      <trkpt lat="48.53821" lon="-2.07291">
        <ele>113.5</ele>
        <time>2010-07-27T16:15:15</time>
      </trkpt>
      <trkpt lat="48.5382" lon="-2.07294">
        <ele>113.5</ele>
        <time>2010-07-27T16:15:18</time>
      </trkpt>
      <trkpt lat="48.5382" lon="-2.07294">
        <ele>112</ele>
        <time>2010-07-27T16:15:21</time>
      </trkpt>
      <trkpt lat="48.53816" lon="-2.07296">
        <ele>111.5</ele>
        <time>2010-07-27T16:15:24</time>
      </trkpt>
      <trkpt lat="48.5381" lon="-2.07297">
        <ele>111</ele>
        <time>2010-07-27T16:15:27</time>
      </trkpt>
      <trkpt lat="48.5381" lon="-2.07297">
        <ele>111</ele>
        <time>2010-07-27T16:15:30</time>
      </trkpt>
      <trkpt lat="48.53807" lon="-2.07299">
        <ele>111</ele>
        <time>2010-07-27T16:15:33</time>
      </trkpt>
      <trkpt lat="48.53796" lon="-2.07301">
        <ele>111.5</ele>
        <time>2010-07-27T16:15:36</time>
      </trkpt>
      <trkpt lat="48.5378" lon="-2.07304">
        <ele>112.5</ele>
        <time>2010-07-27T16:15:39</time>
      </trkpt>
      <trkpt lat="48.5377" lon="-2.07307">
        <ele>112.5</ele>
        <time>2010-07-27T16:15:42</time>
      </trkpt>
      <trkpt lat="48.53758" lon="-2.07309">
        <ele>114</ele>
        <time>2010-07-27T16:15:45</time>
      </trkpt>
      <trkpt lat="48.53747" lon="-2.07311">
        <ele>114.5</ele>
        <time>2010-07-27T16:15:48</time>
      </trkpt>
      <trkpt lat="48.53735" lon="-2.07313">
        <ele>114.5</ele>
        <time>2010-07-27T16:15:51</time>
      </trkpt>
      <trkpt lat="48.53731" lon="-2.07315">
        <ele>114.5</ele>
        <time>2010-07-27T16:15:54</time>
      </trkpt>
      <trkpt lat="48.53718" lon="-2.07318">
        <ele>114</ele>
        <time>2010-07-27T16:15:57</time>
      </trkpt>
      <trkpt lat="48.53711" lon="-2.0732">
        <ele>114.5</ele>
        <time>2010-07-27T16:16:00</time>
      </trkpt>
      <trkpt lat="48.53704" lon="-2.07321">
        <ele>114.5</ele>
        <time>2010-07-27T16:16:03</time>
      </trkpt>
      <trkpt lat="48.53698" lon="-2.0732">
        <ele>115.5</ele>
        <time>2010-07-27T16:16:06</time>
      </trkpt>
      <trkpt lat="48.53696" lon="-2.07318">
        <ele>115.5</ele>
        <time>2010-07-27T16:16:09</time>
      </trkpt>
      <trkpt lat="48.53692" lon="-2.0732">
        <ele>115.5</ele>
        <time>2010-07-27T16:16:12</time>
      </trkpt>
      <trkpt lat="48.53685" lon="-2.07321">
        <ele>114.5</ele>
        <time>2010-07-27T16:16:15</time>
      </trkpt>
      <trkpt lat="48.53678" lon="-2.07323">
        <ele>115</ele>
        <time>2010-07-27T16:16:18</time>
      </trkpt>
      <trkpt lat="48.5367" lon="-2.07323">
        <ele>116</ele>
        <time>2010-07-27T16:16:21</time>
      </trkpt>
      <trkpt lat="48.53663" lon="-2.07324">
        <ele>116</ele>
        <time>2010-07-27T16:16:24</time>
      </trkpt>
      <trkpt lat="48.53657" lon="-2.07324">
        <ele>116</ele>
        <time>2010-07-27T16:16:27</time>
      </trkpt>
      <trkpt lat="48.53653" lon="-2.07324">
        <ele>113.5</ele>
        <time>2010-07-27T16:16:30</time>
      </trkpt>
      <trkpt lat="48.53646" lon="-2.07326">
        <ele>113.5</ele>
        <time>2010-07-27T16:16:33</time>
      </trkpt>
      <trkpt lat="48.5364" lon="-2.0733">
        <ele>114</ele>
        <time>2010-07-27T16:16:36</time>
      </trkpt>
      <trkpt lat="48.53637" lon="-2.07334">
        <ele>114.5</ele>
        <time>2010-07-27T16:16:39</time>
      </trkpt>
      <trkpt lat="48.53631" lon="-2.07338">
        <ele>114</ele>
        <time>2010-07-27T16:16:42</time>
      </trkpt>
      <trkpt lat="48.53627" lon="-2.07344">
        <ele>114.5</ele>
        <time>2010-07-27T16:16:45</time>
      </trkpt>
      <trkpt lat="48.53617" lon="-2.07349">
        <ele>117.5</ele>
        <time>2010-07-27T16:16:48</time>
      </trkpt>
      <trkpt lat="48.53611" lon="-2.07354">
        <ele>117.5</ele>
        <time>2010-07-27T16:16:51</time>
      </trkpt>
      <trkpt lat="48.53605" lon="-2.0736">
        <ele>118.5</ele>
        <time>2010-07-27T16:16:54</time>
      </trkpt>
      <trkpt lat="48.53599" lon="-2.07363">
        <ele>118.5</ele>
        <time>2010-07-27T16:16:57</time>
      </trkpt>
      <trkpt lat="48.53597" lon="-2.07364">
        <ele>119</ele>
        <time>2010-07-27T16:17:00</time>
      </trkpt>
      <trkpt lat="48.53592" lon="-2.07367">
        <ele>117.5</ele>
        <time>2010-07-27T16:17:03</time>
      </trkpt>
      <trkpt lat="48.5359" lon="-2.07368">
        <ele>118</ele>
        <time>2010-07-27T16:17:06</time>
      </trkpt>
      <trkpt lat="48.53585" lon="-2.0737">
        <ele>120</ele>
        <time>2010-07-27T16:17:09</time>
      </trkpt>
      <trkpt lat="48.53584" lon="-2.07371">
        <ele>121</ele>
        <time>2010-07-27T16:17:12</time>
      </trkpt>
      <trkpt lat="48.53583" lon="-2.07372">
        <ele>121.5</ele>
        <time>2010-07-27T16:17:15</time>
      </trkpt>
      <trkpt lat="48.53584" lon="-2.07373">
        <ele>122</ele>
        <time>2010-07-27T16:17:18</time>
      </trkpt>
      <trkpt lat="48.53583" lon="-2.07375">
        <ele>122.5</ele>
        <time>2010-07-27T16:17:21</time>
      </trkpt>
      <trkpt lat="48.53584" lon="-2.07375">
        <ele>124</ele>
        <time>2010-07-27T16:17:24</time>
      </trkpt>
      <trkpt lat="48.53582" lon="-2.07377">
        <ele>123.5</ele>
        <time>2010-07-27T16:17:27</time>
      </trkpt>
      <trkpt lat="48.53581" lon="-2.07378">
        <ele>123.5</ele>
        <time>2010-07-27T16:17:30</time>
      </trkpt>
      <trkpt lat="48.53577" lon="-2.07378">
        <ele>126.5</ele>
        <time>2010-07-27T16:17:33</time>
      </trkpt>
      <trkpt lat="48.53575" lon="-2.07378">
        <ele>128.5</ele>
        <time>2010-07-27T16:17:36</time>
      </trkpt>
      <trkpt lat="48.53574" lon="-2.07377">
        <ele>129</ele>
        <time>2010-07-27T16:17:39</time>
      </trkpt>
      <trkpt lat="48.53573" lon="-2.07377">
        <ele>129</ele>
        <time>2010-07-27T16:17:42</time>
      </trkpt>
      <trkpt lat="48.53573" lon="-2.07376">
        <ele>128.5</ele>
        <time>2010-07-27T16:17:45</time>
      </trkpt>
      <trkpt lat="48.53572" lon="-2.07376">
        <ele>128.5</ele>
        <time>2010-07-27T16:17:48</time>
      </trkpt>
      <trkpt lat="48.53571" lon="-2.07377">
        <ele>128</ele>
        <time>2010-07-27T16:17:51</time>
      </trkpt>
      <trkpt lat="48.53571" lon="-2.07377">
        <ele>127.5</ele>
        <time>2010-07-27T16:17:54</time>
      </trkpt>
      <trkpt lat="48.53571" lon="-2.07377">
        <ele>127.5</ele>
        <time>2010-07-27T16:17:57</time>
      </trkpt>
      <trkpt lat="48.5357" lon="-2.07378">
        <ele>127.5</ele>
        <time>2010-07-27T16:18:00</time>
      </trkpt>
      <trkpt lat="48.53569" lon="-2.07378">
        <ele>127.5</ele>
        <time>2010-07-27T16:18:03</time>
      </trkpt>
      <trkpt lat="48.53569" lon="-2.07378">
        <ele>127</ele>
        <time>2010-07-27T16:18:06</time>
      </trkpt>
      <trkpt lat="48.53568" lon="-2.07379">
        <ele>127</ele>
        <time>2010-07-27T16:18:09</time>
      </trkpt>
      <trkpt lat="48.53568" lon="-2.0738">
        <ele>126.5</ele>
        <time>2010-07-27T16:18:12</time>
      </trkpt>
      <trkpt lat="48.53567" lon="-2.0738">
        <ele>126.5</ele>
        <time>2010-07-27T16:18:15</time>
      </trkpt>
      <trkpt lat="48.53566" lon="-2.07381">
        <ele>126.5</ele>
        <time>2010-07-27T16:18:18</time>
      </trkpt>
      <trkpt lat="48.53561" lon="-2.07386">
        <ele>126</ele>
        <time>2010-07-27T16:18:24</time>
      </trkpt>
      <trkpt lat="48.53561" lon="-2.07387">
        <ele>125.5</ele>
        <time>2010-07-27T16:18:27</time>
      </trkpt>
      <trkpt lat="48.5356" lon="-2.07388">
        <ele>125</ele>
        <time>2010-07-27T16:18:30</time>
      </trkpt>
      <trkpt lat="48.53559" lon="-2.07389">
        <ele>125</ele>
        <time>2010-07-27T16:18:33</time>
      </trkpt>
      <trkpt lat="48.53558" lon="-2.0739">
        <ele>124.5</ele>
        <time>2010-07-27T16:18:36</time>
      </trkpt>
      <trkpt lat="48.53558" lon="-2.07391">
        <ele>124</ele>
        <time>2010-07-27T16:18:39</time>
      </trkpt>
      <trkpt lat="48.53557" lon="-2.07392">
        <ele>124</ele>
        <time>2010-07-27T16:18:42</time>
      </trkpt>
      <trkpt lat="48.53557" lon="-2.07393">
        <ele>123.5</ele>
        <time>2010-07-27T16:18:45</time>
      </trkpt>
      <trkpt lat="48.53557" lon="-2.07394">
        <ele>123</ele>
        <time>2010-07-27T16:18:48</time>
      </trkpt>
      <trkpt lat="48.53556" lon="-2.07396">
        <ele>122.5</ele>
        <time>2010-07-27T16:18:54</time>
      </trkpt>
      <trkpt lat="48.53555" lon="-2.07397">
        <ele>122.5</ele>
        <time>2010-07-27T16:18:57</time>
      </trkpt>
      <trkpt lat="48.53555" lon="-2.07398">
        <ele>122.5</ele>
        <time>2010-07-27T16:19:00</time>
      </trkpt>
      <trkpt lat="48.53554" lon="-2.074">
        <ele>122</ele>
        <time>2010-07-27T16:19:06</time>
      </trkpt>
      <trkpt lat="48.53554" lon="-2.07401">
        <ele>122</ele>
        <time>2010-07-27T16:19:09</time>
      </trkpt>
      <trkpt lat="48.53552" lon="-2.07401">
        <ele>122</ele>
        <time>2010-07-27T16:19:12</time>
      </trkpt>
      <trkpt lat="48.53551" lon="-2.07402">
        <ele>122.5</ele>
        <time>2010-07-27T16:19:15</time>
      </trkpt>
      <trkpt lat="48.53525" lon="-2.07455">
        <ele>130</ele>
        <time>2010-07-27T16:19:18</time>
      </trkpt>
      <trkpt lat="48.53522" lon="-2.07459">
        <ele>130</ele>
        <time>2010-07-27T16:19:21</time>
      </trkpt>
      <trkpt lat="48.53519" lon="-2.07465">
        <ele>129.5</ele>
        <time>2010-07-27T16:19:24</time>
      </trkpt>
      <trkpt lat="48.53515" lon="-2.0747">
        <ele>129</ele>
        <time>2010-07-27T16:19:27</time>
      </trkpt>
      <trkpt lat="48.53514" lon="-2.07473">
        <ele>129</ele>
        <time>2010-07-27T16:19:30</time>
      </trkpt>
      <trkpt lat="48.53511" lon="-2.0748">
        <ele>128.5</ele>
        <time>2010-07-27T16:19:33</time>
      </trkpt>
      <trkpt lat="48.53508" lon="-2.07486">
        <ele>127.5</ele>
        <time>2010-07-27T16:19:36</time>
      </trkpt>
      <trkpt lat="48.53504" lon="-2.07492">
        <ele>127.5</ele>
        <time>2010-07-27T16:19:39</time>
      </trkpt>
      <trkpt lat="48.53501" lon="-2.07502">
        <ele>126.5</ele>
        <time>2010-07-27T16:19:42</time>
      </trkpt>
      <trkpt lat="48.53497" lon="-2.07513">
        <ele>125.5</ele>
        <time>2010-07-27T16:19:45</time>
      </trkpt>
      <trkpt lat="48.53493" lon="-2.07523">
        <ele>125</ele>
        <time>2010-07-27T16:19:48</time>
      </trkpt>
      <trkpt lat="48.53489" lon="-2.07532">
        <ele>125</ele>
        <time>2010-07-27T16:19:51</time>
      </trkpt>
      <trkpt lat="48.53479" lon="-2.07541">
        <ele>125</ele>
        <time>2010-07-27T16:19:54</time>
      </trkpt>
      <trkpt lat="48.53475" lon="-2.07552">
        <ele>126</ele>
        <time>2010-07-27T16:19:58</time>
      </trkpt>
      <trkpt lat="48.53468" lon="-2.07561">
        <ele>127.5</ele>
        <time>2010-07-27T16:20:00</time>
      </trkpt>
      <trkpt lat="48.53462" lon="-2.0757">
        <ele>127.5</ele>
        <time>2010-07-27T16:20:03</time>
      </trkpt>
      <trkpt lat="48.53457" lon="-2.07579">
        <ele>128.5</ele>
        <time>2010-07-27T16:20:06</time>
      </trkpt>
      <trkpt lat="48.53452" lon="-2.07586">
        <ele>128.5</ele>
        <time>2010-07-27T16:20:09</time>
      </trkpt>
      <trkpt lat="48.53448" lon="-2.07594">
        <ele>128.5</ele>
        <time>2010-07-27T16:20:12</time>
      </trkpt>
      <trkpt lat="48.53444" lon="-2.07602">
        <ele>128.5</ele>
        <time>2010-07-27T16:20:15</time>
      </trkpt>
      <trkpt lat="48.53441" lon="-2.0761">
        <ele>127.5</ele>
        <time>2010-07-27T16:20:18</time>
      </trkpt>
      <trkpt lat="48.53439" lon="-2.07616">
        <ele>127.5</ele>
        <time>2010-07-27T16:20:21</time>
      </trkpt>
      <trkpt lat="48.53435" lon="-2.0762">
        <ele>127.5</ele>
        <time>2010-07-27T16:20:24</time>
      </trkpt>
      <trkpt lat="48.53427" lon="-2.07619">
        <ele>127.5</ele>
        <time>2010-07-27T16:20:27</time>
      </trkpt>
      <trkpt lat="48.53418" lon="-2.07614">
        <ele>128</ele>
        <time>2010-07-27T16:20:30</time>
      </trkpt>
      <trkpt lat="48.53408" lon="-2.0761">
        <ele>128</ele>
        <time>2010-07-27T16:20:33</time>
      </trkpt>
      <trkpt lat="48.53396" lon="-2.07605">
        <ele>128</ele>
        <time>2010-07-27T16:20:36</time>
      </trkpt>
      <trkpt lat="48.53383" lon="-2.076">
        <ele>128</ele>
        <time>2010-07-27T16:20:39</time>
      </trkpt>
      <trkpt lat="48.5337" lon="-2.07593">
        <ele>127.5</ele>
        <time>2010-07-27T16:20:42</time>
      </trkpt>
      <trkpt lat="48.53357" lon="-2.07587">
        <ele>128.5</ele>
        <time>2010-07-27T16:20:45</time>
      </trkpt>
      <trkpt lat="48.53345" lon="-2.07581">
        <ele>128.5</ele>
        <time>2010-07-27T16:20:48</time>
      </trkpt>
      <trkpt lat="48.53335" lon="-2.07575">
        <ele>127.5</ele>
        <time>2010-07-27T16:20:51</time>
      </trkpt>
      <trkpt lat="48.53324" lon="-2.07567">
        <ele>127.5</ele>
        <time>2010-07-27T16:20:54</time>
      </trkpt>
      <trkpt lat="48.5331" lon="-2.07561">
        <ele>127</ele>
        <time>2010-07-27T16:20:57</time>
      </trkpt>
      <trkpt lat="48.53296" lon="-2.07555">
        <ele>127</ele>
        <time>2010-07-27T16:21:00</time>
      </trkpt>
      <trkpt lat="48.5328" lon="-2.07548">
        <ele>127.5</ele>
        <time>2010-07-27T16:21:03</time>
      </trkpt>
      <trkpt lat="48.53265" lon="-2.0754">
        <ele>127</ele>
        <time>2010-07-27T16:21:06</time>
      </trkpt>
      <trkpt lat="48.53249" lon="-2.07531">
        <ele>127</ele>
        <time>2010-07-27T16:21:09</time>
      </trkpt>
      <trkpt lat="48.53235" lon="-2.07522">
        <ele>127.5</ele>
        <time>2010-07-27T16:21:12</time>
      </trkpt>
      <trkpt lat="48.53221" lon="-2.07513">
        <ele>128</ele>
        <time>2010-07-27T16:21:15</time>
      </trkpt>
      <trkpt lat="48.53207" lon="-2.07502">
        <ele>128</ele>
        <time>2010-07-27T16:21:18</time>
      </trkpt>
      <trkpt lat="48.53192" lon="-2.0749">
        <ele>128</ele>
        <time>2010-07-27T16:21:21</time>
      </trkpt>
      <trkpt lat="48.53178" lon="-2.07478">
        <ele>128</ele>
        <time>2010-07-27T16:21:24</time>
      </trkpt>
      <trkpt lat="48.53162" lon="-2.07464">
        <ele>128</ele>
        <time>2010-07-27T16:21:27</time>
      </trkpt>
      <trkpt lat="48.53147" lon="-2.0745">
        <ele>128</ele>
        <time>2010-07-27T16:21:30</time>
      </trkpt>
      <trkpt lat="48.53131" lon="-2.07435">
        <ele>128</ele>
        <time>2010-07-27T16:21:33</time>
      </trkpt>
      <trkpt lat="48.53113" lon="-2.07423">
        <ele>127.5</ele>
        <time>2010-07-27T16:21:36</time>
      </trkpt>
      <trkpt lat="48.53094" lon="-2.07423">
        <ele>127</ele>
        <time>2010-07-27T16:21:39</time>
      </trkpt>
      <trkpt lat="48.53076" lon="-2.07436">
        <ele>126.5</ele>
        <time>2010-07-27T16:21:42</time>
      </trkpt>
      <trkpt lat="48.53056" lon="-2.07442">
        <ele>125.5</ele>
        <time>2010-07-27T16:21:45</time>
      </trkpt>
      <trkpt lat="48.53036" lon="-2.07439">
        <ele>125.5</ele>
        <time>2010-07-27T16:21:48</time>
      </trkpt>
      <trkpt lat="48.53017" lon="-2.07431">
        <ele>125</ele>
        <time>2010-07-27T16:21:52</time>
      </trkpt>
      <trkpt lat="48.52997" lon="-2.07422">
        <ele>124.5</ele>
        <time>2010-07-27T16:21:55</time>
      </trkpt>
      <trkpt lat="48.52977" lon="-2.07413">
        <ele>124</ele>
        <time>2010-07-27T16:21:58</time>
      </trkpt>
      <trkpt lat="48.52957" lon="-2.07405">
        <ele>124</ele>
        <time>2010-07-27T16:22:01</time>
      </trkpt>
      <trkpt lat="48.52937" lon="-2.07397">
        <ele>123.5</ele>
        <time>2010-07-27T16:22:04</time>
      </trkpt>
      <trkpt lat="48.52917" lon="-2.0739">
        <ele>123</ele>
        <time>2010-07-27T16:22:07</time>
      </trkpt>
      <trkpt lat="48.52896" lon="-2.07384">
        <ele>122.5</ele>
        <time>2010-07-27T16:22:10</time>
      </trkpt>
      <trkpt lat="48.52873" lon="-2.0738">
        <ele>121</ele>
        <time>2010-07-27T16:22:13</time>
      </trkpt>
      <trkpt lat="48.5285" lon="-2.07376">
        <ele>120</ele>
        <time>2010-07-27T16:22:16</time>
      </trkpt>
      <trkpt lat="48.52827" lon="-2.07374">
        <ele>119.5</ele>
        <time>2010-07-27T16:22:19</time>
      </trkpt>
      <trkpt lat="48.52804" lon="-2.07373">
        <ele>119</ele>
        <time>2010-07-27T16:22:22</time>
      </trkpt>
      <trkpt lat="48.52783" lon="-2.07372">
        <ele>118.5</ele>
        <time>2010-07-27T16:22:25</time>
      </trkpt>
      <trkpt lat="48.52763" lon="-2.07373">
        <ele>118</ele>
        <time>2010-07-27T16:22:28</time>
      </trkpt>
      <trkpt lat="48.52747" lon="-2.07373">
        <ele>117.5</ele>
        <time>2010-07-27T16:22:31</time>
      </trkpt>
      <trkpt lat="48.52734" lon="-2.07375">
        <ele>117</ele>
        <time>2010-07-27T16:22:34</time>
      </trkpt>
      <trkpt lat="48.52723" lon="-2.07376">
        <ele>116.5</ele>
        <time>2010-07-27T16:22:37</time>
      </trkpt>
      <trkpt lat="48.52715" lon="-2.07376">
        <ele>116.5</ele>
        <time>2010-07-27T16:22:40</time>
      </trkpt>
      <trkpt lat="48.52711" lon="-2.07374">
        <ele>116.5</ele>
        <time>2010-07-27T16:22:43</time>
      </trkpt>
      <trkpt lat="48.5271" lon="-2.07374">
        <ele>116</ele>
        <time>2010-07-27T16:22:46</time>
      </trkpt>
      <trkpt lat="48.5271" lon="-2.07374">
        <ele>116.5</ele>
        <time>2010-07-27T16:22:49</time>
      </trkpt>
      <trkpt lat="48.52709" lon="-2.07374">
        <ele>116</ele>
        <time>2010-07-27T16:22:52</time>
      </trkpt>
      <trkpt lat="48.52709" lon="-2.07374">
        <ele>116</ele>
        <time>2010-07-27T16:22:55</time>
      </trkpt>
      <trkpt lat="48.52709" lon="-2.07371">
        <ele>117</ele>
        <time>2010-07-27T16:22:58</time>
      </trkpt>
      <trkpt lat="48.52705" lon="-2.07366">
        <ele>116.5</ele>
        <time>2010-07-27T16:23:01</time>
      </trkpt>
      <trkpt lat="48.52704" lon="-2.0736">
        <ele>116</ele>
        <time>2010-07-27T16:23:04</time>
      </trkpt>
      <trkpt lat="48.52708" lon="-2.07351">
        <ele>116</ele>
        <time>2010-07-27T16:23:07</time>
      </trkpt>
      <trkpt lat="48.52711" lon="-2.07342">
        <ele>116</ele>
        <time>2010-07-27T16:23:10</time>
      </trkpt>
      <trkpt lat="48.52715" lon="-2.07331">
        <ele>116</ele>
        <time>2010-07-27T16:23:13</time>
      </trkpt>
      <trkpt lat="48.52719" lon="-2.07319">
        <ele>116</ele>
        <time>2010-07-27T16:23:16</time>
      </trkpt>
      <trkpt lat="48.52722" lon="-2.07307">
        <ele>116</ele>
        <time>2010-07-27T16:23:19</time>
      </trkpt>
      <trkpt lat="48.52726" lon="-2.07296">
        <ele>116.5</ele>
        <time>2010-07-27T16:23:22</time>
      </trkpt>
      <trkpt lat="48.52729" lon="-2.07283">
        <ele>116</ele>
        <time>2010-07-27T16:23:25</time>
      </trkpt>
      <trkpt lat="48.52732" lon="-2.0727">
        <ele>116</ele>
        <time>2010-07-27T16:23:28</time>
      </trkpt>
      <trkpt lat="48.52734" lon="-2.07257">
        <ele>117</ele>
        <time>2010-07-27T16:23:31</time>
      </trkpt>
      <trkpt lat="48.52737" lon="-2.07245">
        <ele>117</ele>
        <time>2010-07-27T16:23:34</time>
      </trkpt>
      <trkpt lat="48.52739" lon="-2.07233">
        <ele>117</ele>
        <time>2010-07-27T16:23:37</time>
      </trkpt>
      <trkpt lat="48.52741" lon="-2.07221">
        <ele>116.5</ele>
        <time>2010-07-27T16:23:40</time>
      </trkpt>
      <trkpt lat="48.52741" lon="-2.07211">
        <ele>116.5</ele>
        <time>2010-07-27T16:23:43</time>
      </trkpt>
      <trkpt lat="48.52734" lon="-2.07205">
        <ele>117.5</ele>
        <time>2010-07-27T16:23:46</time>
      </trkpt>
      <trkpt lat="48.52726" lon="-2.07202">
        <ele>117.5</ele>
        <time>2010-07-27T16:23:49</time>
      </trkpt>
      <trkpt lat="48.52717" lon="-2.07199">
        <ele>117.5</ele>
        <time>2010-07-27T16:23:52</time>
      </trkpt>
      <trkpt lat="48.52709" lon="-2.07196">
        <ele>118</ele>
        <time>2010-07-27T16:23:55</time>
      </trkpt>
      <trkpt lat="48.527" lon="-2.07193">
        <ele>117.5</ele>
        <time>2010-07-27T16:23:58</time>
      </trkpt>
      <trkpt lat="48.5269" lon="-2.07188">
        <ele>117.5</ele>
        <time>2010-07-27T16:24:01</time>
      </trkpt>
      <trkpt lat="48.52681" lon="-2.07183">
        <ele>117.5</ele>
        <time>2010-07-27T16:24:04</time>
      </trkpt>
      <trkpt lat="48.52671" lon="-2.07177">
        <ele>118</ele>
        <time>2010-07-27T16:24:07</time>
      </trkpt>
      <trkpt lat="48.5266" lon="-2.07172">
        <ele>118.5</ele>
        <time>2010-07-27T16:24:10</time>
      </trkpt>
      <trkpt lat="48.52648" lon="-2.07166">
        <ele>119</ele>
        <time>2010-07-27T16:24:13</time>
      </trkpt>
      <trkpt lat="48.52635" lon="-2.0716">
        <ele>119</ele>
        <time>2010-07-27T16:24:16</time>
      </trkpt>
      <trkpt lat="48.52624" lon="-2.07154">
        <ele>119</ele>
        <time>2010-07-27T16:24:19</time>
      </trkpt>
      <trkpt lat="48.52614" lon="-2.07148">
        <ele>119</ele>
        <time>2010-07-27T16:24:22</time>
      </trkpt>
      <trkpt lat="48.52607" lon="-2.0714">
        <ele>119.5</ele>
        <time>2010-07-27T16:24:25</time>
      </trkpt>
      <trkpt lat="48.52605" lon="-2.07138">
        <ele>119.5</ele>
        <time>2010-07-27T16:24:28</time>
      </trkpt>
      <trkpt lat="48.52605" lon="-2.07138">
        <ele>119</ele>
        <time>2010-07-27T16:24:31</time>
      </trkpt>
      <trkpt lat="48.52605" lon="-2.07137">
        <ele>119</ele>
        <time>2010-07-27T16:24:34</time>
      </trkpt>
      <trkpt lat="48.52605" lon="-2.07138">
        <ele>118.5</ele>
        <time>2010-07-27T16:24:37</time>
      </trkpt>
      <trkpt lat="48.52605" lon="-2.07137">
        <ele>118.5</ele>
        <time>2010-07-27T16:24:40</time>
      </trkpt>
      <trkpt lat="48.52605" lon="-2.07137">
        <ele>118</ele>
        <time>2010-07-27T16:24:43</time>
      </trkpt>
      <trkpt lat="48.52605" lon="-2.07137">
        <ele>118</ele>
        <time>2010-07-27T16:24:46</time>
      </trkpt>
      <trkpt lat="48.52605" lon="-2.07136">
        <ele>117.5</ele>
        <time>2010-07-27T16:24:49</time>
      </trkpt>
      <trkpt lat="48.52604" lon="-2.07137">
        <ele>117.5</ele>
        <time>2010-07-27T16:24:52</time>
      </trkpt>
      <trkpt lat="48.52604" lon="-2.07137">
        <ele>117.5</ele>
        <time>2010-07-27T16:24:55</time>
      </trkpt>
      <trkpt lat="48.52604" lon="-2.07138">
        <ele>117.5</ele>
        <time>2010-07-27T16:24:58</time>
      </trkpt>
      <trkpt lat="48.52604" lon="-2.07138">
        <ele>118</ele>
        <time>2010-07-27T16:25:01</time>
      </trkpt>
      <trkpt lat="48.52604" lon="-2.07138">
        <ele>117.5</ele>
        <time>2010-07-27T16:25:04</time>
      </trkpt>
      <trkpt lat="48.52604" lon="-2.07137">
        <ele>118</ele>
        <time>2010-07-27T16:25:07</time>
      </trkpt>
      <trkpt lat="48.52604" lon="-2.07137">
        <ele>118</ele>
        <time>2010-07-27T16:25:10</time>
      </trkpt>
      <trkpt lat="48.52603" lon="-2.07137">
        <ele>117.5</ele>
        <time>2010-07-27T16:25:13</time>
      </trkpt>
      <trkpt lat="48.52603" lon="-2.07138">
        <ele>117.5</ele>
        <time>2010-07-27T16:25:16</time>
      </trkpt>
      <trkpt lat="48.52603" lon="-2.07138">
        <ele>117.5</ele>
        <time>2010-07-27T16:25:19</time>
      </trkpt>
      <trkpt lat="48.52603" lon="-2.07138">
        <ele>117.5</ele>
        <time>2010-07-27T16:25:22</time>
      </trkpt>
      <trkpt lat="48.52603" lon="-2.07138">
        <ele>117.5</ele>
        <time>2010-07-27T16:25:25</time>
      </trkpt>
      <trkpt lat="48.52603" lon="-2.07138">
        <ele>117</ele>
        <time>2010-07-27T16:25:28</time>
      </trkpt>
      <trkpt lat="48.52603" lon="-2.07138">
        <ele>117</ele>
        <time>2010-07-27T16:25:31</time>
      </trkpt>
      <trkpt lat="48.52603" lon="-2.07138">
        <ele>117</ele>
        <time>2010-07-27T16:25:34</time>
      </trkpt>
      <trkpt lat="48.52603" lon="-2.07138">
        <ele>116.5</ele>
        <time>2010-07-27T16:25:37</time>
      </trkpt>
      <trkpt lat="48.52602" lon="-2.07138">
        <ele>116</ele>
        <time>2010-07-27T16:25:40</time>
      </trkpt>
      <trkpt lat="48.52602" lon="-2.07138">
        <ele>116</ele>
        <time>2010-07-27T16:25:43</time>
      </trkpt>
      <trkpt lat="48.52602" lon="-2.07138">
        <ele>115.5</ele>
        <time>2010-07-27T16:25:46</time>
      </trkpt>
      <trkpt lat="48.52602" lon="-2.07138">
        <ele>116</ele>
        <time>2010-07-27T16:25:49</time>
      </trkpt>
      <trkpt lat="48.52602" lon="-2.07138">
        <ele>116</ele>
        <time>2010-07-27T16:25:52</time>
      </trkpt>
      <trkpt lat="48.52602" lon="-2.07138">
        <ele>116</ele>
        <time>2010-07-27T16:25:55</time>
      </trkpt>
      <trkpt lat="48.52602" lon="-2.07138">
        <ele>115.5</ele>
        <time>2010-07-27T16:25:58</time>
      </trkpt>
      <trkpt lat="48.52602" lon="-2.07138">
        <ele>115.5</ele>
        <time>2010-07-27T16:26:01</time>
      </trkpt>
      <trkpt lat="48.52602" lon="-2.07138">
        <ele>115.5</ele>
        <time>2010-07-27T16:26:04</time>
      </trkpt>
      <trkpt lat="48.52602" lon="-2.07138">
        <ele>115.5</ele>
        <time>2010-07-27T16:26:07</time>
      </trkpt>
      <trkpt lat="48.52602" lon="-2.07138">
        <ele>115</ele>
        <time>2010-07-27T16:26:10</time>
      </trkpt>
      <trkpt lat="48.52602" lon="-2.07138">
        <ele>115</ele>
        <time>2010-07-27T16:26:13</time>
      </trkpt>
      <trkpt lat="48.52602" lon="-2.07138">
        <ele>115.5</ele>
        <time>2010-07-27T16:26:16</time>
      </trkpt>
      <trkpt lat="48.52602" lon="-2.07138">
        <ele>115</ele>
        <time>2010-07-27T16:26:19</time>
      </trkpt>
      <trkpt lat="48.52602" lon="-2.07138">
        <ele>115</ele>
        <time>2010-07-27T16:26:22</time>
      </trkpt>
      <trkpt lat="48.52602" lon="-2.07138">
        <ele>115</ele>
        <time>2010-07-27T16:26:25</time>
      </trkpt>
      <trkpt lat="48.52596" lon="-2.07117">
        <ele>115.5</ele>
        <time>2010-07-27T16:26:28</time>
      </trkpt>
      <trkpt lat="48.52595" lon="-2.07101">
        <ele>115</ele>
        <time>2010-07-27T16:26:31</time>
      </trkpt>
      <trkpt lat="48.52595" lon="-2.07083">
        <ele>114.5</ele>
        <time>2010-07-27T16:26:34</time>
      </trkpt>
      <trkpt lat="48.52596" lon="-2.07062">
        <ele>114.5</ele>
        <time>2010-07-27T16:26:37</time>
      </trkpt>
      <trkpt lat="48.52596" lon="-2.0704">
        <ele>114</ele>
        <time>2010-07-27T16:26:40</time>
      </trkpt>
      <trkpt lat="48.52596" lon="-2.07017">
        <ele>114</ele>
        <time>2010-07-27T16:26:43</time>
      </trkpt>
      <trkpt lat="48.52596" lon="-2.06993">
        <ele>113.5</ele>
        <time>2010-07-27T16:26:46</time>
      </trkpt>
      <trkpt lat="48.52596" lon="-2.0697">
        <ele>113.5</ele>
        <time>2010-07-27T16:26:49</time>
      </trkpt>
      <trkpt lat="48.52596" lon="-2.06952">
        <ele>113</ele>
        <time>2010-07-27T16:26:52</time>
      </trkpt>
      <trkpt lat="48.52595" lon="-2.0694">
        <ele>112.5</ele>
        <time>2010-07-27T16:26:55</time>
      </trkpt>
      <trkpt lat="48.5259" lon="-2.06935">
        <ele>113</ele>
        <time>2010-07-27T16:26:58</time>
      </trkpt>
      <trkpt lat="48.52583" lon="-2.06931">
        <ele>113.5</ele>
        <time>2010-07-27T16:27:01</time>
      </trkpt>
      <trkpt lat="48.52577" lon="-2.06927">
        <ele>114.5</ele>
        <time>2010-07-27T16:27:04</time>
      </trkpt>
      <trkpt lat="48.52569" lon="-2.06922">
        <ele>115</ele>
        <time>2010-07-27T16:27:07</time>
      </trkpt>
      <trkpt lat="48.52561" lon="-2.06917">
        <ele>115.5</ele>
        <time>2010-07-27T16:27:10</time>
      </trkpt>
      <trkpt lat="48.52551" lon="-2.06911">
        <ele>116.5</ele>
        <time>2010-07-27T16:27:13</time>
      </trkpt>
      <trkpt lat="48.52541" lon="-2.06905">
        <ele>117</ele>
        <time>2010-07-27T16:27:16</time>
      </trkpt>
      <trkpt lat="48.52531" lon="-2.06899">
        <ele>117</ele>
        <time>2010-07-27T16:27:19</time>
      </trkpt>
      <trkpt lat="48.52522" lon="-2.06893">
        <ele>117</ele>
        <time>2010-07-27T16:27:22</time>
      </trkpt>
      <trkpt lat="48.52512" lon="-2.06887">
        <ele>117</ele>
        <time>2010-07-27T16:27:25</time>
      </trkpt>
      <trkpt lat="48.52504" lon="-2.06881">
        <ele>118.5</ele>
        <time>2010-07-27T16:27:28</time>
      </trkpt>
      <trkpt lat="48.52496" lon="-2.06875">
        <ele>119.5</ele>
        <time>2010-07-27T16:27:31</time>
      </trkpt>
      <trkpt lat="48.52486" lon="-2.06868">
        <ele>119.5</ele>
        <time>2010-07-27T16:27:34</time>
      </trkpt>
      <trkpt lat="48.52476" lon="-2.06861">
        <ele>120</ele>
        <time>2010-07-27T16:27:37</time>
      </trkpt>
      <trkpt lat="48.52467" lon="-2.06855">
        <ele>120</ele>
        <time>2010-07-27T16:27:40</time>
      </trkpt>
      <trkpt lat="48.52458" lon="-2.06849">
        <ele>120</ele>
        <time>2010-07-27T16:27:43</time>
      </trkpt>
      <trkpt lat="48.52449" lon="-2.0685">
        <ele>121</ele>
        <time>2010-07-27T16:27:46</time>
      </trkpt>
      <trkpt lat="48.52443" lon="-2.06857">
        <ele>122</ele>
        <time>2010-07-27T16:27:49</time>
      </trkpt>
      <trkpt lat="48.52435" lon="-2.06863">
        <ele>122</ele>
        <time>2010-07-27T16:27:52</time>
      </trkpt>
      <trkpt lat="48.52428" lon="-2.06871">
        <ele>122.5</ele>
        <time>2010-07-27T16:27:55</time>
      </trkpt>
      <trkpt lat="48.5242" lon="-2.06879">
        <ele>122.5</ele>
        <time>2010-07-27T16:27:58</time>
      </trkpt>
      <trkpt lat="48.52412" lon="-2.06888">
        <ele>122.5</ele>
        <time>2010-07-27T16:28:01</time>
      </trkpt>
      <trkpt lat="48.52404" lon="-2.06898">
        <ele>122.5</ele>
        <time>2010-07-27T16:28:04</time>
      </trkpt>
      <trkpt lat="48.52396" lon="-2.06908">
        <ele>122</ele>
        <time>2010-07-27T16:28:07</time>
      </trkpt>
      <trkpt lat="48.52388" lon="-2.06917">
        <ele>121.5</ele>
        <time>2010-07-27T16:28:10</time>
      </trkpt>
      <trkpt lat="48.52382" lon="-2.06925">
        <ele>121.5</ele>
        <time>2010-07-27T16:28:13</time>
      </trkpt>
      <trkpt lat="48.52376" lon="-2.06932">
        <ele>121</ele>
        <time>2010-07-27T16:28:16</time>
      </trkpt>
      <trkpt lat="48.52371" lon="-2.06939">
        <ele>121</ele>
        <time>2010-07-27T16:28:19</time>
      </trkpt>
      <trkpt lat="48.52366" lon="-2.06946">
        <ele>120.5</ele>
        <time>2010-07-27T16:28:22</time>
      </trkpt>
      <trkpt lat="48.52362" lon="-2.06954">
        <ele>120.5</ele>
        <time>2010-07-27T16:28:25</time>
      </trkpt>
      <trkpt lat="48.52351" lon="-2.06969">
        <ele>119</ele>
        <time>2010-07-27T16:28:31</time>
      </trkpt>
      <trkpt lat="48.52343" lon="-2.06983">
        <ele>119</ele>
        <time>2010-07-27T16:28:36</time>
      </trkpt>
      <trkpt lat="48.52338" lon="-2.06992">
        <ele>118</ele>
        <time>2010-07-27T16:28:39</time>
      </trkpt>
      <trkpt lat="48.52332" lon="-2.07005">
        <ele>118</ele>
        <time>2010-07-27T16:28:42</time>
      </trkpt>
      <trkpt lat="48.52326" lon="-2.07021">
        <ele>118</ele>
        <time>2010-07-27T16:28:48</time>
      </trkpt>
      <trkpt lat="48.52322" lon="-2.07029">
        <ele>118.5</ele>
        <time>2010-07-27T16:28:51</time>
      </trkpt>
      <trkpt lat="48.52317" lon="-2.0704">
        <ele>118</ele>
        <time>2010-07-27T16:28:55</time>
      </trkpt>
      <trkpt lat="48.52313" lon="-2.07062">
        <ele>117</ele>
        <time>2010-07-27T16:29:00</time>
      </trkpt>
      <trkpt lat="48.52312" lon="-2.07072">
        <ele>117</ele>
        <time>2010-07-27T16:29:03</time>
      </trkpt>
      <trkpt lat="48.5231" lon="-2.07084">
        <ele>117.5</ele>
        <time>2010-07-27T16:29:07</time>
      </trkpt>
      <trkpt lat="48.52311" lon="-2.07097">
        <ele>118</ele>
        <time>2010-07-27T16:29:09</time>
      </trkpt>
      <trkpt lat="48.52313" lon="-2.07107">
        <ele>118</ele>
        <time>2010-07-27T16:29:13</time>
      </trkpt>
      <trkpt lat="48.52315" lon="-2.07116">
        <ele>118</ele>
        <time>2010-07-27T16:29:15</time>
      </trkpt>
      <trkpt lat="48.52319" lon="-2.07126">
        <ele>117.5</ele>
        <time>2010-07-27T16:29:19</time>
      </trkpt>
      <trkpt lat="48.52324" lon="-2.07137">
        <ele>117.5</ele>
        <time>2010-07-27T16:29:21</time>
      </trkpt>
      <trkpt lat="48.52328" lon="-2.07148">
        <ele>117.5</ele>
        <time>2010-07-27T16:29:25</time>
      </trkpt>
      <trkpt lat="48.52329" lon="-2.07158">
        <ele>116.5</ele>
        <time>2010-07-27T16:29:27</time>
      </trkpt>
      <trkpt lat="48.52321" lon="-2.07162">
        <ele>115.5</ele>
        <time>2010-07-27T16:29:30</time>
      </trkpt>
      <trkpt lat="48.52309" lon="-2.07161">
        <ele>114</ele>
        <time>2010-07-27T16:29:33</time>
      </trkpt>
      <trkpt lat="48.52297" lon="-2.07163">
        <ele>113</ele>
        <time>2010-07-27T16:29:37</time>
      </trkpt>
      <trkpt lat="48.52293" lon="-2.07175">
        <ele>112.5</ele>
        <time>2010-07-27T16:29:39</time>
      </trkpt>
      <trkpt lat="48.52293" lon="-2.07188">
        <ele>113</ele>
        <time>2010-07-27T16:29:42</time>
      </trkpt>
      <trkpt lat="48.52292" lon="-2.07202">
        <ele>113</ele>
        <time>2010-07-27T16:29:45</time>
      </trkpt>
      <trkpt lat="48.52289" lon="-2.07214">
        <ele>113</ele>
        <time>2010-07-27T16:29:48</time>
      </trkpt>
      <trkpt lat="48.52283" lon="-2.07222">
        <ele>112.5</ele>
        <time>2010-07-27T16:29:51</time>
      </trkpt>
      <trkpt lat="48.52279" lon="-2.07228">
        <ele>113</ele>
        <time>2010-07-27T16:29:54</time>
      </trkpt>
      <trkpt lat="48.52273" lon="-2.0723">
        <ele>113</ele>
        <time>2010-07-27T16:29:57</time>
      </trkpt>
      <trkpt lat="48.52268" lon="-2.07233">
        <ele>113</ele>
        <time>2010-07-27T16:30:00</time>
      </trkpt>
      <trkpt lat="48.52263" lon="-2.07234">
        <ele>112.5</ele>
        <time>2010-07-27T16:30:03</time>
      </trkpt>
      <trkpt lat="48.52259" lon="-2.07237">
        <ele>112</ele>
        <time>2010-07-27T16:30:06</time>
      </trkpt>
      <trkpt lat="48.52251" lon="-2.0724">
        <ele>111.5</ele>
        <time>2010-07-27T16:30:09</time>
      </trkpt>
      <trkpt lat="48.52245" lon="-2.07241">
        <ele>111</ele>
        <time>2010-07-27T16:30:12</time>
      </trkpt>
      <trkpt lat="48.52236" lon="-2.07247">
        <ele>112.5</ele>
        <time>2010-07-27T16:30:18</time>
      </trkpt>
      <trkpt lat="48.52228" lon="-2.07255">
        <ele>114</ele>
        <time>2010-07-27T16:30:21</time>
      </trkpt>
      <trkpt lat="48.52223" lon="-2.0726">
        <ele>115</ele>
        <time>2010-07-27T16:30:24</time>
      </trkpt>
      <trkpt lat="48.52217" lon="-2.07262">
        <ele>115</ele>
        <time>2010-07-27T16:30:27</time>
      </trkpt>
      <trkpt lat="48.52213" lon="-2.07263">
        <ele>114.5</ele>
        <time>2010-07-27T16:30:30</time>
      </trkpt>
      <trkpt lat="48.52207" lon="-2.07265">
        <ele>114.5</ele>
        <time>2010-07-27T16:30:33</time>
      </trkpt>
      <trkpt lat="48.52201" lon="-2.07267">
        <ele>115</ele>
        <time>2010-07-27T16:30:36</time>
      </trkpt>
      <trkpt lat="48.52196" lon="-2.07269">
        <ele>115.5</ele>
        <time>2010-07-27T16:30:39</time>
      </trkpt>
      <trkpt lat="48.52186" lon="-2.07274">
        <ele>115</ele>
        <time>2010-07-27T16:30:42</time>
      </trkpt>
      <trkpt lat="48.52181" lon="-2.07275">
        <ele>115</ele>
        <time>2010-07-27T16:30:45</time>
      </trkpt>
      <trkpt lat="48.5217" lon="-2.07279">
        <ele>113.5</ele>
        <time>2010-07-27T16:30:48</time>
      </trkpt>
      <trkpt lat="48.52168" lon="-2.07281">
        <ele>113</ele>
        <time>2010-07-27T16:30:51</time>
      </trkpt>
      <trkpt lat="48.5216" lon="-2.07287">
        <ele>112.5</ele>
        <time>2010-07-27T16:30:54</time>
      </trkpt>
      <trkpt lat="48.5215" lon="-2.07294">
        <ele>114</ele>
        <time>2010-07-27T16:31:00</time>
      </trkpt>
      <trkpt lat="48.52145" lon="-2.07297">
        <ele>115.5</ele>
        <time>2010-07-27T16:31:03</time>
      </trkpt>
      <trkpt lat="48.52139" lon="-2.07299">
        <ele>117.5</ele>
        <time>2010-07-27T16:31:06</time>
      </trkpt>
      <trkpt lat="48.52134" lon="-2.07301">
        <ele>120</ele>
        <time>2010-07-27T16:31:09</time>
      </trkpt>
      <trkpt lat="48.5213" lon="-2.07304">
        <ele>121</ele>
        <time>2010-07-27T16:31:12</time>
      </trkpt>
      <trkpt lat="48.52124" lon="-2.07306">
        <ele>121.5</ele>
        <time>2010-07-27T16:31:15</time>
      </trkpt>
      <trkpt lat="48.5212" lon="-2.07307">
        <ele>122</ele>
        <time>2010-07-27T16:31:18</time>
      </trkpt>
      <trkpt lat="48.52112" lon="-2.0731">
        <ele>122.5</ele>
        <time>2010-07-27T16:31:21</time>
      </trkpt>
      <trkpt lat="48.52106" lon="-2.07312">
        <ele>124</ele>
        <time>2010-07-27T16:31:24</time>
      </trkpt>
      <trkpt lat="48.52099" lon="-2.07315">
        <ele>123.5</ele>
        <time>2010-07-27T16:31:27</time>
      </trkpt>
      <trkpt lat="48.52094" lon="-2.07319">
        <ele>125</ele>
        <time>2010-07-27T16:31:30</time>
      </trkpt>
      <trkpt lat="48.52087" lon="-2.07321">
        <ele>126</ele>
        <time>2010-07-27T16:31:33</time>
      </trkpt>
      <trkpt lat="48.52081" lon="-2.07324">
        <ele>126.5</ele>
        <time>2010-07-27T16:31:36</time>
      </trkpt>
      <trkpt lat="48.52075" lon="-2.07328">
        <ele>127</ele>
        <time>2010-07-27T16:31:39</time>
      </trkpt>
      <trkpt lat="48.52071" lon="-2.07333">
        <ele>126.5</ele>
        <time>2010-07-27T16:31:42</time>
      </trkpt>
      <trkpt lat="48.52067" lon="-2.0734">
        <ele>127</ele>
        <time>2010-07-27T16:31:45</time>
      </trkpt>
      <trkpt lat="48.52056" lon="-2.07343">
        <ele>127.5</ele>
        <time>2010-07-27T16:31:48</time>
      </trkpt>
      <trkpt lat="48.52039" lon="-2.0734">
        <ele>122.5</ele>
        <time>2010-07-27T16:31:52</time>
      </trkpt>
      <trkpt lat="48.52035" lon="-2.07332">
        <ele>123.5</ele>
        <time>2010-07-27T16:31:54</time>
      </trkpt>
      <trkpt lat="48.5203" lon="-2.07326">
        <ele>123</ele>
        <time>2010-07-27T16:31:57</time>
      </trkpt>
      <trkpt lat="48.52026" lon="-2.0732">
        <ele>123</ele>
        <time>2010-07-27T16:32:00</time>
      </trkpt>
      <trkpt lat="48.52024" lon="-2.07312">
        <ele>123</ele>
        <time>2010-07-27T16:32:03</time>
      </trkpt>
      <trkpt lat="48.5202" lon="-2.07304">
        <ele>122.5</ele>
        <time>2010-07-27T16:32:06</time>
      </trkpt>
      <trkpt lat="48.52017" lon="-2.07302">
        <ele>123</ele>
        <time>2010-07-27T16:32:09</time>
      </trkpt>
      <trkpt lat="48.52011" lon="-2.07303">
        <ele>122.5</ele>
        <time>2010-07-27T16:32:12</time>
      </trkpt>
      <trkpt lat="48.52005" lon="-2.07301">
        <ele>124</ele>
        <time>2010-07-27T16:32:15</time>
      </trkpt>
      <trkpt lat="48.52" lon="-2.07301">
        <ele>125.5</ele>
        <time>2010-07-27T16:32:18</time>
      </trkpt>
      <trkpt lat="48.51997" lon="-2.07301">
        <ele>127</ele>
        <time>2010-07-27T16:32:21</time>
      </trkpt>
      <trkpt lat="48.51996" lon="-2.073">
        <ele>127.5</ele>
        <time>2010-07-27T16:32:24</time>
      </trkpt>
      <trkpt lat="48.51995" lon="-2.07297">
        <ele>128</ele>
        <time>2010-07-27T16:32:27</time>
      </trkpt>
      <trkpt lat="48.51994" lon="-2.07296">
        <ele>128</ele>
        <time>2010-07-27T16:32:30</time>
      </trkpt>
      <trkpt lat="48.51989" lon="-2.07295">
        <ele>125.5</ele>
        <time>2010-07-27T16:32:33</time>
      </trkpt>
      <trkpt lat="48.51985" lon="-2.07294">
        <ele>126.5</ele>
        <time>2010-07-27T16:32:36</time>
      </trkpt>
      <trkpt lat="48.51984" lon="-2.07293">
        <ele>128</ele>
        <time>2010-07-27T16:32:39</time>
      </trkpt>
      <trkpt lat="48.51983" lon="-2.07293">
        <ele>129</ele>
        <time>2010-07-27T16:32:42</time>
      </trkpt>
      <trkpt lat="48.51982" lon="-2.07291">
        <ele>131.5</ele>
        <time>2010-07-27T16:32:45</time>
      </trkpt>
      <trkpt lat="48.51981" lon="-2.0729">
        <ele>132.5</ele>
        <time>2010-07-27T16:32:48</time>
      </trkpt>
      <trkpt lat="48.51981" lon="-2.0729">
        <ele>133</ele>
        <time>2010-07-27T16:32:51</time>
      </trkpt>
      <trkpt lat="48.5198" lon="-2.0729">
        <ele>132.5</ele>
        <time>2010-07-27T16:32:54</time>
      </trkpt>
      <trkpt lat="48.51978" lon="-2.07289">
        <ele>133</ele>
        <time>2010-07-27T16:32:57</time>
      </trkpt>
      <trkpt lat="48.51976" lon="-2.07289">
        <ele>132.5</ele>
        <time>2010-07-27T16:33:01</time>
      </trkpt>
      <trkpt lat="48.51975" lon="-2.07288">
        <ele>132</ele>
        <time>2010-07-27T16:33:03</time>
      </trkpt>
      <trkpt lat="48.51974" lon="-2.07288">
        <ele>131</ele>
        <time>2010-07-27T16:33:06</time>
      </trkpt>
      <trkpt lat="48.51975" lon="-2.07287">
        <ele>131</ele>
        <time>2010-07-27T16:33:09</time>
      </trkpt>
      <trkpt lat="48.51975" lon="-2.07286">
        <ele>130.5</ele>
        <time>2010-07-27T16:33:12</time>
      </trkpt>
      <trkpt lat="48.51968" lon="-2.07285">
        <ele>128</ele>
        <time>2010-07-27T16:33:15</time>
      </trkpt>
      <trkpt lat="48.51963" lon="-2.07285">
        <ele>124</ele>
        <time>2010-07-27T16:33:18</time>
      </trkpt>
      <trkpt lat="48.51961" lon="-2.07284">
        <ele>122</ele>
        <time>2010-07-27T16:33:21</time>
      </trkpt>
      <trkpt lat="48.51961" lon="-2.07284">
        <ele>120.5</ele>
        <time>2010-07-27T16:33:24</time>
      </trkpt>
      <trkpt lat="48.51959" lon="-2.07283">
        <ele>119</ele>
        <time>2010-07-27T16:33:27</time>
      </trkpt>
      <trkpt lat="48.51959" lon="-2.07283">
        <ele>119</ele>
        <time>2010-07-27T16:33:30</time>
      </trkpt>
      <trkpt lat="48.51959" lon="-2.07283">
        <ele>119</ele>
        <time>2010-07-27T16:33:33</time>
      </trkpt>
      <trkpt lat="48.51959" lon="-2.07282">
        <ele>119.5</ele>
        <time>2010-07-27T16:33:36</time>
      </trkpt>
      <trkpt lat="48.51959" lon="-2.07282">
        <ele>119.5</ele>
        <time>2010-07-27T16:33:39</time>
      </trkpt>
      <trkpt lat="48.51959" lon="-2.07282">
        <ele>119.5</ele>
        <time>2010-07-27T16:33:42</time>
      </trkpt>
      <trkpt lat="48.51959" lon="-2.07282">
        <ele>119.5</ele>
        <time>2010-07-27T16:33:45</time>
      </trkpt>
      <trkpt lat="48.51959" lon="-2.07281">
        <ele>119.5</ele>
        <time>2010-07-27T16:33:48</time>
      </trkpt>
      <trkpt lat="48.51959" lon="-2.07281">
        <ele>119.5</ele>
        <time>2010-07-27T16:33:51</time>
      </trkpt>
      <trkpt lat="48.51959" lon="-2.07281">
        <ele>120</ele>
        <time>2010-07-27T16:33:55</time>
      </trkpt>
      <trkpt lat="48.51959" lon="-2.07281">
        <ele>120</ele>
        <time>2010-07-27T16:33:58</time>
      </trkpt>
      <trkpt lat="48.51958" lon="-2.07281">
        <ele>119.5</ele>
        <time>2010-07-27T16:34:01</time>
      </trkpt>
      <trkpt lat="48.51958" lon="-2.07281">
        <ele>119.5</ele>
        <time>2010-07-27T16:34:04</time>
      </trkpt>
      <trkpt lat="48.51958" lon="-2.07281">
        <ele>119</ele>
        <time>2010-07-27T16:34:07</time>
      </trkpt>
      <trkpt lat="48.51958" lon="-2.07281">
        <ele>119</ele>
        <time>2010-07-27T16:34:10</time>
      </trkpt>
      <trkpt lat="48.51958" lon="-2.07281">
        <ele>119</ele>
        <time>2010-07-27T16:34:13</time>
      </trkpt>
      <trkpt lat="48.51958" lon="-2.07281">
        <ele>119</ele>
        <time>2010-07-27T16:34:16</time>
      </trkpt>
      <trkpt lat="48.51958" lon="-2.07281">
        <ele>119</ele>
        <time>2010-07-27T16:34:18</time>
      </trkpt>
      <trkpt lat="48.51958" lon="-2.07281">
        <ele>119.5</ele>
        <time>2010-07-27T16:34:21</time>
      </trkpt>
      <trkpt lat="48.51958" lon="-2.07281">
        <ele>119.5</ele>
        <time>2010-07-27T16:34:25</time>
      </trkpt>
      <trkpt lat="48.51958" lon="-2.07281">
        <ele>120</ele>
        <time>2010-07-27T16:34:28</time>
      </trkpt>
      <trkpt lat="48.51958" lon="-2.07281">
        <ele>120</ele>
        <time>2010-07-27T16:34:30</time>
      </trkpt>
      <trkpt lat="48.51958" lon="-2.07281">
        <ele>120</ele>
        <time>2010-07-27T16:34:33</time>
      </trkpt>
      <trkpt lat="48.51958" lon="-2.07281">
        <ele>120</ele>
        <time>2010-07-27T16:34:36</time>
      </trkpt>
      <trkpt lat="48.51958" lon="-2.07281">
        <ele>120.5</ele>
        <time>2010-07-27T16:34:39</time>
      </trkpt>
      <trkpt lat="48.51957" lon="-2.07281">
        <ele>120.5</ele>
        <time>2010-07-27T16:34:42</time>
      </trkpt>
      <trkpt lat="48.51957" lon="-2.07281">
        <ele>120.5</ele>
        <time>2010-07-27T16:34:45</time>
      </trkpt>
      <trkpt lat="48.51957" lon="-2.0728">
        <ele>120.5</ele>
        <time>2010-07-27T16:34:48</time>
      </trkpt>
      <trkpt lat="48.51957" lon="-2.0728">
        <ele>120.5</ele>
        <time>2010-07-27T16:34:52</time>
      </trkpt>
      <trkpt lat="48.5194" lon="-2.07278">
        <ele>122</ele>
        <time>2010-07-27T16:34:54</time>
      </trkpt>
      <trkpt lat="48.51937" lon="-2.07277">
        <ele>123</ele>
        <time>2010-07-27T16:34:58</time>
      </trkpt>
      <trkpt lat="48.51934" lon="-2.07277">
        <ele>123.5</ele>
        <time>2010-07-27T16:35:01</time>
      </trkpt>
      <trkpt lat="48.51929" lon="-2.07277">
        <ele>125.5</ele>
        <time>2010-07-27T16:35:04</time>
      </trkpt>
      <trkpt lat="48.51925" lon="-2.07278">
        <ele>126</ele>
        <time>2010-07-27T16:35:07</time>
      </trkpt>
      <trkpt lat="48.51919" lon="-2.07277">
        <ele>127</ele>
        <time>2010-07-27T16:35:10</time>
      </trkpt>
      <trkpt lat="48.51916" lon="-2.07277">
        <ele>128</ele>
        <time>2010-07-27T16:35:13</time>
      </trkpt>
      <trkpt lat="48.51912" lon="-2.07276">
        <ele>129</ele>
        <time>2010-07-27T16:35:16</time>
      </trkpt>
      <trkpt lat="48.51908" lon="-2.07276">
        <ele>130</ele>
        <time>2010-07-27T16:35:19</time>
      </trkpt>
      <trkpt lat="48.51904" lon="-2.07276">
        <ele>131</ele>
        <time>2010-07-27T16:35:22</time>
      </trkpt>
      <trkpt lat="48.519" lon="-2.07275">
        <ele>130.5</ele>
        <time>2010-07-27T16:35:25</time>
      </trkpt>
      <trkpt lat="48.51896" lon="-2.07278">
        <ele>130.5</ele>
        <time>2010-07-27T16:35:28</time>
      </trkpt>
      <trkpt lat="48.51893" lon="-2.07283">
        <ele>131</ele>
        <time>2010-07-27T16:35:31</time>
      </trkpt>
      <trkpt lat="48.51888" lon="-2.07287">
        <ele>130</ele>
        <time>2010-07-27T16:35:34</time>
      </trkpt>
      <trkpt lat="48.51885" lon="-2.07291">
        <ele>129.5</ele>
        <time>2010-07-27T16:35:37</time>
      </trkpt>
      <trkpt lat="48.51881" lon="-2.07295">
        <ele>128</ele>
        <time>2010-07-27T16:35:40</time>
      </trkpt>
      <trkpt lat="48.51878" lon="-2.07298">
        <ele>127.5</ele>
        <time>2010-07-27T16:35:43</time>
      </trkpt>
      <trkpt lat="48.51873" lon="-2.073">
        <ele>124.5</ele>
        <time>2010-07-27T16:35:46</time>
      </trkpt>
      <trkpt lat="48.51871" lon="-2.07303">
        <ele>123.5</ele>
        <time>2010-07-27T16:35:49</time>
      </trkpt>
      <trkpt lat="48.5187" lon="-2.07303">
        <ele>123.5</ele>
        <time>2010-07-27T16:35:52</time>
      </trkpt>
      <trkpt lat="48.51869" lon="-2.07303">
        <ele>124.5</ele>
        <time>2010-07-27T16:35:55</time>
      </trkpt>
      <trkpt lat="48.51869" lon="-2.07302">
        <ele>125</ele>
        <time>2010-07-27T16:35:58</time>
      </trkpt>
      <trkpt lat="48.51868" lon="-2.07302">
        <ele>126</ele>
        <time>2010-07-27T16:36:01</time>
      </trkpt>
      <trkpt lat="48.51868" lon="-2.07301">
        <ele>126.5</ele>
        <time>2010-07-27T16:36:04</time>
      </trkpt>
      <trkpt lat="48.51866" lon="-2.07299">
        <ele>126.5</ele>
        <time>2010-07-27T16:36:07</time>
      </trkpt>
      <trkpt lat="48.51864" lon="-2.07297">
        <ele>128</ele>
        <time>2010-07-27T16:36:10</time>
      </trkpt>
      <trkpt lat="48.51861" lon="-2.07295">
        <ele>129.5</ele>
        <time>2010-07-27T16:36:13</time>
      </trkpt>
      <trkpt lat="48.51857" lon="-2.07293">
        <ele>130</ele>
        <time>2010-07-27T16:36:16</time>
      </trkpt>
      <trkpt lat="48.51855" lon="-2.07289">
        <ele>132.5</ele>
        <time>2010-07-27T16:36:19</time>
      </trkpt>
      <trkpt lat="48.51852" lon="-2.07286">
        <ele>134.5</ele>
        <time>2010-07-27T16:36:22</time>
      </trkpt>
      <trkpt lat="48.5185" lon="-2.07284">
        <ele>135.5</ele>
        <time>2010-07-27T16:36:25</time>
      </trkpt>
      <trkpt lat="48.51848" lon="-2.07281">
        <ele>136.5</ele>
        <time>2010-07-27T16:36:28</time>
      </trkpt>
      <trkpt lat="48.51848" lon="-2.07278">
        <ele>138.5</ele>
        <time>2010-07-27T16:36:31</time>
      </trkpt>
      <trkpt lat="48.51845" lon="-2.07274">
        <ele>140</ele>
        <time>2010-07-27T16:36:34</time>
      </trkpt>
      <trkpt lat="48.51843" lon="-2.07269">
        <ele>141</ele>
        <time>2010-07-27T16:36:37</time>
      </trkpt>
      <trkpt lat="48.51839" lon="-2.07263">
        <ele>141.5</ele>
        <time>2010-07-27T16:36:40</time>
      </trkpt>
      <trkpt lat="48.51834" lon="-2.07257">
        <ele>141.5</ele>
        <time>2010-07-27T16:36:43</time>
      </trkpt>
      <trkpt lat="48.51829" lon="-2.07251">
        <ele>143</ele>
        <time>2010-07-27T16:36:46</time>
      </trkpt>
      <trkpt lat="48.51825" lon="-2.07247">
        <ele>144.5</ele>
        <time>2010-07-27T16:36:49</time>
      </trkpt>
      <trkpt lat="48.51822" lon="-2.07245">
        <ele>145</ele>
        <time>2010-07-27T16:36:52</time>
      </trkpt>
      <trkpt lat="48.51818" lon="-2.07242">
        <ele>146</ele>
        <time>2010-07-27T16:36:55</time>
      </trkpt>
      <trkpt lat="48.51812" lon="-2.07239">
        <ele>146.5</ele>
        <time>2010-07-27T16:36:58</time>
      </trkpt>
      <trkpt lat="48.51807" lon="-2.07234">
        <ele>147.5</ele>
        <time>2010-07-27T16:37:01</time>
      </trkpt>
      <trkpt lat="48.51803" lon="-2.0723">
        <ele>149</ele>
        <time>2010-07-27T16:37:04</time>
      </trkpt>
      <trkpt lat="48.51798" lon="-2.07227">
        <ele>150</ele>
        <time>2010-07-27T16:37:07</time>
      </trkpt>
      <trkpt lat="48.51793" lon="-2.07222">
        <ele>151.5</ele>
        <time>2010-07-27T16:37:10</time>
      </trkpt>
      <trkpt lat="48.51788" lon="-2.07217">
        <ele>152.5</ele>
        <time>2010-07-27T16:37:13</time>
      </trkpt>
      <trkpt lat="48.51782" lon="-2.07212">
        <ele>154</ele>
        <time>2010-07-27T16:37:16</time>
      </trkpt>
      <trkpt lat="48.51776" lon="-2.07207">
        <ele>154</ele>
        <time>2010-07-27T16:37:19</time>
      </trkpt>
      <trkpt lat="48.51769" lon="-2.07202">
        <ele>154</ele>
        <time>2010-07-27T16:37:22</time>
      </trkpt>
      <trkpt lat="48.51763" lon="-2.07194">
        <ele>152</ele>
        <time>2010-07-27T16:37:25</time>
      </trkpt>
      <trkpt lat="48.51757" lon="-2.07184">
        <ele>151</ele>
        <time>2010-07-27T16:37:28</time>
      </trkpt>
      <trkpt lat="48.51753" lon="-2.07178">
        <ele>152</ele>
        <time>2010-07-27T16:37:31</time>
      </trkpt>
      <trkpt lat="48.51747" lon="-2.07169">
        <ele>151.5</ele>
        <time>2010-07-27T16:37:34</time>
      </trkpt>
      <trkpt lat="48.51739" lon="-2.07162">
        <ele>151</ele>
        <time>2010-07-27T16:37:37</time>
      </trkpt>
      <trkpt lat="48.51732" lon="-2.07156">
        <ele>151.5</ele>
        <time>2010-07-27T16:37:40</time>
      </trkpt>
      <trkpt lat="48.51724" lon="-2.07148">
        <ele>152</ele>
        <time>2010-07-27T16:37:43</time>
      </trkpt>
      <trkpt lat="48.51719" lon="-2.07144">
        <ele>149.5</ele>
        <time>2010-07-27T16:37:46</time>
      </trkpt>
      <trkpt lat="48.51712" lon="-2.07139">
        <ele>145</ele>
        <time>2010-07-27T16:37:49</time>
      </trkpt>
      <trkpt lat="48.51703" lon="-2.07128">
        <ele>138.5</ele>
        <time>2010-07-27T16:37:52</time>
      </trkpt>
      <trkpt lat="48.51703" lon="-2.07117">
        <ele>139.5</ele>
        <time>2010-07-27T16:37:55</time>
      </trkpt>
      <trkpt lat="48.51702" lon="-2.07102">
        <ele>140.5</ele>
        <time>2010-07-27T16:37:58</time>
      </trkpt>
      <trkpt lat="48.51703" lon="-2.07088">
        <ele>141</ele>
        <time>2010-07-27T16:38:01</time>
      </trkpt>
      <trkpt lat="48.51702" lon="-2.07075">
        <ele>141.5</ele>
        <time>2010-07-27T16:38:04</time>
      </trkpt>
      <trkpt lat="48.51703" lon="-2.07062">
        <ele>143</ele>
        <time>2010-07-27T16:38:07</time>
      </trkpt>
      <trkpt lat="48.51704" lon="-2.0705">
        <ele>144</ele>
        <time>2010-07-27T16:38:10</time>
      </trkpt>
      <trkpt lat="48.51705" lon="-2.07036">
        <ele>145.5</ele>
        <time>2010-07-27T16:38:13</time>
      </trkpt>
      <trkpt lat="48.51705" lon="-2.07021">
        <ele>145.5</ele>
        <time>2010-07-27T16:38:16</time>
      </trkpt>
      <trkpt lat="48.51703" lon="-2.07003">
        <ele>143.5</ele>
        <time>2010-07-27T16:38:19</time>
      </trkpt>
      <trkpt lat="48.517" lon="-2.06986">
        <ele>138.5</ele>
        <time>2010-07-27T16:38:22</time>
      </trkpt>
      <trkpt lat="48.51699" lon="-2.06967">
        <ele>137.5</ele>
        <time>2010-07-27T16:38:25</time>
      </trkpt>
      <trkpt lat="48.51696" lon="-2.0695">
        <ele>137</ele>
        <time>2010-07-27T16:38:28</time>
      </trkpt>
      <trkpt lat="48.51692" lon="-2.06934">
        <ele>136.5</ele>
        <time>2010-07-27T16:38:31</time>
      </trkpt>
      <trkpt lat="48.5169" lon="-2.06917">
        <ele>136.5</ele>
        <time>2010-07-27T16:38:34</time>
      </trkpt>
      <trkpt lat="48.51689" lon="-2.06903">
        <ele>136.5</ele>
        <time>2010-07-27T16:38:37</time>
      </trkpt>
      <trkpt lat="48.51689" lon="-2.06886">
        <ele>135.5</ele>
        <time>2010-07-27T16:38:40</time>
      </trkpt>
      <trkpt lat="48.5169" lon="-2.06871">
        <ele>135</ele>
        <time>2010-07-27T16:38:43</time>
      </trkpt>
      <trkpt lat="48.51696" lon="-2.06861">
        <ele>135</ele>
        <time>2010-07-27T16:38:46</time>
      </trkpt>
      <trkpt lat="48.51706" lon="-2.0686">
        <ele>134.5</ele>
        <time>2010-07-27T16:38:49</time>
      </trkpt>
      <trkpt lat="48.51715" lon="-2.06863">
        <ele>134</ele>
        <time>2010-07-27T16:38:52</time>
      </trkpt>
      <trkpt lat="48.51725" lon="-2.06866">
        <ele>133.5</ele>
        <time>2010-07-27T16:38:55</time>
      </trkpt>
      <trkpt lat="48.51735" lon="-2.06869">
        <ele>133</ele>
        <time>2010-07-27T16:38:58</time>
      </trkpt>
      <trkpt lat="48.51745" lon="-2.06871">
        <ele>132.5</ele>
        <time>2010-07-27T16:39:01</time>
      </trkpt>
      <trkpt lat="48.51755" lon="-2.06873">
        <ele>132.5</ele>
        <time>2010-07-27T16:39:04</time>
      </trkpt>
      <trkpt lat="48.51764" lon="-2.06871">
        <ele>133</ele>
        <time>2010-07-27T16:39:07</time>
      </trkpt>
      <trkpt lat="48.5177" lon="-2.06858">
        <ele>133</ele>
        <time>2010-07-27T16:39:10</time>
      </trkpt>
      <trkpt lat="48.51773" lon="-2.06842">
        <ele>132.5</ele>
        <time>2010-07-27T16:39:13</time>
      </trkpt>
      <trkpt lat="48.51776" lon="-2.06826">
        <ele>132.5</ele>
        <time>2010-07-27T16:39:16</time>
      </trkpt>
      <trkpt lat="48.51778" lon="-2.06808">
        <ele>132.5</ele>
        <time>2010-07-27T16:39:19</time>
      </trkpt>
      <trkpt lat="48.51781" lon="-2.06776">
        <ele>132</ele>
        <time>2010-07-27T16:39:25</time>
      </trkpt>
      <trkpt lat="48.51784" lon="-2.06758">
        <ele>131.5</ele>
        <time>2010-07-27T16:39:28</time>
      </trkpt>
      <trkpt lat="48.51786" lon="-2.06739">
        <ele>131.5</ele>
        <time>2010-07-27T16:39:31</time>
      </trkpt>
      <trkpt lat="48.51789" lon="-2.0672">
        <ele>131</ele>
        <time>2010-07-27T16:39:36</time>
      </trkpt>
      <trkpt lat="48.51793" lon="-2.0669">
        <ele>130.5</ele>
        <time>2010-07-27T16:39:39</time>
      </trkpt>
      <trkpt lat="48.51795" lon="-2.06668">
        <ele>130.5</ele>
        <time>2010-07-27T16:39:42</time>
      </trkpt>
      <trkpt lat="48.51798" lon="-2.06635">
        <ele>130</ele>
        <time>2010-07-27T16:39:48</time>
      </trkpt>
      <trkpt lat="48.518" lon="-2.06615">
        <ele>130</ele>
        <time>2010-07-27T16:39:51</time>
      </trkpt>
      <trkpt lat="48.51802" lon="-2.06591">
        <ele>130</ele>
        <time>2010-07-27T16:39:54</time>
      </trkpt>
      <trkpt lat="48.51802" lon="-2.06567">
        <ele>130</ele>
        <time>2010-07-27T16:40:00</time>
      </trkpt>
      <trkpt lat="48.51801" lon="-2.06561">
        <ele>130</ele>
        <time>2010-07-27T16:40:03</time>
      </trkpt>
      <trkpt lat="48.518" lon="-2.0655">
        <ele>130</ele>
        <time>2010-07-27T16:40:06</time>
      </trkpt>
      <trkpt lat="48.51805" lon="-2.06524">
        <ele>129.5</ele>
        <time>2010-07-27T16:40:12</time>
      </trkpt>
      <trkpt lat="48.5181" lon="-2.06505">
        <ele>129.5</ele>
        <time>2010-07-27T16:40:15</time>
      </trkpt>
      <trkpt lat="48.51818" lon="-2.06479">
        <ele>129</ele>
        <time>2010-07-27T16:40:18</time>
      </trkpt>
      <trkpt lat="48.5183" lon="-2.06447">
        <ele>129.5</ele>
        <time>2010-07-27T16:40:24</time>
      </trkpt>
      <trkpt lat="48.51849" lon="-2.06399">
        <ele>129</ele>
        <time>2010-07-27T16:40:30</time>
      </trkpt>
      <trkpt lat="48.51855" lon="-2.06384">
        <ele>128</ele>
        <time>2010-07-27T16:40:33</time>
      </trkpt>
      <trkpt lat="48.51866" lon="-2.06357">
        <ele>127.5</ele>
        <time>2010-07-27T16:40:36</time>
      </trkpt>
      <trkpt lat="48.51871" lon="-2.06343">
        <ele>128</ele>
        <time>2010-07-27T16:40:39</time>
      </trkpt>
      <trkpt lat="48.51881" lon="-2.06314">
        <ele>127</ele>
        <time>2010-07-27T16:40:42</time>
      </trkpt>
      <trkpt lat="48.51888" lon="-2.06295">
        <ele>126.5</ele>
        <time>2010-07-27T16:40:45</time>
      </trkpt>
      <trkpt lat="48.51895" lon="-2.06283">
        <ele>125</ele>
        <time>2010-07-27T16:40:48</time>
      </trkpt>
      <trkpt lat="48.51899" lon="-2.06279">
        <ele>125</ele>
        <time>2010-07-27T16:40:51</time>
      </trkpt>
      <trkpt lat="48.519" lon="-2.06274">
        <ele>125</ele>
        <time>2010-07-27T16:40:54</time>
      </trkpt>
      <trkpt lat="48.51899" lon="-2.06268">
        <ele>124</ele>
        <time>2010-07-27T16:40:57</time>
      </trkpt>
      <trkpt lat="48.51898" lon="-2.06261">
        <ele>124.5</ele>
        <time>2010-07-27T16:41:00</time>
      </trkpt>
      <trkpt lat="48.51899" lon="-2.06253">
        <ele>124</ele>
        <time>2010-07-27T16:41:03</time>
      </trkpt>
      <trkpt lat="48.51901" lon="-2.06248">
        <ele>123</ele>
        <time>2010-07-27T16:41:06</time>
      </trkpt>
      <trkpt lat="48.51907" lon="-2.06243">
        <ele>123</ele>
        <time>2010-07-27T16:41:09</time>
      </trkpt>
      <trkpt lat="48.51912" lon="-2.06241">
        <ele>123.5</ele>
        <time>2010-07-27T16:41:12</time>
      </trkpt>
      <trkpt lat="48.51916" lon="-2.0624">
        <ele>124.5</ele>
        <time>2010-07-27T16:41:15</time>
      </trkpt>
      <trkpt lat="48.51923" lon="-2.06238">
        <ele>125</ele>
        <time>2010-07-27T16:41:18</time>
      </trkpt>
      <trkpt lat="48.51932" lon="-2.06234">
        <ele>125.5</ele>
        <time>2010-07-27T16:41:21</time>
      </trkpt>
      <trkpt lat="48.51941" lon="-2.06227">
        <ele>125.5</ele>
        <time>2010-07-27T16:41:24</time>
      </trkpt>
      <trkpt lat="48.51949" lon="-2.06218">
        <ele>125.5</ele>
        <time>2010-07-27T16:41:27</time>
      </trkpt>
      <trkpt lat="48.51959" lon="-2.06209">
        <ele>124.5</ele>
        <time>2010-07-27T16:41:30</time>
      </trkpt>
      <trkpt lat="48.5197" lon="-2.06197">
        <ele>123.5</ele>
        <time>2010-07-27T16:41:33</time>
      </trkpt>
      <trkpt lat="48.51983" lon="-2.06188">
        <ele>123</ele>
        <time>2010-07-27T16:41:36</time>
      </trkpt>
      <trkpt lat="48.51995" lon="-2.06181">
        <ele>123</ele>
        <time>2010-07-27T16:41:39</time>
      </trkpt>
      <trkpt lat="48.52005" lon="-2.06174">
        <ele>123</ele>
        <time>2010-07-27T16:41:42</time>
      </trkpt>
      <trkpt lat="48.52011" lon="-2.06171">
        <ele>123.5</ele>
        <time>2010-07-27T16:41:45</time>
      </trkpt>
      <trkpt lat="48.52017" lon="-2.06162">
        <ele>123</ele>
        <time>2010-07-27T16:41:48</time>
      </trkpt>
      <trkpt lat="48.52019" lon="-2.06156">
        <ele>123</ele>
        <time>2010-07-27T16:41:51</time>
      </trkpt>
      <trkpt lat="48.52018" lon="-2.06151">
        <ele>123</ele>
        <time>2010-07-27T16:41:54</time>
      </trkpt>
      <trkpt lat="48.52018" lon="-2.06146">
        <ele>122.5</ele>
        <time>2010-07-27T16:41:57</time>
      </trkpt>
      <trkpt lat="48.52017" lon="-2.0614">
        <ele>122</ele>
        <time>2010-07-27T16:42:00</time>
      </trkpt>
      <trkpt lat="48.52021" lon="-2.06132">
        <ele>121.5</ele>
        <time>2010-07-27T16:42:03</time>
      </trkpt>
      <trkpt lat="48.52026" lon="-2.06127">
        <ele>120.5</ele>
        <time>2010-07-27T16:42:06</time>
      </trkpt>
      <trkpt lat="48.52029" lon="-2.0612">
        <ele>119</ele>
        <time>2010-07-27T16:42:09</time>
      </trkpt>
      <trkpt lat="48.5203" lon="-2.06113">
        <ele>120.5</ele>
        <time>2010-07-27T16:42:12</time>
      </trkpt>
      <trkpt lat="48.52031" lon="-2.06113">
        <ele>121</ele>
        <time>2010-07-27T16:42:15</time>
      </trkpt>
      <trkpt lat="48.52032" lon="-2.06111">
        <ele>121</ele>
        <time>2010-07-27T16:42:18</time>
      </trkpt>
      <trkpt lat="48.52036" lon="-2.06108">
        <ele>121.5</ele>
        <time>2010-07-27T16:42:21</time>
      </trkpt>
      <trkpt lat="48.5204" lon="-2.06106">
        <ele>121</ele>
        <time>2010-07-27T16:42:24</time>
      </trkpt>
      <trkpt lat="48.52047" lon="-2.06102">
        <ele>121.5</ele>
        <time>2010-07-27T16:42:27</time>
      </trkpt>
      <trkpt lat="48.52057" lon="-2.06094">
        <ele>122.5</ele>
        <time>2010-07-27T16:42:30</time>
      </trkpt>
      <trkpt lat="48.52061" lon="-2.0609">
        <ele>122</ele>
        <time>2010-07-27T16:42:33</time>
      </trkpt>
      <trkpt lat="48.52068" lon="-2.06083">
        <ele>120.5</ele>
        <time>2010-07-27T16:42:36</time>
      </trkpt>
      <trkpt lat="48.52074" lon="-2.06075">
        <ele>116.5</ele>
        <time>2010-07-27T16:42:42</time>
      </trkpt>
      <trkpt lat="48.52079" lon="-2.06072">
        <ele>115.5</ele>
        <time>2010-07-27T16:42:45</time>
      </trkpt>
      <trkpt lat="48.52084" lon="-2.06067">
        <ele>114.5</ele>
        <time>2010-07-27T16:42:48</time>
      </trkpt>
      <trkpt lat="48.52091" lon="-2.06061">
        <ele>115</ele>
        <time>2010-07-27T16:42:54</time>
      </trkpt>
      <trkpt lat="48.52096" lon="-2.06056">
        <ele>114.5</ele>
        <time>2010-07-27T16:42:57</time>
      </trkpt>
      <trkpt lat="48.521" lon="-2.06051">
        <ele>115.5</ele>
        <time>2010-07-27T16:43:00</time>
      </trkpt>
      <trkpt lat="48.52103" lon="-2.06045">
        <ele>115.5</ele>
        <time>2010-07-27T16:43:03</time>
      </trkpt>
      <trkpt lat="48.52106" lon="-2.06039">
        <ele>118</ele>
        <time>2010-07-27T16:43:06</time>
      </trkpt>
      <trkpt lat="48.52109" lon="-2.06026">
        <ele>121</ele>
        <time>2010-07-27T16:43:12</time>
      </trkpt>
      <trkpt lat="48.5211" lon="-2.06022">
        <ele>122</ele>
        <time>2010-07-27T16:43:15</time>
      </trkpt>
      <trkpt lat="48.5211" lon="-2.06017">
        <ele>123.5</ele>
        <time>2010-07-27T16:43:18</time>
      </trkpt>
      <trkpt lat="48.52114" lon="-2.06001">
        <ele>123.5</ele>
        <time>2010-07-27T16:43:24</time>
      </trkpt>
      <trkpt lat="48.52117" lon="-2.05994">
        <ele>120.5</ele>
        <time>2010-07-27T16:43:27</time>
      </trkpt>
      <trkpt lat="48.52123" lon="-2.05985">
        <ele>120.5</ele>
        <time>2010-07-27T16:43:30</time>
      </trkpt>
      <trkpt lat="48.52139" lon="-2.0597">
        <ele>120</ele>
        <time>2010-07-27T16:43:36</time>
      </trkpt>
      <trkpt lat="48.52145" lon="-2.05965">
        <ele>120.5</ele>
        <time>2010-07-27T16:43:39</time>
      </trkpt>
      <trkpt lat="48.52152" lon="-2.05955">
        <ele>118</ele>
        <time>2010-07-27T16:43:42</time>
      </trkpt>
      <trkpt lat="48.52163" lon="-2.05935">
        <ele>115.5</ele>
        <time>2010-07-27T16:43:48</time>
      </trkpt>
      <trkpt lat="48.52165" lon="-2.05926">
        <ele>116.5</ele>
        <time>2010-07-27T16:43:51</time>
      </trkpt>
      <trkpt lat="48.52165" lon="-2.05916">
        <ele>116.5</ele>
        <time>2010-07-27T16:43:54</time>
      </trkpt>
      <trkpt lat="48.52166" lon="-2.05895">
        <ele>116.5</ele>
        <time>2010-07-27T16:44:00</time>
      </trkpt>
      <trkpt lat="48.52167" lon="-2.05884">
        <ele>115.5</ele>
        <time>2010-07-27T16:44:03</time>
      </trkpt>
      <trkpt lat="48.52168" lon="-2.05874">
        <ele>116</ele>
        <time>2010-07-27T16:44:06</time>
      </trkpt>
      <trkpt lat="48.52168" lon="-2.05854">
        <ele>117</ele>
        <time>2010-07-27T16:44:12</time>
      </trkpt>
      <trkpt lat="48.52169" lon="-2.05844">
        <ele>118</ele>
        <time>2010-07-27T16:44:15</time>
      </trkpt>
      <trkpt lat="48.52174" lon="-2.05834">
        <ele>117.5</ele>
        <time>2010-07-27T16:44:18</time>
      </trkpt>
      <trkpt lat="48.52187" lon="-2.05835">
        <ele>117</ele>
        <time>2010-07-27T16:44:24</time>
      </trkpt>
      <trkpt lat="48.52196" lon="-2.05836">
        <ele>116.5</ele>
        <time>2010-07-27T16:44:27</time>
      </trkpt>
      <trkpt lat="48.52207" lon="-2.05838">
        <ele>116.5</ele>
        <time>2010-07-27T16:44:30</time>
      </trkpt>
      <trkpt lat="48.52227" lon="-2.05833">
        <ele>114</ele>
        <time>2010-07-27T16:44:36</time>
      </trkpt>
      <trkpt lat="48.52234" lon="-2.05827">
        <ele>114</ele>
        <time>2010-07-27T16:44:39</time>
      </trkpt>
      <trkpt lat="48.52237" lon="-2.05819">
        <ele>114.5</ele>
        <time>2010-07-27T16:44:42</time>
      </trkpt>
      <trkpt lat="48.5224" lon="-2.05803">
        <ele>116</ele>
        <time>2010-07-27T16:44:48</time>
      </trkpt>
      <trkpt lat="48.52241" lon="-2.05795">
        <ele>115.5</ele>
        <time>2010-07-27T16:44:51</time>
      </trkpt>
      <trkpt lat="48.52241" lon="-2.05785">
        <ele>117</ele>
        <time>2010-07-27T16:44:54</time>
      </trkpt>
      <trkpt lat="48.52241" lon="-2.05772">
        <ele>118.5</ele>
        <time>2010-07-27T16:45:00</time>
      </trkpt>
      <trkpt lat="48.52242" lon="-2.05763">
        <ele>119.5</ele>
        <time>2010-07-27T16:45:03</time>
      </trkpt>
      <trkpt lat="48.52242" lon="-2.05755">
        <ele>120.5</ele>
        <time>2010-07-27T16:45:06</time>
      </trkpt>
      <trkpt lat="48.52243" lon="-2.05739">
        <ele>124</ele>
        <time>2010-07-27T16:45:12</time>
      </trkpt>
      <trkpt lat="48.52243" lon="-2.05731">
        <ele>125</ele>
        <time>2010-07-27T16:45:15</time>
      </trkpt>
      <trkpt lat="48.52243" lon="-2.05723">
        <ele>125</ele>
        <time>2010-07-27T16:45:18</time>
      </trkpt>
      <trkpt lat="48.5224" lon="-2.05705">
        <ele>124</ele>
        <time>2010-07-27T16:45:24</time>
      </trkpt>
      <trkpt lat="48.5224" lon="-2.05696">
        <ele>124</ele>
        <time>2010-07-27T16:45:27</time>
      </trkpt>
      <trkpt lat="48.52239" lon="-2.05683">
        <ele>124.5</ele>
        <time>2010-07-27T16:45:30</time>
      </trkpt>
      <trkpt lat="48.52239" lon="-2.05666">
        <ele>127</ele>
        <time>2010-07-27T16:45:36</time>
      </trkpt>
      <trkpt lat="48.52241" lon="-2.05659">
        <ele>128.5</ele>
        <time>2010-07-27T16:45:39</time>
      </trkpt>
      <trkpt lat="48.52242" lon="-2.05648">
        <ele>128.5</ele>
        <time>2010-07-27T16:45:42</time>
      </trkpt>
      <trkpt lat="48.52237" lon="-2.05633">
        <ele>122.5</ele>
        <time>2010-07-27T16:45:48</time>
      </trkpt>
      <trkpt lat="48.52235" lon="-2.05624">
        <ele>121.5</ele>
        <time>2010-07-27T16:45:51</time>
      </trkpt>
      <trkpt lat="48.52235" lon="-2.05611">
        <ele>121.5</ele>
        <time>2010-07-27T16:45:54</time>
      </trkpt>
      <trkpt lat="48.52239" lon="-2.05596">
        <ele>123</ele>
        <time>2010-07-27T16:46:00</time>
      </trkpt>
      <trkpt lat="48.5224" lon="-2.05588">
        <ele>123.5</ele>
        <time>2010-07-27T16:46:03</time>
      </trkpt>
      <trkpt lat="48.52239" lon="-2.05575">
        <ele>125.5</ele>
        <time>2010-07-27T16:46:06</time>
      </trkpt>
      <trkpt lat="48.52239" lon="-2.0556">
        <ele>128.5</ele>
        <time>2010-07-27T16:46:12</time>
      </trkpt>
      <trkpt lat="48.52239" lon="-2.05549">
        <ele>130.5</ele>
        <time>2010-07-27T16:46:15</time>
      </trkpt>
      <trkpt lat="48.5224" lon="-2.05535">
        <ele>133.5</ele>
        <time>2010-07-27T16:46:18</time>
      </trkpt>
      <trkpt lat="48.5224" lon="-2.05517">
        <ele>136</ele>
        <time>2010-07-27T16:46:24</time>
      </trkpt>
      <trkpt lat="48.5224" lon="-2.05507">
        <ele>137</ele>
        <time>2010-07-27T16:46:27</time>
      </trkpt>
      <trkpt lat="48.52241" lon="-2.05494">
        <ele>138.5</ele>
        <time>2010-07-27T16:46:30</time>
      </trkpt>
      <trkpt lat="48.52242" lon="-2.05478">
        <ele>139</ele>
        <time>2010-07-27T16:46:36</time>
      </trkpt>
      <trkpt lat="48.52242" lon="-2.05469">
        <ele>139.5</ele>
        <time>2010-07-27T16:46:39</time>
      </trkpt>
      <trkpt lat="48.52242" lon="-2.05457">
        <ele>140</ele>
        <time>2010-07-27T16:46:42</time>
      </trkpt>
      <trkpt lat="48.5224" lon="-2.05442">
        <ele>138</ele>
        <time>2010-07-27T16:46:48</time>
      </trkpt>
      <trkpt lat="48.52241" lon="-2.05419">
        <ele>137</ele>
        <time>2010-07-27T16:46:54</time>
      </trkpt>
      <trkpt lat="48.52241" lon="-2.05409">
        <ele>137.5</ele>
        <time>2010-07-27T16:46:57</time>
      </trkpt>
      <trkpt lat="48.52242" lon="-2.054">
        <ele>138</ele>
        <time>2010-07-27T16:47:00</time>
      </trkpt>
      <trkpt lat="48.52243" lon="-2.05391">
        <ele>138</ele>
        <time>2010-07-27T16:47:03</time>
      </trkpt>
      <trkpt lat="48.52244" lon="-2.05381">
        <ele>138</ele>
        <time>2010-07-27T16:47:06</time>
      </trkpt>
      <trkpt lat="48.52244" lon="-2.05373">
        <ele>138</ele>
        <time>2010-07-27T16:47:09</time>
      </trkpt>
      <trkpt lat="48.52239" lon="-2.05367">
        <ele>138</ele>
        <time>2010-07-27T16:47:12</time>
      </trkpt>
      <trkpt lat="48.52233" lon="-2.05365">
        <ele>138</ele>
        <time>2010-07-27T16:47:15</time>
      </trkpt>
      <trkpt lat="48.52228" lon="-2.05362">
        <ele>136.5</ele>
        <time>2010-07-27T16:47:18</time>
      </trkpt>
      <trkpt lat="48.52222" lon="-2.05359">
        <ele>136</ele>
        <time>2010-07-27T16:47:21</time>
      </trkpt>
      <trkpt lat="48.52217" lon="-2.05356">
        <ele>136</ele>
        <time>2010-07-27T16:47:24</time>
      </trkpt>
      <trkpt lat="48.52211" lon="-2.05353">
        <ele>136</ele>
        <time>2010-07-27T16:47:27</time>
      </trkpt>
      <trkpt lat="48.52207" lon="-2.0535">
        <ele>136</ele>
        <time>2010-07-27T16:47:30</time>
      </trkpt>
      <trkpt lat="48.522" lon="-2.05346">
        <ele>134.5</ele>
        <time>2010-07-27T16:47:33</time>
      </trkpt>
      <trkpt lat="48.52195" lon="-2.05342">
        <ele>134</ele>
        <time>2010-07-27T16:47:36</time>
      </trkpt>
      <trkpt lat="48.52189" lon="-2.05338">
        <ele>134</ele>
        <time>2010-07-27T16:47:39</time>
      </trkpt>
      <trkpt lat="48.52183" lon="-2.05335">
        <ele>134</ele>
        <time>2010-07-27T16:47:43</time>
      </trkpt>
      <trkpt lat="48.52179" lon="-2.05326">
        <ele>133</ele>
        <time>2010-07-27T16:47:45</time>
      </trkpt>
      <trkpt lat="48.52177" lon="-2.05317">
        <ele>133.5</ele>
        <time>2010-07-27T16:47:49</time>
      </trkpt>
      <trkpt lat="48.52176" lon="-2.0531">
        <ele>132.5</ele>
        <time>2010-07-27T16:47:51</time>
      </trkpt>
      <trkpt lat="48.52174" lon="-2.05301">
        <ele>132</ele>
        <time>2010-07-27T16:47:55</time>
      </trkpt>
      <trkpt lat="48.52172" lon="-2.05293">
        <ele>131.5</ele>
        <time>2010-07-27T16:47:58</time>
      </trkpt>
      <trkpt lat="48.52172" lon="-2.05285">
        <ele>131.5</ele>
        <time>2010-07-27T16:48:01</time>
      </trkpt>
      <trkpt lat="48.52171" lon="-2.05277">
        <ele>131.5</ele>
        <time>2010-07-27T16:48:04</time>
      </trkpt>
      <trkpt lat="48.52171" lon="-2.05268">
        <ele>131.5</ele>
        <time>2010-07-27T16:48:07</time>
      </trkpt>
      <trkpt lat="48.5217" lon="-2.0526">
        <ele>131.5</ele>
        <time>2010-07-27T16:48:10</time>
      </trkpt>
      <trkpt lat="48.52168" lon="-2.05249">
        <ele>131</ele>
        <time>2010-07-27T16:48:13</time>
      </trkpt>
      <trkpt lat="48.52165" lon="-2.05238">
        <ele>132</ele>
        <time>2010-07-27T16:48:16</time>
      </trkpt>
      <trkpt lat="48.52163" lon="-2.05231">
        <ele>131.5</ele>
        <time>2010-07-27T16:48:19</time>
      </trkpt>
      <trkpt lat="48.52161" lon="-2.05225">
        <ele>131.5</ele>
        <time>2010-07-27T16:48:22</time>
      </trkpt>
      <trkpt lat="48.5216" lon="-2.05217">
        <ele>131.5</ele>
        <time>2010-07-27T16:48:25</time>
      </trkpt>
      <trkpt lat="48.52159" lon="-2.0521">
        <ele>131.5</ele>
        <time>2010-07-27T16:48:28</time>
      </trkpt>
      <trkpt lat="48.52158" lon="-2.05203">
        <ele>131.5</ele>
        <time>2010-07-27T16:48:31</time>
      </trkpt>
      <trkpt lat="48.52157" lon="-2.05194">
        <ele>131.5</ele>
        <time>2010-07-27T16:48:34</time>
      </trkpt>
      <trkpt lat="48.52156" lon="-2.05185">
        <ele>130.5</ele>
        <time>2010-07-27T16:48:37</time>
      </trkpt>
      <trkpt lat="48.52155" lon="-2.05178">
        <ele>131</ele>
        <time>2010-07-27T16:48:40</time>
      </trkpt>
      <trkpt lat="48.52154" lon="-2.05169">
        <ele>130.5</ele>
        <time>2010-07-27T16:48:43</time>
      </trkpt>
      <trkpt lat="48.52153" lon="-2.0516">
        <ele>130.5</ele>
        <time>2010-07-27T16:48:46</time>
      </trkpt>
      <trkpt lat="48.52151" lon="-2.05153">
        <ele>131</ele>
        <time>2010-07-27T16:48:49</time>
      </trkpt>
      <trkpt lat="48.5215" lon="-2.05143">
        <ele>129.5</ele>
        <time>2010-07-27T16:48:52</time>
      </trkpt>
      <trkpt lat="48.52149" lon="-2.05134">
        <ele>129.5</ele>
        <time>2010-07-27T16:48:55</time>
      </trkpt>
      <trkpt lat="48.52149" lon="-2.05125">
        <ele>129.5</ele>
        <time>2010-07-27T16:48:58</time>
      </trkpt>
      <trkpt lat="48.52148" lon="-2.05117">
        <ele>129.5</ele>
        <time>2010-07-27T16:49:01</time>
      </trkpt>
      <trkpt lat="48.52147" lon="-2.05108">
        <ele>130</ele>
        <time>2010-07-27T16:49:04</time>
      </trkpt>
      <trkpt lat="48.52149" lon="-2.05097">
        <ele>130.5</ele>
        <time>2010-07-27T16:49:07</time>
      </trkpt>
      <trkpt lat="48.52149" lon="-2.05084">
        <ele>131</ele>
        <time>2010-07-27T16:49:10</time>
      </trkpt>
      <trkpt lat="48.52149" lon="-2.05072">
        <ele>131.5</ele>
        <time>2010-07-27T16:49:13</time>
      </trkpt>
      <trkpt lat="48.52148" lon="-2.05061">
        <ele>132.5</ele>
        <time>2010-07-27T16:49:16</time>
      </trkpt>
      <trkpt lat="48.52147" lon="-2.05051">
        <ele>133</ele>
        <time>2010-07-27T16:49:19</time>
      </trkpt>
      <trkpt lat="48.52147" lon="-2.0504">
        <ele>134</ele>
        <time>2010-07-27T16:49:22</time>
      </trkpt>
      <trkpt lat="48.52146" lon="-2.05029">
        <ele>135.5</ele>
        <time>2010-07-27T16:49:25</time>
      </trkpt>
      <trkpt lat="48.52144" lon="-2.05019">
        <ele>136.5</ele>
        <time>2010-07-27T16:49:28</time>
      </trkpt>
      <trkpt lat="48.52144" lon="-2.05008">
        <ele>137</ele>
        <time>2010-07-27T16:49:31</time>
      </trkpt>
      <trkpt lat="48.52142" lon="-2.04996">
        <ele>137</ele>
        <time>2010-07-27T16:49:34</time>
      </trkpt>
      <trkpt lat="48.52142" lon="-2.04986">
        <ele>137</ele>
        <time>2010-07-27T16:49:37</time>
      </trkpt>
      <trkpt lat="48.52141" lon="-2.04975">
        <ele>137.5</ele>
        <time>2010-07-27T16:49:40</time>
      </trkpt>
      <trkpt lat="48.5214" lon="-2.04965">
        <ele>138</ele>
        <time>2010-07-27T16:49:43</time>
      </trkpt>
      <trkpt lat="48.52139" lon="-2.04954">
        <ele>139.5</ele>
        <time>2010-07-27T16:49:46</time>
      </trkpt>
      <trkpt lat="48.52138" lon="-2.04943">
        <ele>140</ele>
        <time>2010-07-27T16:49:49</time>
      </trkpt>
      <trkpt lat="48.52138" lon="-2.04931">
        <ele>140.5</ele>
        <time>2010-07-27T16:49:52</time>
      </trkpt>
      <trkpt lat="48.52137" lon="-2.04919">
        <ele>140</ele>
        <time>2010-07-27T16:49:55</time>
      </trkpt>
      <trkpt lat="48.52137" lon="-2.04908">
        <ele>140.5</ele>
        <time>2010-07-27T16:49:58</time>
      </trkpt>
      <trkpt lat="48.52137" lon="-2.04897">
        <ele>141</ele>
        <time>2010-07-27T16:50:01</time>
      </trkpt>
      <trkpt lat="48.52138" lon="-2.04889">
        <ele>140.5</ele>
        <time>2010-07-27T16:50:04</time>
      </trkpt>
      <trkpt lat="48.52139" lon="-2.04887">
        <ele>140</ele>
        <time>2010-07-27T16:50:07</time>
      </trkpt>
      <trkpt lat="48.52139" lon="-2.04883">
        <ele>139.5</ele>
        <time>2010-07-27T16:50:10</time>
      </trkpt>
      <trkpt lat="48.52141" lon="-2.04876">
        <ele>139.5</ele>
        <time>2010-07-27T16:50:13</time>
      </trkpt>
      <trkpt lat="48.52143" lon="-2.04868">
        <ele>140</ele>
        <time>2010-07-27T16:50:16</time>
      </trkpt>
      <trkpt lat="48.52145" lon="-2.04859">
        <ele>140</ele>
        <time>2010-07-27T16:50:19</time>
      </trkpt>
      <trkpt lat="48.52148" lon="-2.04848">
        <ele>140</ele>
        <time>2010-07-27T16:50:22</time>
      </trkpt>
      <trkpt lat="48.52149" lon="-2.04837">
        <ele>140.5</ele>
        <time>2010-07-27T16:50:25</time>
      </trkpt>
      <trkpt lat="48.52155" lon="-2.04818">
        <ele>140</ele>
        <time>2010-07-27T16:50:31</time>
      </trkpt>
      <trkpt lat="48.5216" lon="-2.04818">
        <ele>140</ele>
        <time>2010-07-27T16:50:34</time>
      </trkpt>
      <trkpt lat="48.52167" lon="-2.04826">
        <ele>139.5</ele>
        <time>2010-07-27T16:50:37</time>
      </trkpt>
      <trkpt lat="48.52173" lon="-2.04833">
        <ele>139.5</ele>
        <time>2010-07-27T16:50:40</time>
      </trkpt>
      <trkpt lat="48.52179" lon="-2.04839">
        <ele>139</ele>
        <time>2010-07-27T16:50:43</time>
      </trkpt>
      <trkpt lat="48.52184" lon="-2.04845">
        <ele>139</ele>
        <time>2010-07-27T16:50:46</time>
      </trkpt>
      <trkpt lat="48.5219" lon="-2.04851">
        <ele>138</ele>
        <time>2010-07-27T16:50:49</time>
      </trkpt>
      <trkpt lat="48.52196" lon="-2.04859">
        <ele>138</ele>
        <time>2010-07-27T16:50:52</time>
      </trkpt>
      <trkpt lat="48.52201" lon="-2.04866">
        <ele>138</ele>
        <time>2010-07-27T16:50:55</time>
      </trkpt>
      <trkpt lat="48.52207" lon="-2.04872">
        <ele>137.5</ele>
        <time>2010-07-27T16:50:58</time>
      </trkpt>
      <trkpt lat="48.52214" lon="-2.04878">
        <ele>137.5</ele>
        <time>2010-07-27T16:51:01</time>
      </trkpt>
      <trkpt lat="48.52219" lon="-2.04884">
        <ele>138.5</ele>
        <time>2010-07-27T16:51:04</time>
      </trkpt>
      <trkpt lat="48.52225" lon="-2.0489">
        <ele>138</ele>
        <time>2010-07-27T16:51:07</time>
      </trkpt>
      <trkpt lat="48.5223" lon="-2.04899">
        <ele>137.5</ele>
        <time>2010-07-27T16:51:10</time>
      </trkpt>
      <trkpt lat="48.52235" lon="-2.04907">
        <ele>137.5</ele>
        <time>2010-07-27T16:51:13</time>
      </trkpt>
      <trkpt lat="48.52239" lon="-2.04911">
        <ele>138</ele>
        <time>2010-07-27T16:51:16</time>
      </trkpt>
      <trkpt lat="48.52246" lon="-2.04917">
        <ele>139.5</ele>
        <time>2010-07-27T16:51:19</time>
      </trkpt>
      <trkpt lat="48.52253" lon="-2.04921">
        <ele>140.5</ele>
        <time>2010-07-27T16:51:22</time>
      </trkpt>
      <trkpt lat="48.52262" lon="-2.04916">
        <ele>135</ele>
        <time>2010-07-27T16:51:25</time>
      </trkpt>
      <trkpt lat="48.52267" lon="-2.04906">
        <ele>133.5</ele>
        <time>2010-07-27T16:51:28</time>
      </trkpt>
      <trkpt lat="48.52272" lon="-2.04893">
        <ele>132</ele>
        <time>2010-07-27T16:51:31</time>
      </trkpt>
      <trkpt lat="48.52284" lon="-2.04862">
        <ele>131</ele>
        <time>2010-07-27T16:51:37</time>
      </trkpt>
      <trkpt lat="48.52292" lon="-2.04843">
        <ele>133</ele>
        <time>2010-07-27T16:51:42</time>
      </trkpt>
      <trkpt lat="48.52296" lon="-2.04834">
        <ele>131</ele>
        <time>2010-07-27T16:51:45</time>
      </trkpt>
      <trkpt lat="48.52299" lon="-2.04818">
        <ele>131</ele>
        <time>2010-07-27T16:51:48</time>
      </trkpt>
      <trkpt lat="48.52303" lon="-2.04794">
        <ele>131</ele>
        <time>2010-07-27T16:51:54</time>
      </trkpt>
      <trkpt lat="48.52304" lon="-2.04782">
        <ele>132</ele>
        <time>2010-07-27T16:51:57</time>
      </trkpt>
      <trkpt lat="48.52306" lon="-2.04765">
        <ele>131.5</ele>
        <time>2010-07-27T16:52:00</time>
      </trkpt>
      <trkpt lat="48.5231" lon="-2.04742">
        <ele>133</ele>
        <time>2010-07-27T16:52:06</time>
      </trkpt>
      <trkpt lat="48.52315" lon="-2.04728">
        <ele>133.5</ele>
        <time>2010-07-27T16:52:09</time>
      </trkpt>
      <trkpt lat="48.52319" lon="-2.04707">
        <ele>133.5</ele>
        <time>2010-07-27T16:52:12</time>
      </trkpt>
      <trkpt lat="48.52328" lon="-2.0468">
        <ele>133</ele>
        <time>2010-07-27T16:52:18</time>
      </trkpt>
      <trkpt lat="48.52331" lon="-2.0467">
        <ele>133</ele>
        <time>2010-07-27T16:52:21</time>
      </trkpt>
      <trkpt lat="48.52333" lon="-2.04662">
        <ele>133.5</ele>
        <time>2010-07-27T16:52:24</time>
      </trkpt>
      <trkpt lat="48.52341" lon="-2.04648">
        <ele>133.5</ele>
        <time>2010-07-27T16:52:30</time>
      </trkpt>
      <trkpt lat="48.52342" lon="-2.04646">
        <ele>133.5</ele>
        <time>2010-07-27T16:52:33</time>
      </trkpt>
      <trkpt lat="48.52342" lon="-2.04645">
        <ele>133</ele>
        <time>2010-07-27T16:52:36</time>
      </trkpt>
      <trkpt lat="48.52342" lon="-2.04645">
        <ele>133.5</ele>
        <time>2010-07-27T16:52:39</time>
      </trkpt>
      <trkpt lat="48.52342" lon="-2.04643">
        <ele>134</ele>
        <time>2010-07-27T16:52:43</time>
      </trkpt>
      <trkpt lat="48.52334" lon="-2.04633">
        <ele>134.5</ele>
        <time>2010-07-27T16:52:48</time>
      </trkpt>
      <trkpt lat="48.52326" lon="-2.04625">
        <ele>134</ele>
        <time>2010-07-27T16:52:52</time>
      </trkpt>
      <trkpt lat="48.52318" lon="-2.04615">
        <ele>133.5</ele>
        <time>2010-07-27T16:52:55</time>
      </trkpt>
      <trkpt lat="48.523" lon="-2.04593">
        <ele>134</ele>
        <time>2010-07-27T16:53:01</time>
      </trkpt>
      <trkpt lat="48.52291" lon="-2.04583">
        <ele>134.5</ele>
        <time>2010-07-27T16:53:04</time>
      </trkpt>
      <trkpt lat="48.52282" lon="-2.04573">
        <ele>134</ele>
        <time>2010-07-27T16:53:07</time>
      </trkpt>
      <trkpt lat="48.52273" lon="-2.04563">
        <ele>134.5</ele>
        <time>2010-07-27T16:53:10</time>
      </trkpt>
      <trkpt lat="48.52265" lon="-2.04553">
        <ele>134.5</ele>
        <time>2010-07-27T16:53:13</time>
      </trkpt>
      <trkpt lat="48.52256" lon="-2.04543">
        <ele>135</ele>
        <time>2010-07-27T16:53:16</time>
      </trkpt>
      <trkpt lat="48.52247" lon="-2.04533">
        <ele>135</ele>
        <time>2010-07-27T16:53:19</time>
      </trkpt>
      <trkpt lat="48.52238" lon="-2.04522">
        <ele>135</ele>
        <time>2010-07-27T16:53:22</time>
      </trkpt>
      <trkpt lat="48.52229" lon="-2.04511">
        <ele>135</ele>
        <time>2010-07-27T16:53:25</time>
      </trkpt>
      <trkpt lat="48.52219" lon="-2.045">
        <ele>135</ele>
        <time>2010-07-27T16:53:28</time>
      </trkpt>
      <trkpt lat="48.52211" lon="-2.04488">
        <ele>135.5</ele>
        <time>2010-07-27T16:53:31</time>
      </trkpt>
      <trkpt lat="48.52199" lon="-2.04479">
        <ele>135</ele>
        <time>2010-07-27T16:53:34</time>
      </trkpt>
      <trkpt lat="48.52182" lon="-2.04477">
        <ele>134</ele>
        <time>2010-07-27T16:53:37</time>
      </trkpt>
      <trkpt lat="48.52163" lon="-2.04478">
        <ele>133.5</ele>
        <time>2010-07-27T16:53:40</time>
      </trkpt>
      <trkpt lat="48.52142" lon="-2.04484">
        <ele>133</ele>
        <time>2010-07-27T16:53:43</time>
      </trkpt>
      <trkpt lat="48.52122" lon="-2.0449">
        <ele>133</ele>
        <time>2010-07-27T16:53:46</time>
      </trkpt>
      <trkpt lat="48.521" lon="-2.04494">
        <ele>132.5</ele>
        <time>2010-07-27T16:53:49</time>
      </trkpt>
      <trkpt lat="48.52078" lon="-2.04488">
        <ele>132.5</ele>
        <time>2010-07-27T16:53:52</time>
      </trkpt>
      <trkpt lat="48.5206" lon="-2.04467">
        <ele>132.5</ele>
        <time>2010-07-27T16:53:55</time>
      </trkpt>
      <trkpt lat="48.52049" lon="-2.04435">
        <ele>132.5</ele>
        <time>2010-07-27T16:53:58</time>
      </trkpt>
      <trkpt lat="48.52039" lon="-2.04403">
        <ele>132.5</ele>
        <time>2010-07-27T16:54:01</time>
      </trkpt>
      <trkpt lat="48.52028" lon="-2.0437">
        <ele>131.5</ele>
        <time>2010-07-27T16:54:04</time>
      </trkpt>
      <trkpt lat="48.52017" lon="-2.04336">
        <ele>131</ele>
        <time>2010-07-27T16:54:07</time>
      </trkpt>
      <trkpt lat="48.52003" lon="-2.04303">
        <ele>130.5</ele>
        <time>2010-07-27T16:54:10</time>
      </trkpt>
      <trkpt lat="48.51986" lon="-2.04271">
        <ele>129.5</ele>
        <time>2010-07-27T16:54:13</time>
      </trkpt>
      <trkpt lat="48.5197" lon="-2.04235">
        <ele>128.5</ele>
        <time>2010-07-27T16:54:16</time>
      </trkpt>
      <trkpt lat="48.51961" lon="-2.04192">
        <ele>128</ele>
        <time>2010-07-27T16:54:19</time>
      </trkpt>
      <trkpt lat="48.51953" lon="-2.0415">
        <ele>127.5</ele>
        <time>2010-07-27T16:54:22</time>
      </trkpt>
      <trkpt lat="48.51947" lon="-2.04115">
        <ele>127</ele>
        <time>2010-07-27T16:54:25</time>
      </trkpt>
      <trkpt lat="48.51941" lon="-2.04091">
        <ele>127</ele>
        <time>2010-07-27T16:54:28</time>
      </trkpt>
      <trkpt lat="48.51929" lon="-2.04071">
        <ele>127</ele>
        <time>2010-07-27T16:54:31</time>
      </trkpt>
      <trkpt lat="48.51914" lon="-2.04055">
        <ele>127</ele>
        <time>2010-07-27T16:54:34</time>
      </trkpt>
      <trkpt lat="48.51892" lon="-2.04031">
        <ele>126</ele>
        <time>2010-07-27T16:54:37</time>
      </trkpt>
      <trkpt lat="48.51879" lon="-2.04018">
        <ele>125.5</ele>
        <time>2010-07-27T16:54:40</time>
      </trkpt>
      <trkpt lat="48.51852" lon="-2.03988">
        <ele>123.5</ele>
        <time>2010-07-27T16:54:43</time>
      </trkpt>
      <trkpt lat="48.51815" lon="-2.03949">
        <ele>120.5</ele>
        <time>2010-07-27T16:54:49</time>
      </trkpt>
      <trkpt lat="48.51797" lon="-2.03928">
        <ele>119</ele>
        <time>2010-07-27T16:54:52</time>
      </trkpt>
      <trkpt lat="48.51781" lon="-2.03905">
        <ele>118.5</ele>
        <time>2010-07-27T16:54:55</time>
      </trkpt>
      <trkpt lat="48.51769" lon="-2.0388">
        <ele>117.5</ele>
        <time>2010-07-27T16:54:58</time>
      </trkpt>
      <trkpt lat="48.51757" lon="-2.03842">
        <ele>117.5</ele>
        <time>2010-07-27T16:55:01</time>
      </trkpt>
      <trkpt lat="48.51754" lon="-2.03835">
        <ele>117.5</ele>
        <time>2010-07-27T16:55:04</time>
      </trkpt>
      <trkpt lat="48.5175" lon="-2.03814">
        <ele>117</ele>
        <time>2010-07-27T16:55:07</time>
      </trkpt>
      <trkpt lat="48.5176" lon="-2.03806">
        <ele>117</ele>
        <time>2010-07-27T16:55:13</time>
      </trkpt>
      <trkpt lat="48.51765" lon="-2.03807">
        <ele>116.5</ele>
        <time>2010-07-27T16:55:16</time>
      </trkpt>
      <trkpt lat="48.51768" lon="-2.03808">
        <ele>117</ele>
        <time>2010-07-27T16:55:19</time>
      </trkpt>
      <trkpt lat="48.51773" lon="-2.03808">
        <ele>116.5</ele>
        <time>2010-07-27T16:55:22</time>
      </trkpt>
      <trkpt lat="48.51777" lon="-2.03806">
        <ele>117</ele>
        <time>2010-07-27T16:55:25</time>
      </trkpt>
      <trkpt lat="48.51782" lon="-2.03805">
        <ele>117</ele>
        <time>2010-07-27T16:55:28</time>
      </trkpt>
      <trkpt lat="48.51788" lon="-2.03804">
        <ele>117</ele>
        <time>2010-07-27T16:55:31</time>
      </trkpt>
      <trkpt lat="48.51793" lon="-2.03803">
        <ele>117</ele>
        <time>2010-07-27T16:55:34</time>
      </trkpt>
      <trkpt lat="48.51799" lon="-2.03801">
        <ele>117</ele>
        <time>2010-07-27T16:55:37</time>
      </trkpt>
      <trkpt lat="48.51805" lon="-2.038">
        <ele>118</ele>
        <time>2010-07-27T16:55:40</time>
      </trkpt>
      <trkpt lat="48.51812" lon="-2.03799">
        <ele>118</ele>
        <time>2010-07-27T16:55:43</time>
      </trkpt>
      <trkpt lat="48.51818" lon="-2.03798">
        <ele>118</ele>
        <time>2010-07-27T16:55:46</time>
      </trkpt>
      <trkpt lat="48.51824" lon="-2.03796">
        <ele>118.5</ele>
        <time>2010-07-27T16:55:49</time>
      </trkpt>
      <trkpt lat="48.5183" lon="-2.03795">
        <ele>118.5</ele>
        <time>2010-07-27T16:55:52</time>
      </trkpt>
      <trkpt lat="48.51837" lon="-2.03793">
        <ele>118</ele>
        <time>2010-07-27T16:55:55</time>
      </trkpt>
      <trkpt lat="48.51843" lon="-2.03791">
        <ele>118</ele>
        <time>2010-07-27T16:55:58</time>
      </trkpt>
      <trkpt lat="48.51849" lon="-2.03788">
        <ele>118.5</ele>
        <time>2010-07-27T16:56:01</time>
      </trkpt>
      <trkpt lat="48.51855" lon="-2.03785">
        <ele>118.5</ele>
        <time>2010-07-27T16:56:04</time>
      </trkpt>
      <trkpt lat="48.51862" lon="-2.03782">
        <ele>118.5</ele>
        <time>2010-07-27T16:56:07</time>
      </trkpt>
      <trkpt lat="48.51867" lon="-2.03779">
        <ele>119</ele>
        <time>2010-07-27T16:56:10</time>
      </trkpt>
      <trkpt lat="48.51873" lon="-2.03776">
        <ele>119.5</ele>
        <time>2010-07-27T16:56:13</time>
      </trkpt>
      <trkpt lat="48.51879" lon="-2.03773">
        <ele>120</ele>
        <time>2010-07-27T16:56:16</time>
      </trkpt>
      <trkpt lat="48.51884" lon="-2.03771">
        <ele>120.5</ele>
        <time>2010-07-27T16:56:19</time>
      </trkpt>
      <trkpt lat="48.5189" lon="-2.0377">
        <ele>120.5</ele>
        <time>2010-07-27T16:56:22</time>
      </trkpt>
      <trkpt lat="48.51897" lon="-2.03767">
        <ele>120.5</ele>
        <time>2010-07-27T16:56:25</time>
      </trkpt>
      <trkpt lat="48.51905" lon="-2.0376">
        <ele>120.5</ele>
        <time>2010-07-27T16:56:28</time>
      </trkpt>
      <trkpt lat="48.51913" lon="-2.03752">
        <ele>120</ele>
        <time>2010-07-27T16:56:31</time>
      </trkpt>
      <trkpt lat="48.5192" lon="-2.03741">
        <ele>120</ele>
        <time>2010-07-27T16:56:34</time>
      </trkpt>
      <trkpt lat="48.51926" lon="-2.03731">
        <ele>120</ele>
        <time>2010-07-27T16:56:37</time>
      </trkpt>
      <trkpt lat="48.51932" lon="-2.0372">
        <ele>120</ele>
        <time>2010-07-27T16:56:40</time>
      </trkpt>
      <trkpt lat="48.51938" lon="-2.0371">
        <ele>120</ele>
        <time>2010-07-27T16:56:43</time>
      </trkpt>
      <trkpt lat="48.51943" lon="-2.037">
        <ele>120.5</ele>
        <time>2010-07-27T16:56:46</time>
      </trkpt>
      <trkpt lat="48.51949" lon="-2.0369">
        <ele>121</ele>
        <time>2010-07-27T16:56:49</time>
      </trkpt>
      <trkpt lat="48.51955" lon="-2.03682">
        <ele>121.5</ele>
        <time>2010-07-27T16:56:52</time>
      </trkpt>
      <trkpt lat="48.51961" lon="-2.03675">
        <ele>122.5</ele>
        <time>2010-07-27T16:56:55</time>
      </trkpt>
      <trkpt lat="48.51967" lon="-2.03671">
        <ele>122.5</ele>
        <time>2010-07-27T16:56:58</time>
      </trkpt>
      <trkpt lat="48.51973" lon="-2.03668">
        <ele>123.5</ele>
        <time>2010-07-27T16:57:01</time>
      </trkpt>
      <trkpt lat="48.51979" lon="-2.03666">
        <ele>124.5</ele>
        <time>2010-07-27T16:57:04</time>
      </trkpt>
      <trkpt lat="48.51984" lon="-2.03665">
        <ele>125</ele>
        <time>2010-07-27T16:57:07</time>
      </trkpt>
      <trkpt lat="48.5199" lon="-2.03664">
        <ele>125</ele>
        <time>2010-07-27T16:57:10</time>
      </trkpt>
      <trkpt lat="48.51996" lon="-2.03665">
        <ele>125.5</ele>
        <time>2010-07-27T16:57:13</time>
      </trkpt>
      <trkpt lat="48.52001" lon="-2.03666">
        <ele>126.5</ele>
        <time>2010-07-27T16:57:16</time>
      </trkpt>
      <trkpt lat="48.52007" lon="-2.03668">
        <ele>126.5</ele>
        <time>2010-07-27T16:57:19</time>
      </trkpt>
      <trkpt lat="48.52013" lon="-2.03672">
        <ele>127</ele>
        <time>2010-07-27T16:57:22</time>
      </trkpt>
      <trkpt lat="48.52018" lon="-2.03677">
        <ele>127</ele>
        <time>2010-07-27T16:57:25</time>
      </trkpt>
      <trkpt lat="48.52023" lon="-2.03682">
        <ele>127.5</ele>
        <time>2010-07-27T16:57:28</time>
      </trkpt>
      <trkpt lat="48.52028" lon="-2.03688">
        <ele>127</ele>
        <time>2010-07-27T16:57:31</time>
      </trkpt>
      <trkpt lat="48.52034" lon="-2.03693">
        <ele>127.5</ele>
        <time>2010-07-27T16:57:34</time>
      </trkpt>
      <trkpt lat="48.52039" lon="-2.03697">
        <ele>128</ele>
        <time>2010-07-27T16:57:37</time>
      </trkpt>
      <trkpt lat="48.52045" lon="-2.03702">
        <ele>127.5</ele>
        <time>2010-07-27T16:57:40</time>
      </trkpt>
      <trkpt lat="48.52051" lon="-2.03706">
        <ele>127.5</ele>
        <time>2010-07-27T16:57:43</time>
      </trkpt>
      <trkpt lat="48.52056" lon="-2.03709">
        <ele>127.5</ele>
        <time>2010-07-27T16:57:46</time>
      </trkpt>
      <trkpt lat="48.52061" lon="-2.03713">
        <ele>127.5</ele>
        <time>2010-07-27T16:57:49</time>
      </trkpt>
      <trkpt lat="48.52067" lon="-2.03717">
        <ele>127</ele>
        <time>2010-07-27T16:57:52</time>
      </trkpt>
      <trkpt lat="48.52072" lon="-2.03721">
        <ele>127</ele>
        <time>2010-07-27T16:57:55</time>
      </trkpt>
      <trkpt lat="48.52078" lon="-2.03726">
        <ele>127.5</ele>
        <time>2010-07-27T16:57:58</time>
      </trkpt>
      <trkpt lat="48.52083" lon="-2.0373">
        <ele>127.5</ele>
        <time>2010-07-27T16:58:02</time>
      </trkpt>
      <trkpt lat="48.52087" lon="-2.03729">
        <ele>127.5</ele>
        <time>2010-07-27T16:58:04</time>
      </trkpt>
      <trkpt lat="48.52087" lon="-2.0372">
        <ele>128.5</ele>
        <time>2010-07-27T16:58:07</time>
      </trkpt>
      <trkpt lat="48.52086" lon="-2.03711">
        <ele>129.5</ele>
        <time>2010-07-27T16:58:10</time>
      </trkpt>
      <trkpt lat="48.52085" lon="-2.03701">
        <ele>130</ele>
        <time>2010-07-27T16:58:13</time>
      </trkpt>
      <trkpt lat="48.52084" lon="-2.03687">
        <ele>131</ele>
        <time>2010-07-27T16:58:16</time>
      </trkpt>
      <trkpt lat="48.52083" lon="-2.03674">
        <ele>130.5</ele>
        <time>2010-07-27T16:58:19</time>
      </trkpt>
      <trkpt lat="48.52081" lon="-2.03658">
        <ele>130.5</ele>
        <time>2010-07-27T16:58:22</time>
      </trkpt>
      <trkpt lat="48.52079" lon="-2.03644">
        <ele>129.5</ele>
        <time>2010-07-27T16:58:25</time>
      </trkpt>
      <trkpt lat="48.52076" lon="-2.03631">
        <ele>129</ele>
        <time>2010-07-27T16:58:28</time>
      </trkpt>
      <trkpt lat="48.52074" lon="-2.0362">
        <ele>129</ele>
        <time>2010-07-27T16:58:31</time>
      </trkpt>
      <trkpt lat="48.52073" lon="-2.03608">
        <ele>130</ele>
        <time>2010-07-27T16:58:34</time>
      </trkpt>
      <trkpt lat="48.52071" lon="-2.03599">
        <ele>129</ele>
        <time>2010-07-27T16:58:37</time>
      </trkpt>
      <trkpt lat="48.52072" lon="-2.03585">
        <ele>129.5</ele>
        <time>2010-07-27T16:58:41</time>
      </trkpt>
      <trkpt lat="48.52073" lon="-2.03572">
        <ele>129.5</ele>
        <time>2010-07-27T16:58:43</time>
      </trkpt>
      <trkpt lat="48.52074" lon="-2.03557">
        <ele>129</ele>
        <time>2010-07-27T16:58:46</time>
      </trkpt>
      <trkpt lat="48.52076" lon="-2.03543">
        <ele>129.5</ele>
        <time>2010-07-27T16:58:49</time>
      </trkpt>
      <trkpt lat="48.52078" lon="-2.03529">
        <ele>129</ele>
        <time>2010-07-27T16:58:52</time>
      </trkpt>
      <trkpt lat="48.52081" lon="-2.03516">
        <ele>129</ele>
        <time>2010-07-27T16:58:55</time>
      </trkpt>
      <trkpt lat="48.52083" lon="-2.03502">
        <ele>128</ele>
        <time>2010-07-27T16:58:58</time>
      </trkpt>
      <trkpt lat="48.52088" lon="-2.03488">
        <ele>127.5</ele>
        <time>2010-07-27T16:59:02</time>
      </trkpt>
      <trkpt lat="48.521" lon="-2.03461">
        <ele>125</ele>
        <time>2010-07-27T16:59:07</time>
      </trkpt>
      <trkpt lat="48.52106" lon="-2.03452">
        <ele>122.5</ele>
        <time>2010-07-27T16:59:10</time>
      </trkpt>
      <trkpt lat="48.52111" lon="-2.03443">
        <ele>120.5</ele>
        <time>2010-07-27T16:59:13</time>
      </trkpt>
      <trkpt lat="48.52118" lon="-2.03429">
        <ele>122</ele>
        <time>2010-07-27T16:59:16</time>
      </trkpt>
      <trkpt lat="48.5212" lon="-2.03417">
        <ele>123</ele>
        <time>2010-07-27T16:59:19</time>
      </trkpt>
      <trkpt lat="48.52117" lon="-2.03402">
        <ele>120.5</ele>
        <time>2010-07-27T16:59:22</time>
      </trkpt>
      <trkpt lat="48.52113" lon="-2.0339">
        <ele>119</ele>
        <time>2010-07-27T16:59:25</time>
      </trkpt>
      <trkpt lat="48.5211" lon="-2.0338">
        <ele>118</ele>
        <time>2010-07-27T16:59:28</time>
      </trkpt>
      <trkpt lat="48.52107" lon="-2.0337">
        <ele>117</ele>
        <time>2010-07-27T16:59:31</time>
      </trkpt>
      <trkpt lat="48.52104" lon="-2.03359">
        <ele>115.5</ele>
        <time>2010-07-27T16:59:34</time>
      </trkpt>
      <trkpt lat="48.52101" lon="-2.03348">
        <ele>114</ele>
        <time>2010-07-27T16:59:37</time>
      </trkpt>
      <trkpt lat="48.52098" lon="-2.03338">
        <ele>113</ele>
        <time>2010-07-27T16:59:40</time>
      </trkpt>
      <trkpt lat="48.52096" lon="-2.03331">
        <ele>111</ele>
        <time>2010-07-27T16:59:43</time>
      </trkpt>
      <trkpt lat="48.52088" lon="-2.03318">
        <ele>109.5</ele>
        <time>2010-07-27T16:59:46</time>
      </trkpt>
      <trkpt lat="48.5208" lon="-2.03301">
        <ele>107</ele>
        <time>2010-07-27T16:59:49</time>
      </trkpt>
      <trkpt lat="48.52072" lon="-2.03282">
        <ele>106.5</ele>
        <time>2010-07-27T16:59:52</time>
      </trkpt>
      <trkpt lat="48.52061" lon="-2.03259">
        <ele>106</ele>
        <time>2010-07-27T16:59:55</time>
      </trkpt>
      <trkpt lat="48.5205" lon="-2.03235">
        <ele>106.5</ele>
        <time>2010-07-27T16:59:58</time>
      </trkpt>
      <trkpt lat="48.52041" lon="-2.03216">
        <ele>106</ele>
        <time>2010-07-27T17:00:01</time>
      </trkpt>
      <trkpt lat="48.52026" lon="-2.03187">
        <ele>104</ele>
        <time>2010-07-27T17:00:07</time>
      </trkpt>
      <trkpt lat="48.52019" lon="-2.03173">
        <ele>103</ele>
        <time>2010-07-27T17:00:10</time>
      </trkpt>
      <trkpt lat="48.52011" lon="-2.03156">
        <ele>103.5</ele>
        <time>2010-07-27T17:00:13</time>
      </trkpt>
      <trkpt lat="48.52004" lon="-2.03138">
        <ele>102</ele>
        <time>2010-07-27T17:00:16</time>
      </trkpt>
      <trkpt lat="48.51999" lon="-2.03119">
        <ele>101</ele>
        <time>2010-07-27T17:00:19</time>
      </trkpt>
      <trkpt lat="48.51991" lon="-2.03097">
        <ele>102</ele>
        <time>2010-07-27T17:00:22</time>
      </trkpt>
      <trkpt lat="48.51984" lon="-2.03079">
        <ele>101.5</ele>
        <time>2010-07-27T17:00:25</time>
      </trkpt>
      <trkpt lat="48.51977" lon="-2.03066">
        <ele>101.5</ele>
        <time>2010-07-27T17:00:28</time>
      </trkpt>
      <trkpt lat="48.51974" lon="-2.03051">
        <ele>101.5</ele>
        <time>2010-07-27T17:00:31</time>
      </trkpt>
      <trkpt lat="48.51969" lon="-2.03029">
        <ele>101.5</ele>
        <time>2010-07-27T17:00:38</time>
      </trkpt>
      <trkpt lat="48.51965" lon="-2.03005">
        <ele>101</ele>
        <time>2010-07-27T17:00:43</time>
      </trkpt>
      <trkpt lat="48.51963" lon="-2.02994">
        <ele>101.5</ele>
        <time>2010-07-27T17:00:46</time>
      </trkpt>
      <trkpt lat="48.51958" lon="-2.0298">
        <ele>101</ele>
        <time>2010-07-27T17:00:50</time>
      </trkpt>
      <trkpt lat="48.51951" lon="-2.02956">
        <ele>97</ele>
        <time>2010-07-27T17:00:53</time>
      </trkpt>
      <trkpt lat="48.51945" lon="-2.02937">
        <ele>95</ele>
        <time>2010-07-27T17:00:56</time>
      </trkpt>
      <trkpt lat="48.51941" lon="-2.02916">
        <ele>95</ele>
        <time>2010-07-27T17:00:59</time>
      </trkpt>
      <trkpt lat="48.51937" lon="-2.02901">
        <ele>94.5</ele>
        <time>2010-07-27T17:01:02</time>
      </trkpt>
      <trkpt lat="48.51935" lon="-2.02883">
        <ele>95.5</ele>
        <time>2010-07-27T17:01:05</time>
      </trkpt>
      <trkpt lat="48.51935" lon="-2.02866">
        <ele>96</ele>
        <time>2010-07-27T17:01:08</time>
      </trkpt>
      <trkpt lat="48.51936" lon="-2.02857">
        <ele>96</ele>
        <time>2010-07-27T17:01:11</time>
      </trkpt>
      <trkpt lat="48.51941" lon="-2.02838">
        <ele>93.5</ele>
        <time>2010-07-27T17:01:14</time>
      </trkpt>
      <trkpt lat="48.51949" lon="-2.02823">
        <ele>94</ele>
        <time>2010-07-27T17:01:17</time>
      </trkpt>
      <trkpt lat="48.51957" lon="-2.02804">
        <ele>97</ele>
        <time>2010-07-27T17:01:20</time>
      </trkpt>
      <trkpt lat="48.51961" lon="-2.0279">
        <ele>100</ele>
        <time>2010-07-27T17:01:23</time>
      </trkpt>
      <trkpt lat="48.51959" lon="-2.02775">
        <ele>101</ele>
        <time>2010-07-27T17:01:26</time>
      </trkpt>
      <trkpt lat="48.51954" lon="-2.02758">
        <ele>100.5</ele>
        <time>2010-07-27T17:01:29</time>
      </trkpt>
      <trkpt lat="48.51946" lon="-2.02742">
        <ele>100</ele>
        <time>2010-07-27T17:01:32</time>
      </trkpt>
      <trkpt lat="48.51936" lon="-2.02727">
        <ele>98.5</ele>
        <time>2010-07-27T17:01:35</time>
      </trkpt>
      <trkpt lat="48.51922" lon="-2.02712">
        <ele>98.5</ele>
        <time>2010-07-27T17:01:38</time>
      </trkpt>
      <trkpt lat="48.51911" lon="-2.02693">
        <ele>99</ele>
        <time>2010-07-27T17:01:41</time>
      </trkpt>
      <trkpt lat="48.51902" lon="-2.02671">
        <ele>100</ele>
        <time>2010-07-27T17:01:44</time>
      </trkpt>
      <trkpt lat="48.51894" lon="-2.0265">
        <ele>101.5</ele>
        <time>2010-07-27T17:01:47</time>
      </trkpt>
      <trkpt lat="48.51893" lon="-2.02629">
        <ele>101.5</ele>
        <time>2010-07-27T17:01:50</time>
      </trkpt>
      <trkpt lat="48.51895" lon="-2.02609">
        <ele>102</ele>
        <time>2010-07-27T17:01:53</time>
      </trkpt>
      <trkpt lat="48.51896" lon="-2.02591">
        <ele>102</ele>
        <time>2010-07-27T17:01:56</time>
      </trkpt>
      <trkpt lat="48.51894" lon="-2.02573">
        <ele>100.5</ele>
        <time>2010-07-27T17:01:59</time>
      </trkpt>
      <trkpt lat="48.51889" lon="-2.0256">
        <ele>98.5</ele>
        <time>2010-07-27T17:02:02</time>
      </trkpt>
      <trkpt lat="48.51886" lon="-2.02551">
        <ele>97</ele>
        <time>2010-07-27T17:02:05</time>
      </trkpt>
      <trkpt lat="48.51882" lon="-2.02545">
        <ele>96</ele>
        <time>2010-07-27T17:02:08</time>
      </trkpt>
      <trkpt lat="48.5188" lon="-2.0254">
        <ele>95.5</ele>
        <time>2010-07-27T17:02:11</time>
      </trkpt>
      <trkpt lat="48.51876" lon="-2.02534">
        <ele>95.5</ele>
        <time>2010-07-27T17:02:14</time>
      </trkpt>
      <trkpt lat="48.51873" lon="-2.02529">
        <ele>95</ele>
        <time>2010-07-27T17:02:17</time>
      </trkpt>
      <trkpt lat="48.51869" lon="-2.02524">
        <ele>95</ele>
        <time>2010-07-27T17:02:20</time>
      </trkpt>
      <trkpt lat="48.51866" lon="-2.02519">
        <ele>95.5</ele>
        <time>2010-07-27T17:02:23</time>
      </trkpt>
      <trkpt lat="48.51862" lon="-2.02515">
        <ele>95.5</ele>
        <time>2010-07-27T17:02:26</time>
      </trkpt>
      <trkpt lat="48.51858" lon="-2.0251">
        <ele>95</ele>
        <time>2010-07-27T17:02:29</time>
      </trkpt>
      <trkpt lat="48.51854" lon="-2.02505">
        <ele>95</ele>
        <time>2010-07-27T17:02:32</time>
      </trkpt>
      <trkpt lat="48.51849" lon="-2.02501">
        <ele>95</ele>
        <time>2010-07-27T17:02:36</time>
      </trkpt>
      <trkpt lat="48.51845" lon="-2.02496">
        <ele>95</ele>
        <time>2010-07-27T17:02:39</time>
      </trkpt>
      <trkpt lat="48.51841" lon="-2.0249">
        <ele>95</ele>
        <time>2010-07-27T17:02:43</time>
      </trkpt>
      <trkpt lat="48.51836" lon="-2.02483">
        <ele>95.5</ele>
        <time>2010-07-27T17:02:47</time>
      </trkpt>
      <trkpt lat="48.51834" lon="-2.02481">
        <ele>97</ele>
        <time>2010-07-27T17:02:51</time>
      </trkpt>
      <trkpt lat="48.51833" lon="-2.02481">
        <ele>96.5</ele>
        <time>2010-07-27T17:02:54</time>
      </trkpt>
      <trkpt lat="48.51834" lon="-2.02481">
        <ele>97</ele>
        <time>2010-07-27T17:02:57</time>
      </trkpt>
      <trkpt lat="48.51833" lon="-2.02481">
        <ele>97</ele>
        <time>2010-07-27T17:03:02</time>
      </trkpt>
      <trkpt lat="48.51833" lon="-2.0248">
        <ele>97.5</ele>
        <time>2010-07-27T17:03:05</time>
      </trkpt>
      <trkpt lat="48.51833" lon="-2.02479">
        <ele>98</ele>
        <time>2010-07-27T17:03:08</time>
      </trkpt>
      <trkpt lat="48.51833" lon="-2.02479">
        <ele>98.5</ele>
        <time>2010-07-27T17:03:11</time>
      </trkpt>
      <trkpt lat="48.51833" lon="-2.02478">
        <ele>98.5</ele>
        <time>2010-07-27T17:03:15</time>
      </trkpt>
      <trkpt lat="48.51833" lon="-2.02479">
        <ele>99</ele>
        <time>2010-07-27T17:03:18</time>
      </trkpt>
      <trkpt lat="48.51833" lon="-2.02478">
        <ele>99.5</ele>
        <time>2010-07-27T17:03:22</time>
      </trkpt>
      <trkpt lat="48.51832" lon="-2.02478">
        <ele>100</ele>
        <time>2010-07-27T17:03:25</time>
      </trkpt>
      <trkpt lat="48.51832" lon="-2.02477">
        <ele>100.5</ele>
        <time>2010-07-27T17:03:28</time>
      </trkpt>
      <trkpt lat="48.51832" lon="-2.02477">
        <ele>100</ele>
        <time>2010-07-27T17:03:31</time>
      </trkpt>
      <trkpt lat="48.51832" lon="-2.02477">
        <ele>100</ele>
        <time>2010-07-27T17:03:34</time>
      </trkpt>
      <trkpt lat="48.51832" lon="-2.02477">
        <ele>100</ele>
        <time>2010-07-27T17:03:37</time>
      </trkpt>
      <trkpt lat="48.51832" lon="-2.02477">
        <ele>100</ele>
        <time>2010-07-27T17:03:41</time>
      </trkpt>
      <trkpt lat="48.51832" lon="-2.02477">
        <ele>100</ele>
        <time>2010-07-27T17:03:44</time>
      </trkpt>
      <trkpt lat="48.51832" lon="-2.02477">
        <ele>100</ele>
        <time>2010-07-27T17:03:47</time>
      </trkpt>
      <trkpt lat="48.51832" lon="-2.02477">
        <ele>100</ele>
        <time>2010-07-27T17:03:50</time>
      </trkpt>
      <trkpt lat="48.51832" lon="-2.02478">
        <ele>99.5</ele>
        <time>2010-07-27T17:03:53</time>
      </trkpt>
      <trkpt lat="48.51833" lon="-2.02478">
        <ele>100</ele>
        <time>2010-07-27T17:03:56</time>
      </trkpt>
      <trkpt lat="48.51833" lon="-2.02478">
        <ele>100.5</ele>
        <time>2010-07-27T17:04:00</time>
      </trkpt>
      <trkpt lat="48.51833" lon="-2.02478">
        <ele>100.5</ele>
        <time>2010-07-27T17:04:03</time>
      </trkpt>
      <trkpt lat="48.51834" lon="-2.02478">
        <ele>100.5</ele>
        <time>2010-07-27T17:04:09</time>
      </trkpt>
      <trkpt lat="48.51833" lon="-2.02477">
        <ele>99.5</ele>
        <time>2010-07-27T17:04:13</time>
      </trkpt>
      <trkpt lat="48.51833" lon="-2.02476">
        <ele>99</ele>
        <time>2010-07-27T17:04:17</time>
      </trkpt>
      <trkpt lat="48.51832" lon="-2.02476">
        <ele>98.5</ele>
        <time>2010-07-27T17:04:20</time>
      </trkpt>
      <trkpt lat="48.51833" lon="-2.02475">
        <ele>97.5</ele>
        <time>2010-07-27T17:04:26</time>
      </trkpt>
      <trkpt lat="48.51833" lon="-2.02475">
        <ele>97</ele>
        <time>2010-07-27T17:04:29</time>
      </trkpt>
      <trkpt lat="48.51833" lon="-2.02475">
        <ele>97</ele>
        <time>2010-07-27T17:04:32</time>
      </trkpt>
      <trkpt lat="48.51833" lon="-2.02475">
        <ele>95.5</ele>
        <time>2010-07-27T17:04:38</time>
      </trkpt>
      <trkpt lat="48.51833" lon="-2.02475">
        <ele>95</ele>
        <time>2010-07-27T17:04:41</time>
      </trkpt>
      <trkpt lat="48.51833" lon="-2.02475">
        <ele>95.5</ele>
        <time>2010-07-27T17:04:44</time>
      </trkpt>
      <trkpt lat="48.51833" lon="-2.02476">
        <ele>96</ele>
        <time>2010-07-27T17:04:50</time>
      </trkpt>
      <trkpt lat="48.51833" lon="-2.02476">
        <ele>96</ele>
        <time>2010-07-27T17:04:53</time>
      </trkpt>
      <trkpt lat="48.51833" lon="-2.02476">
        <ele>96.5</ele>
        <time>2010-07-27T17:04:56</time>
      </trkpt>
      <trkpt lat="48.51834" lon="-2.02476">
        <ele>97.5</ele>
        <time>2010-07-27T17:05:02</time>
      </trkpt>
      <trkpt lat="48.51834" lon="-2.02477">
        <ele>97.5</ele>
        <time>2010-07-27T17:05:05</time>
      </trkpt>
      <trkpt lat="48.51834" lon="-2.02477">
        <ele>98</ele>
        <time>2010-07-27T17:05:08</time>
      </trkpt>
      <trkpt lat="48.51834" lon="-2.02477">
        <ele>99.5</ele>
        <time>2010-07-27T17:05:14</time>
      </trkpt>
      <trkpt lat="48.51834" lon="-2.02477">
        <ele>99.5</ele>
        <time>2010-07-27T17:05:17</time>
      </trkpt>
      <trkpt lat="48.51819" lon="-2.02454">
        <ele>103</ele>
        <time>2010-07-27T17:05:20</time>
      </trkpt>
      <trkpt lat="48.51814" lon="-2.02446">
        <ele>105</ele>
        <time>2010-07-27T17:05:26</time>
      </trkpt>
      <trkpt lat="48.51812" lon="-2.02443">
        <ele>106</ele>
        <time>2010-07-27T17:05:29</time>
      </trkpt>
      <trkpt lat="48.51808" lon="-2.0244">
        <ele>106.5</ele>
        <time>2010-07-27T17:05:32</time>
      </trkpt>
      <trkpt lat="48.51804" lon="-2.02435">
        <ele>109</ele>
        <time>2010-07-27T17:05:38</time>
      </trkpt>
      <trkpt lat="48.51801" lon="-2.02431">
        <ele>109.5</ele>
        <time>2010-07-27T17:05:41</time>
      </trkpt>
      <trkpt lat="48.51797" lon="-2.02426">
        <ele>109.5</ele>
        <time>2010-07-27T17:05:44</time>
      </trkpt>
      <trkpt lat="48.51791" lon="-2.02418">
        <ele>111</ele>
        <time>2010-07-27T17:05:50</time>
      </trkpt>
      <trkpt lat="48.51789" lon="-2.02413">
        <ele>111</ele>
        <time>2010-07-27T17:05:53</time>
      </trkpt>
      <trkpt lat="48.51786" lon="-2.02408">
        <ele>110.5</ele>
        <time>2010-07-27T17:05:56</time>
      </trkpt>
      <trkpt lat="48.51784" lon="-2.02401">
        <ele>109</ele>
        <time>2010-07-27T17:05:59</time>
      </trkpt>
      <trkpt lat="48.51781" lon="-2.02396">
        <ele>106.5</ele>
        <time>2010-07-27T17:06:02</time>
      </trkpt>
      <trkpt lat="48.51779" lon="-2.0239">
        <ele>105.5</ele>
        <time>2010-07-27T17:06:05</time>
      </trkpt>
      <trkpt lat="48.51776" lon="-2.02382">
        <ele>103</ele>
        <time>2010-07-27T17:06:08</time>
      </trkpt>
      <trkpt lat="48.51772" lon="-2.02369">
        <ele>101.5</ele>
        <time>2010-07-27T17:06:14</time>
      </trkpt>
      <trkpt lat="48.51769" lon="-2.02364">
        <ele>101</ele>
        <time>2010-07-27T17:06:17</time>
      </trkpt>
      <trkpt lat="48.51767" lon="-2.02358">
        <ele>101</ele>
        <time>2010-07-27T17:06:20</time>
      </trkpt>
      <trkpt lat="48.51766" lon="-2.02353">
        <ele>100.5</ele>
        <time>2010-07-27T17:06:24</time>
      </trkpt>
      <trkpt lat="48.5176" lon="-2.02346">
        <ele>100.5</ele>
        <time>2010-07-27T17:06:27</time>
      </trkpt>
      <trkpt lat="48.51759" lon="-2.02342">
        <ele>101</ele>
        <time>2010-07-27T17:06:32</time>
      </trkpt>
      <trkpt lat="48.51755" lon="-2.02337">
        <ele>102</ele>
        <time>2010-07-27T17:06:35</time>
      </trkpt>
      <trkpt lat="48.51748" lon="-2.02333">
        <ele>102</ele>
        <time>2010-07-27T17:06:38</time>
      </trkpt>
      <trkpt lat="48.51738" lon="-2.02321">
        <ele>102</ele>
        <time>2010-07-27T17:06:44</time>
      </trkpt>
      <trkpt lat="48.51735" lon="-2.02315">
        <ele>103</ele>
        <time>2010-07-27T17:06:47</time>
      </trkpt>
      <trkpt lat="48.51731" lon="-2.0231">
        <ele>104</ele>
        <time>2010-07-27T17:06:50</time>
      </trkpt>
      <trkpt lat="48.51728" lon="-2.02297">
        <ele>104.5</ele>
        <time>2010-07-27T17:06:56</time>
      </trkpt>
      <trkpt lat="48.51716" lon="-2.02286">
        <ele>106</ele>
        <time>2010-07-27T17:06:59</time>
      </trkpt>
      <trkpt lat="48.51706" lon="-2.02275">
        <ele>108</ele>
        <time>2010-07-27T17:07:02</time>
      </trkpt>
      <trkpt lat="48.5169" lon="-2.02259">
        <ele>108.5</ele>
        <time>2010-07-27T17:07:08</time>
      </trkpt>
      <trkpt lat="48.51683" lon="-2.02252">
        <ele>109</ele>
        <time>2010-07-27T17:07:11</time>
      </trkpt>
      <trkpt lat="48.51677" lon="-2.02243">
        <ele>108.5</ele>
        <time>2010-07-27T17:07:14</time>
      </trkpt>
      <trkpt lat="48.51671" lon="-2.02236">
        <ele>110</ele>
        <time>2010-07-27T17:07:17</time>
      </trkpt>
      <trkpt lat="48.51663" lon="-2.02227">
        <ele>110.5</ele>
        <time>2010-07-27T17:07:20</time>
      </trkpt>
      <trkpt lat="48.51659" lon="-2.02222">
        <ele>114</ele>
        <time>2010-07-27T17:07:23</time>
      </trkpt>
      <trkpt lat="48.51654" lon="-2.02225">
        <ele>116.5</ele>
        <time>2010-07-27T17:07:26</time>
      </trkpt>
      <trkpt lat="48.51649" lon="-2.02231">
        <ele>116</ele>
        <time>2010-07-27T17:07:32</time>
      </trkpt>
      <trkpt lat="48.51646" lon="-2.02233">
        <ele>116.5</ele>
        <time>2010-07-27T17:07:35</time>
      </trkpt>
      <trkpt lat="48.51644" lon="-2.02236">
        <ele>116.5</ele>
        <time>2010-07-27T17:07:38</time>
      </trkpt>
      <trkpt lat="48.5164" lon="-2.02238">
        <ele>115</ele>
        <time>2010-07-27T17:07:41</time>
      </trkpt>
      <trkpt lat="48.51637" lon="-2.0224">
        <ele>114</ele>
        <time>2010-07-27T17:07:44</time>
      </trkpt>
      <trkpt lat="48.51628" lon="-2.02247">
        <ele>114</ele>
        <time>2010-07-27T17:07:47</time>
      </trkpt>
      <trkpt lat="48.51617" lon="-2.02253">
        <ele>113</ele>
        <time>2010-07-27T17:07:50</time>
      </trkpt>
      <trkpt lat="48.51611" lon="-2.02256">
        <ele>114</ele>
        <time>2010-07-27T17:07:53</time>
      </trkpt>
      <trkpt lat="48.51599" lon="-2.0226">
        <ele>115.5</ele>
        <time>2010-07-27T17:07:56</time>
      </trkpt>
      <trkpt lat="48.5159" lon="-2.02263">
        <ele>116</ele>
        <time>2010-07-27T17:07:59</time>
      </trkpt>
      <trkpt lat="48.51582" lon="-2.02265">
        <ele>116</ele>
        <time>2010-07-27T17:08:02</time>
      </trkpt>
      <trkpt lat="48.51573" lon="-2.02268">
        <ele>115</ele>
        <time>2010-07-27T17:08:05</time>
      </trkpt>
      <trkpt lat="48.51565" lon="-2.0227">
        <ele>114.5</ele>
        <time>2010-07-27T17:08:08</time>
      </trkpt>
      <trkpt lat="48.51557" lon="-2.02273">
        <ele>112.5</ele>
        <time>2010-07-27T17:08:11</time>
      </trkpt>
      <trkpt lat="48.51549" lon="-2.02278">
        <ele>110.5</ele>
        <time>2010-07-27T17:08:14</time>
      </trkpt>
      <trkpt lat="48.51542" lon="-2.02281">
        <ele>109</ele>
        <time>2010-07-27T17:08:17</time>
      </trkpt>
      <trkpt lat="48.51535" lon="-2.02284">
        <ele>107</ele>
        <time>2010-07-27T17:08:20</time>
      </trkpt>
      <trkpt lat="48.5153" lon="-2.02285">
        <ele>105.5</ele>
        <time>2010-07-27T17:08:23</time>
      </trkpt>
      <trkpt lat="48.51522" lon="-2.02292">
        <ele>107</ele>
        <time>2010-07-27T17:08:26</time>
      </trkpt>
      <trkpt lat="48.51508" lon="-2.02303">
        <ele>105</ele>
        <time>2010-07-27T17:08:32</time>
      </trkpt>
      <trkpt lat="48.51499" lon="-2.02312">
        <ele>104</ele>
        <time>2010-07-27T17:08:35</time>
      </trkpt>
      <trkpt lat="48.51491" lon="-2.02319">
        <ele>104</ele>
        <time>2010-07-27T17:08:38</time>
      </trkpt>
      <trkpt lat="48.51478" lon="-2.02332">
        <ele>102</ele>
        <time>2010-07-27T17:08:44</time>
      </trkpt>
      <trkpt lat="48.51471" lon="-2.0234">
        <ele>101.5</ele>
        <time>2010-07-27T17:08:47</time>
      </trkpt>
      <trkpt lat="48.51465" lon="-2.02348">
        <ele>102.5</ele>
        <time>2010-07-27T17:08:50</time>
      </trkpt>
      <trkpt lat="48.51455" lon="-2.02363">
        <ele>102.5</ele>
        <time>2010-07-27T17:08:56</time>
      </trkpt>
      <trkpt lat="48.51449" lon="-2.0237">
        <ele>101.5</ele>
        <time>2010-07-27T17:08:59</time>
      </trkpt>
      <trkpt lat="48.51442" lon="-2.02378">
        <ele>100</ele>
        <time>2010-07-27T17:09:02</time>
      </trkpt>
      <trkpt lat="48.51435" lon="-2.02386">
        <ele>101.5</ele>
        <time>2010-07-27T17:09:05</time>
      </trkpt>
      <trkpt lat="48.51428" lon="-2.02393">
        <ele>102</ele>
        <time>2010-07-27T17:09:08</time>
      </trkpt>
      <trkpt lat="48.5142" lon="-2.02401">
        <ele>102</ele>
        <time>2010-07-27T17:09:11</time>
      </trkpt>
      <trkpt lat="48.51414" lon="-2.02407">
        <ele>102.5</ele>
        <time>2010-07-27T17:09:14</time>
      </trkpt>
      <trkpt lat="48.51409" lon="-2.0241">
        <ele>108.5</ele>
        <time>2010-07-27T17:09:17</time>
      </trkpt>
      <trkpt lat="48.51405" lon="-2.02409">
        <ele>109</ele>
        <time>2010-07-27T17:09:20</time>
      </trkpt>
      <trkpt lat="48.514" lon="-2.02408">
        <ele>112</ele>
        <time>2010-07-27T17:09:23</time>
      </trkpt>
      <trkpt lat="48.51396" lon="-2.02407">
        <ele>114.5</ele>
        <time>2010-07-27T17:09:26</time>
      </trkpt>
      <trkpt lat="48.51394" lon="-2.02407">
        <ele>118</ele>
        <time>2010-07-27T17:09:29</time>
      </trkpt>
      <trkpt lat="48.51391" lon="-2.02405">
        <ele>120</ele>
        <time>2010-07-27T17:09:32</time>
      </trkpt>
      <trkpt lat="48.51388" lon="-2.02404">
        <ele>120.5</ele>
        <time>2010-07-27T17:09:35</time>
      </trkpt>
      <trkpt lat="48.51383" lon="-2.02399">
        <ele>120.5</ele>
        <time>2010-07-27T17:09:38</time>
      </trkpt>
      <trkpt lat="48.51377" lon="-2.02391">
        <ele>121</ele>
        <time>2010-07-27T17:09:44</time>
      </trkpt>
      <trkpt lat="48.51375" lon="-2.02388">
        <ele>122</ele>
        <time>2010-07-27T17:09:47</time>
      </trkpt>
      <trkpt lat="48.51371" lon="-2.02385">
        <ele>122.5</ele>
        <time>2010-07-27T17:09:50</time>
      </trkpt>
      <trkpt lat="48.51369" lon="-2.02383">
        <ele>123</ele>
        <time>2010-07-27T17:09:53</time>
      </trkpt>
      <trkpt lat="48.51365" lon="-2.02379">
        <ele>123.5</ele>
        <time>2010-07-27T17:09:56</time>
      </trkpt>
      <trkpt lat="48.51362" lon="-2.02377">
        <ele>123.5</ele>
        <time>2010-07-27T17:09:59</time>
      </trkpt>
      <trkpt lat="48.51359" lon="-2.02374">
        <ele>123.5</ele>
        <time>2010-07-27T17:10:02</time>
      </trkpt>
      <trkpt lat="48.51358" lon="-2.02372">
        <ele>123.5</ele>
        <time>2010-07-27T17:10:05</time>
      </trkpt>
      <trkpt lat="48.51356" lon="-2.02371">
        <ele>124.5</ele>
        <time>2010-07-27T17:10:08</time>
      </trkpt>
      <trkpt lat="48.51354" lon="-2.02369">
        <ele>124</ele>
        <time>2010-07-27T17:10:11</time>
      </trkpt>
      <trkpt lat="48.51351" lon="-2.02364">
        <ele>123.5</ele>
        <time>2010-07-27T17:10:14</time>
      </trkpt>
      <trkpt lat="48.51348" lon="-2.02361">
        <ele>123.5</ele>
        <time>2010-07-27T17:10:17</time>
      </trkpt>
      <trkpt lat="48.51345" lon="-2.02358">
        <ele>123</ele>
        <time>2010-07-27T17:10:20</time>
      </trkpt>
      <trkpt lat="48.51343" lon="-2.02354">
        <ele>122.5</ele>
        <time>2010-07-27T17:10:23</time>
      </trkpt>
      <trkpt lat="48.51341" lon="-2.02352">
        <ele>122</ele>
        <time>2010-07-27T17:10:26</time>
      </trkpt>
      <trkpt lat="48.51338" lon="-2.02348">
        <ele>122</ele>
        <time>2010-07-27T17:10:29</time>
      </trkpt>
      <trkpt lat="48.51336" lon="-2.02347">
        <ele>122</ele>
        <time>2010-07-27T17:10:32</time>
      </trkpt>
      <trkpt lat="48.51333" lon="-2.02345">
        <ele>121.5</ele>
        <time>2010-07-27T17:10:35</time>
      </trkpt>
      <trkpt lat="48.5133" lon="-2.02341">
        <ele>121.5</ele>
        <time>2010-07-27T17:10:38</time>
      </trkpt>
      <trkpt lat="48.51326" lon="-2.02339">
        <ele>119.5</ele>
        <time>2010-07-27T17:10:41</time>
      </trkpt>
      <trkpt lat="48.51323" lon="-2.02334">
        <ele>119.5</ele>
        <time>2010-07-27T17:10:44</time>
      </trkpt>
      <trkpt lat="48.51318" lon="-2.0233">
        <ele>118.5</ele>
        <time>2010-07-27T17:10:47</time>
      </trkpt>
      <trkpt lat="48.51314" lon="-2.02325">
        <ele>117</ele>
        <time>2010-07-27T17:10:50</time>
      </trkpt>
      <trkpt lat="48.5131" lon="-2.02319">
        <ele>117</ele>
        <time>2010-07-27T17:10:53</time>
      </trkpt>
      <trkpt lat="48.51308" lon="-2.02314">
        <ele>117</ele>
        <time>2010-07-27T17:10:56</time>
      </trkpt>
      <trkpt lat="48.51304" lon="-2.02306">
        <ele>116</ele>
        <time>2010-07-27T17:10:59</time>
      </trkpt>
      <trkpt lat="48.513" lon="-2.02301">
        <ele>116</ele>
        <time>2010-07-27T17:11:02</time>
      </trkpt>
      <trkpt lat="48.51297" lon="-2.02297">
        <ele>116.5</ele>
        <time>2010-07-27T17:11:05</time>
      </trkpt>
      <trkpt lat="48.51294" lon="-2.02292">
        <ele>117.5</ele>
        <time>2010-07-27T17:11:08</time>
      </trkpt>
      <trkpt lat="48.51284" lon="-2.02283">
        <ele>118.5</ele>
        <time>2010-07-27T17:11:14</time>
      </trkpt>
      <trkpt lat="48.5128" lon="-2.02276">
        <ele>119</ele>
        <time>2010-07-27T17:11:17</time>
      </trkpt>
      <trkpt lat="48.51275" lon="-2.02268">
        <ele>117.5</ele>
        <time>2010-07-27T17:11:20</time>
      </trkpt>
      <trkpt lat="48.51269" lon="-2.02259">
        <ele>116</ele>
        <time>2010-07-27T17:11:23</time>
      </trkpt>
      <trkpt lat="48.51265" lon="-2.02247">
        <ele>116</ele>
        <time>2010-07-27T17:11:26</time>
      </trkpt>
      <trkpt lat="48.5126" lon="-2.02238">
        <ele>119</ele>
        <time>2010-07-27T17:11:29</time>
      </trkpt>
      <trkpt lat="48.51254" lon="-2.02228">
        <ele>120</ele>
        <time>2010-07-27T17:11:32</time>
      </trkpt>
      <trkpt lat="48.51249" lon="-2.02218">
        <ele>119</ele>
        <time>2010-07-27T17:11:35</time>
      </trkpt>
      <trkpt lat="48.51249" lon="-2.02209">
        <ele>118.5</ele>
        <time>2010-07-27T17:11:38</time>
      </trkpt>
      <trkpt lat="48.51247" lon="-2.02197">
        <ele>117.5</ele>
        <time>2010-07-27T17:11:42</time>
      </trkpt>
      <trkpt lat="48.51244" lon="-2.02191">
        <ele>118</ele>
        <time>2010-07-27T17:11:45</time>
      </trkpt>
      <trkpt lat="48.51238" lon="-2.02187">
        <ele>124</ele>
        <time>2010-07-27T17:11:48</time>
      </trkpt>
      <trkpt lat="48.5123" lon="-2.02181">
        <ele>127.5</ele>
        <time>2010-07-27T17:11:50</time>
      </trkpt>
      <trkpt lat="48.51224" lon="-2.02172">
        <ele>128.5</ele>
        <time>2010-07-27T17:11:53</time>
      </trkpt>
      <trkpt lat="48.5122" lon="-2.02165">
        <ele>130</ele>
        <time>2010-07-27T17:11:57</time>
      </trkpt>
      <trkpt lat="48.51208" lon="-2.02154">
        <ele>132.5</ele>
        <time>2010-07-27T17:12:02</time>
      </trkpt>
      <trkpt lat="48.51202" lon="-2.02147">
        <ele>132.5</ele>
        <time>2010-07-27T17:12:05</time>
      </trkpt>
      <trkpt lat="48.51196" lon="-2.02142">
        <ele>132.5</ele>
        <time>2010-07-27T17:12:09</time>
      </trkpt>
      <trkpt lat="48.5119" lon="-2.02133">
        <ele>133</ele>
        <time>2010-07-27T17:12:12</time>
      </trkpt>
      <trkpt lat="48.51186" lon="-2.02125">
        <ele>134</ele>
        <time>2010-07-27T17:12:15</time>
      </trkpt>
      <trkpt lat="48.51169" lon="-2.0211">
        <ele>134.5</ele>
        <time>2010-07-27T17:12:20</time>
      </trkpt>
      <trkpt lat="48.51159" lon="-2.02105">
        <ele>134.5</ele>
        <time>2010-07-27T17:12:24</time>
      </trkpt>
      <trkpt lat="48.51149" lon="-2.021">
        <ele>136.5</ele>
        <time>2010-07-27T17:12:27</time>
      </trkpt>
      <trkpt lat="48.51141" lon="-2.02094">
        <ele>136.5</ele>
        <time>2010-07-27T17:12:30</time>
      </trkpt>
      <trkpt lat="48.5113" lon="-2.02089">
        <ele>142.5</ele>
        <time>2010-07-27T17:12:33</time>
      </trkpt>
      <trkpt lat="48.51119" lon="-2.02089">
        <ele>137</ele>
        <time>2010-07-27T17:12:36</time>
      </trkpt>
      <trkpt lat="48.51108" lon="-2.02091">
        <ele>133</ele>
        <time>2010-07-27T17:12:39</time>
      </trkpt>
      <trkpt lat="48.51096" lon="-2.02092">
        <ele>131</ele>
        <time>2010-07-27T17:12:42</time>
      </trkpt>
      <trkpt lat="48.51086" lon="-2.02091">
        <ele>128</ele>
        <time>2010-07-27T17:12:45</time>
      </trkpt>
      <trkpt lat="48.51074" lon="-2.02086">
        <ele>132</ele>
        <time>2010-07-27T17:12:48</time>
      </trkpt>
      <trkpt lat="48.51058" lon="-2.02085">
        <ele>133.5</ele>
        <time>2010-07-27T17:12:51</time>
      </trkpt>
      <trkpt lat="48.51043" lon="-2.02083">
        <ele>141</ele>
        <time>2010-07-27T17:12:54</time>
      </trkpt>
      <trkpt lat="48.51031" lon="-2.02083">
        <ele>150</ele>
        <time>2010-07-27T17:12:57</time>
      </trkpt>
      <trkpt lat="48.51012" lon="-2.02082">
        <ele>154.5</ele>
        <time>2010-07-27T17:13:03</time>
      </trkpt>
      <trkpt lat="48.51006" lon="-2.02083">
        <ele>160.5</ele>
        <time>2010-07-27T17:13:06</time>
      </trkpt>
      <trkpt lat="48.51001" lon="-2.02087">
        <ele>161</ele>
        <time>2010-07-27T17:13:09</time>
      </trkpt>
      <trkpt lat="48.50986" lon="-2.02081">
        <ele>160</ele>
        <time>2010-07-27T17:13:14</time>
      </trkpt>
      <trkpt lat="48.50976" lon="-2.02078">
        <ele>159</ele>
        <time>2010-07-27T17:13:18</time>
      </trkpt>
      <trkpt lat="48.5097" lon="-2.02074">
        <ele>159</ele>
        <time>2010-07-27T17:13:21</time>
      </trkpt>
      <trkpt lat="48.50962" lon="-2.02071">
        <ele>160</ele>
        <time>2010-07-27T17:13:24</time>
      </trkpt>
      <trkpt lat="48.50955" lon="-2.02067">
        <ele>159</ele>
        <time>2010-07-27T17:13:27</time>
      </trkpt>
      <trkpt lat="48.50944" lon="-2.02065">
        <ele>156.5</ele>
        <time>2010-07-27T17:13:30</time>
      </trkpt>
      <trkpt lat="48.50932" lon="-2.02064">
        <ele>156</ele>
        <time>2010-07-27T17:13:33</time>
      </trkpt>
      <trkpt lat="48.50922" lon="-2.02064">
        <ele>154.5</ele>
        <time>2010-07-27T17:13:36</time>
      </trkpt>
      <trkpt lat="48.50913" lon="-2.02066">
        <ele>152.5</ele>
        <time>2010-07-27T17:13:39</time>
      </trkpt>
      <trkpt lat="48.50903" lon="-2.02069">
        <ele>151.5</ele>
        <time>2010-07-27T17:13:42</time>
      </trkpt>
      <trkpt lat="48.50896" lon="-2.02069">
        <ele>151.5</ele>
        <time>2010-07-27T17:13:45</time>
      </trkpt>
      <trkpt lat="48.5089" lon="-2.02066">
        <ele>152.5</ele>
        <time>2010-07-27T17:13:48</time>
      </trkpt>
      <trkpt lat="48.50883" lon="-2.02064">
        <ele>154</ele>
        <time>2010-07-27T17:13:51</time>
      </trkpt>
      <trkpt lat="48.50875" lon="-2.02061">
        <ele>157.5</ele>
        <time>2010-07-27T17:13:54</time>
      </trkpt>
      <trkpt lat="48.50861" lon="-2.02061">
        <ele>158</ele>
        <time>2010-07-27T17:13:57</time>
      </trkpt>
      <trkpt lat="48.5085" lon="-2.02065">
        <ele>159.5</ele>
        <time>2010-07-27T17:14:00</time>
      </trkpt>
      <trkpt lat="48.50839" lon="-2.02065">
        <ele>156</ele>
        <time>2010-07-27T17:14:03</time>
      </trkpt>
      <trkpt lat="48.50823" lon="-2.02065">
        <ele>152</ele>
        <time>2010-07-27T17:14:06</time>
      </trkpt>
      <trkpt lat="48.50812" lon="-2.02065">
        <ele>151</ele>
        <time>2010-07-27T17:14:09</time>
      </trkpt>
      <trkpt lat="48.50803" lon="-2.02061">
        <ele>149</ele>
        <time>2010-07-27T17:14:12</time>
      </trkpt>
      <trkpt lat="48.50796" lon="-2.02057">
        <ele>149.5</ele>
        <time>2010-07-27T17:14:15</time>
      </trkpt>
      <trkpt lat="48.50786" lon="-2.02056">
        <ele>149</ele>
        <time>2010-07-27T17:14:18</time>
      </trkpt>
      <trkpt lat="48.50768" lon="-2.02061">
        <ele>142.5</ele>
        <time>2010-07-27T17:14:21</time>
      </trkpt>
      <trkpt lat="48.50744" lon="-2.02065">
        <ele>127.5</ele>
        <time>2010-07-27T17:14:24</time>
      </trkpt>
      <trkpt lat="48.5072" lon="-2.0207">
        <ele>117.5</ele>
        <time>2010-07-27T17:14:27</time>
      </trkpt>
      <trkpt lat="48.507" lon="-2.0208">
        <ele>117.5</ele>
        <time>2010-07-27T17:14:30</time>
      </trkpt>
      <trkpt lat="48.50682" lon="-2.02093">
        <ele>117.5</ele>
        <time>2010-07-27T17:14:33</time>
      </trkpt>
      <trkpt lat="48.5066" lon="-2.02105">
        <ele>110.5</ele>
        <time>2010-07-27T17:14:36</time>
      </trkpt>
      <trkpt lat="48.50641" lon="-2.02123">
        <ele>110.5</ele>
        <time>2010-07-27T17:14:39</time>
      </trkpt>
      <trkpt lat="48.50624" lon="-2.02145">
        <ele>112</ele>
        <time>2010-07-27T17:14:42</time>
      </trkpt>
      <trkpt lat="48.50607" lon="-2.02169">
        <ele>113</ele>
        <time>2010-07-27T17:14:45</time>
      </trkpt>
      <trkpt lat="48.50592" lon="-2.02193">
        <ele>113</ele>
        <time>2010-07-27T17:14:48</time>
      </trkpt>
      <trkpt lat="48.50577" lon="-2.02219">
        <ele>112.5</ele>
        <time>2010-07-27T17:14:51</time>
      </trkpt>
      <trkpt lat="48.50562" lon="-2.02239">
        <ele>113</ele>
        <time>2010-07-27T17:14:54</time>
      </trkpt>
      <trkpt lat="48.50547" lon="-2.02264">
        <ele>113.5</ele>
        <time>2010-07-27T17:14:57</time>
      </trkpt>
      <trkpt lat="48.50538" lon="-2.02286">
        <ele>115.5</ele>
        <time>2010-07-27T17:15:00</time>
      </trkpt>
      <trkpt lat="48.5053" lon="-2.02289">
        <ele>119</ele>
        <time>2010-07-27T17:15:03</time>
      </trkpt>
      <trkpt lat="48.50509" lon="-2.02304">
        <ele>118</ele>
        <time>2010-07-27T17:15:06</time>
      </trkpt>
      <trkpt lat="48.50482" lon="-2.02321">
        <ele>117.5</ele>
        <time>2010-07-27T17:15:09</time>
      </trkpt>
      <trkpt lat="48.50433" lon="-2.02352">
        <ele>117.5</ele>
        <time>2010-07-27T17:15:15</time>
      </trkpt>
      <trkpt lat="48.504" lon="-2.02364">
        <ele>111.5</ele>
        <time>2010-07-27T17:15:18</time>
      </trkpt>
      <trkpt lat="48.50373" lon="-2.02381">
        <ele>105</ele>
        <time>2010-07-27T17:15:21</time>
      </trkpt>
      <trkpt lat="48.50352" lon="-2.02402">
        <ele>102.5</ele>
        <time>2010-07-27T17:15:24</time>
      </trkpt>
      <trkpt lat="48.50329" lon="-2.02431">
        <ele>109</ele>
        <time>2010-07-27T17:15:27</time>
      </trkpt>
      <trkpt lat="48.50311" lon="-2.02453">
        <ele>109.5</ele>
        <time>2010-07-27T17:15:30</time>
      </trkpt>
      <trkpt lat="48.50292" lon="-2.02472">
        <ele>109</ele>
        <time>2010-07-27T17:15:33</time>
      </trkpt>
      <trkpt lat="48.50275" lon="-2.0249">
        <ele>108.5</ele>
        <time>2010-07-27T17:15:36</time>
      </trkpt>
      <trkpt lat="48.50256" lon="-2.02503">
        <ele>107</ele>
        <time>2010-07-27T17:15:39</time>
      </trkpt>
      <trkpt lat="48.50239" lon="-2.02518">
        <ele>106</ele>
        <time>2010-07-27T17:15:42</time>
      </trkpt>
      <trkpt lat="48.50224" lon="-2.02538">
        <ele>105.5</ele>
        <time>2010-07-27T17:15:45</time>
      </trkpt>
      <trkpt lat="48.50212" lon="-2.02557">
        <ele>104.5</ele>
        <time>2010-07-27T17:15:48</time>
      </trkpt>
      <trkpt lat="48.50199" lon="-2.02571">
        <ele>104.5</ele>
        <time>2010-07-27T17:15:51</time>
      </trkpt>
      <trkpt lat="48.50186" lon="-2.02585">
        <ele>105</ele>
        <time>2010-07-27T17:15:54</time>
      </trkpt>
      <trkpt lat="48.50172" lon="-2.02594">
        <ele>105</ele>
        <time>2010-07-27T17:15:57</time>
      </trkpt>
      <trkpt lat="48.50159" lon="-2.02596">
        <ele>105.5</ele>
        <time>2010-07-27T17:16:00</time>
      </trkpt>
      <trkpt lat="48.50154" lon="-2.02596">
        <ele>109.5</ele>
        <time>2010-07-27T17:16:03</time>
      </trkpt>
      <trkpt lat="48.50146" lon="-2.02591">
        <ele>111.5</ele>
        <time>2010-07-27T17:16:09</time>
      </trkpt>
      <trkpt lat="48.50143" lon="-2.02592">
        <ele>114</ele>
        <time>2010-07-27T17:16:12</time>
      </trkpt>
      <trkpt lat="48.50141" lon="-2.02591">
        <ele>117</ele>
        <time>2010-07-27T17:16:15</time>
      </trkpt>
      <trkpt lat="48.5014" lon="-2.0259">
        <ele>119.5</ele>
        <time>2010-07-27T17:16:18</time>
      </trkpt>
      <trkpt lat="48.50139" lon="-2.02589">
        <ele>121</ele>
        <time>2010-07-27T17:16:21</time>
      </trkpt>
      <trkpt lat="48.50136" lon="-2.02588">
        <ele>121</ele>
        <time>2010-07-27T17:16:24</time>
      </trkpt>
      <trkpt lat="48.50134" lon="-2.02588">
        <ele>123</ele>
        <time>2010-07-27T17:16:27</time>
      </trkpt>
      <trkpt lat="48.50131" lon="-2.02588">
        <ele>125</ele>
        <time>2010-07-27T17:16:30</time>
      </trkpt>
      <trkpt lat="48.50125" lon="-2.02588">
        <ele>127</ele>
        <time>2010-07-27T17:16:33</time>
      </trkpt>
      <trkpt lat="48.50117" lon="-2.02587">
        <ele>128</ele>
        <time>2010-07-27T17:16:36</time>
      </trkpt>
      <trkpt lat="48.50108" lon="-2.02587">
        <ele>128.5</ele>
        <time>2010-07-27T17:16:39</time>
      </trkpt>
      <trkpt lat="48.50099" lon="-2.02587">
        <ele>129.5</ele>
        <time>2010-07-27T17:16:42</time>
      </trkpt>
      <trkpt lat="48.5009" lon="-2.02588">
        <ele>131.5</ele>
        <time>2010-07-27T17:16:45</time>
      </trkpt>
      <trkpt lat="48.50081" lon="-2.02589">
        <ele>131.5</ele>
        <time>2010-07-27T17:16:48</time>
      </trkpt>
      <trkpt lat="48.50074" lon="-2.02588">
        <ele>132</ele>
        <time>2010-07-27T17:16:51</time>
      </trkpt>
      <trkpt lat="48.5007" lon="-2.0259">
        <ele>133.5</ele>
        <time>2010-07-27T17:16:54</time>
      </trkpt>
      <trkpt lat="48.50065" lon="-2.0259">
        <ele>134.5</ele>
        <time>2010-07-27T17:16:57</time>
      </trkpt>
      <trkpt lat="48.50062" lon="-2.0259">
        <ele>138.5</ele>
        <time>2010-07-27T17:17:00</time>
      </trkpt>
      <trkpt lat="48.50056" lon="-2.02591">
        <ele>141</ele>
        <time>2010-07-27T17:17:03</time>
      </trkpt>
      <trkpt lat="48.50051" lon="-2.02592">
        <ele>142.5</ele>
        <time>2010-07-27T17:17:06</time>
      </trkpt>
      <trkpt lat="48.50045" lon="-2.02593">
        <ele>145</ele>
        <time>2010-07-27T17:17:09</time>
      </trkpt>
      <trkpt lat="48.50036" lon="-2.02595">
        <ele>146.5</ele>
        <time>2010-07-27T17:17:12</time>
      </trkpt>
      <trkpt lat="48.50028" lon="-2.02597">
        <ele>148</ele>
        <time>2010-07-27T17:17:15</time>
      </trkpt>
      <trkpt lat="48.5002" lon="-2.02597">
        <ele>149</ele>
        <time>2010-07-27T17:17:18</time>
      </trkpt>
      <trkpt lat="48.50011" lon="-2.02597">
        <ele>147.5</ele>
        <time>2010-07-27T17:17:21</time>
      </trkpt>
      <trkpt lat="48.49999" lon="-2.02596">
        <ele>145.5</ele>
        <time>2010-07-27T17:17:24</time>
      </trkpt>
      <trkpt lat="48.49986" lon="-2.02596">
        <ele>142.5</ele>
        <time>2010-07-27T17:17:27</time>
      </trkpt>
      <trkpt lat="48.49974" lon="-2.02595">
        <ele>139</ele>
        <time>2010-07-27T17:17:30</time>
      </trkpt>
      <trkpt lat="48.49963" lon="-2.02596">
        <ele>137</ele>
        <time>2010-07-27T17:17:33</time>
      </trkpt>
      <trkpt lat="48.49952" lon="-2.02597">
        <ele>137</ele>
        <time>2010-07-27T17:17:36</time>
      </trkpt>
      <trkpt lat="48.49942" lon="-2.02599">
        <ele>135.5</ele>
        <time>2010-07-27T17:17:39</time>
      </trkpt>
      <trkpt lat="48.49933" lon="-2.026">
        <ele>135.5</ele>
        <time>2010-07-27T17:17:42</time>
      </trkpt>
      <trkpt lat="48.49923" lon="-2.02601">
        <ele>135</ele>
        <time>2010-07-27T17:17:45</time>
      </trkpt>
      <trkpt lat="48.49914" lon="-2.02603">
        <ele>134</ele>
        <time>2010-07-27T17:17:48</time>
      </trkpt>
      <trkpt lat="48.49904" lon="-2.02604">
        <ele>133</ele>
        <time>2010-07-27T17:17:51</time>
      </trkpt>
      <trkpt lat="48.49897" lon="-2.02605">
        <ele>133.5</ele>
        <time>2010-07-27T17:17:54</time>
      </trkpt>
      <trkpt lat="48.49889" lon="-2.02606">
        <ele>134.5</ele>
        <time>2010-07-27T17:17:57</time>
      </trkpt>
      <trkpt lat="48.49879" lon="-2.02608">
        <ele>134</ele>
        <time>2010-07-27T17:18:00</time>
      </trkpt>
      <trkpt lat="48.4987" lon="-2.02609">
        <ele>134</ele>
        <time>2010-07-27T17:18:03</time>
      </trkpt>
      <trkpt lat="48.4986" lon="-2.02609">
        <ele>134</ele>
        <time>2010-07-27T17:18:06</time>
      </trkpt>
      <trkpt lat="48.49851" lon="-2.0261">
        <ele>135</ele>
        <time>2010-07-27T17:18:09</time>
      </trkpt>
      <trkpt lat="48.49844" lon="-2.02611">
        <ele>135</ele>
        <time>2010-07-27T17:18:12</time>
      </trkpt>
      <trkpt lat="48.49836" lon="-2.02611">
        <ele>135</ele>
        <time>2010-07-27T17:18:15</time>
      </trkpt>
      <trkpt lat="48.4982" lon="-2.02611">
        <ele>136</ele>
        <time>2010-07-27T17:18:18</time>
      </trkpt>
      <trkpt lat="48.4981" lon="-2.02611">
        <ele>135</ele>
        <time>2010-07-27T17:18:21</time>
      </trkpt>
      <trkpt lat="48.49795" lon="-2.02614">
        <ele>133</ele>
        <time>2010-07-27T17:18:24</time>
      </trkpt>
      <trkpt lat="48.49776" lon="-2.02617">
        <ele>133</ele>
        <time>2010-07-27T17:18:27</time>
      </trkpt>
      <trkpt lat="48.49767" lon="-2.0262">
        <ele>132.5</ele>
        <time>2010-07-27T17:18:30</time>
      </trkpt>
      <trkpt lat="48.49753" lon="-2.02627">
        <ele>130</ele>
        <time>2010-07-27T17:18:33</time>
      </trkpt>
      <trkpt lat="48.49737" lon="-2.02635">
        <ele>130.5</ele>
        <time>2010-07-27T17:18:36</time>
      </trkpt>
      <trkpt lat="48.49726" lon="-2.02642">
        <ele>129</ele>
        <time>2010-07-27T17:18:39</time>
      </trkpt>
      <trkpt lat="48.49715" lon="-2.02648">
        <ele>128</ele>
        <time>2010-07-27T17:18:42</time>
      </trkpt>
      <trkpt lat="48.49708" lon="-2.02653">
        <ele>126</ele>
        <time>2010-07-27T17:18:45</time>
      </trkpt>
      <trkpt lat="48.49705" lon="-2.02652">
        <ele>130.5</ele>
        <time>2010-07-27T17:18:48</time>
      </trkpt>
      <trkpt lat="48.497" lon="-2.02653">
        <ele>131</ele>
        <time>2010-07-27T17:18:51</time>
      </trkpt>
      <trkpt lat="48.49694" lon="-2.02653">
        <ele>130.5</ele>
        <time>2010-07-27T17:18:54</time>
      </trkpt>
      <trkpt lat="48.49691" lon="-2.02652">
        <ele>129.5</ele>
        <time>2010-07-27T17:19:00</time>
      </trkpt>
    </trkseg>
  </trk>
</gpx>